[[{"header":{"parameterUnit":"m.s-1","parameterCategory":1,"la1":30.6,"la2":29.2853,"lo1":-89.7004,"lo2":-87.6739,"dy":0.0162,"dx":0.0183,"nx":112,"ny":82,"refTime":"2023-07-11T06:00:00:Z","depth":0,"parameterNumber":2,"parameterNumberName":"U-component_of_WINDS"},"data":[0.0,0.0,0.0,0.0,0.0,0.0,0.0,0.0,0.0,0.0,0.0,0.0,0.0,0.0,0.0,0.0,0.0,0.0,0.0,0.0,0.0,0.0,0.0,0.0,0.0,0.0,0.0,0.0,0.0,0.0,0.0,0.0,0.0,0.0,0.0,0.0,0.0,0.0,0.0,0.0,0.0,0.0,0.0,0.0,0.0,0.0,0.0,0.0,0.0,0.0,0.0,0.0,0.0,0.0,0.0,0.0,0.0,0.0,0.0,0.0,0.0,0.0,0.0,0.0,0.0,0.0,0.0,0.0,0.0,0.0,0.0,0.0,0.0,0.0,0.0,0.0,0.0,0.0,0.0,0.0,0.0,0.0,0.0,0.0,0.0,0.0,0.0,0.0,0.0,0.0,0.0,-5.0507,-5.7408,-6.0757,-5.8423,-5.9471,-5.6833,-4.8781,0.0,0.0,0.0,0.0,0.0,0.0,0.0,0.0,0.0,0.0,0.0,0.0,0.0,0.0,0.0,0.0,0.0,0.0,0.0,0.0,0.0,0.0,0.0,0.0,0.0,0.0,0.0,0.0,0.0,0.0,0.0,0.0,0.0,0.0,0.0,0.0,0.0,0.0,0.0,0.0,0.0,0.0,0.0,0.0,0.0,0.0,0.0,0.0,0.0,0.0,0.0,0.0,0.0,0.0,0.0,0.0,0.0,0.0,0.0,0.0,0.0,0.0,0.0,0.0,0.0,0.0,0.0,0.0,0.0,0.0,0.0,0.0,0.0,0.0,0.0,0.0,0.0,0.0,0.0,0.0,0.0,0.0,0.0,0.0,0.0,0.0,0.0,0.0,0.0,0.0,0.0,0.0,0.0,0.0,0.0,0.0,0.0,0.0,0.0,0.0,0.0,0.0,0.0,0.0,-4.7936,-5.4194,-5.7103,-5.8896,-5.9708,-5.7205,-5.3923,-4.9999,0.0,0.0,0.0,0.0,0.0,0.0,0.0,0.0,0.0,0.0,0.0,0.0,0.0,0.0,0.0,0.0,0.0,0.0,0.0,0.0,0.0,0.0,0.0,0.0,0.0,0.0,0.0,0.0,0.0,0.0,0.0,0.0,0.0,0.0,0.0,0.0,0.0,0.0,0.0,0.0,0.0,0.0,0.0,0.0,0.0,0.0,0.0,0.0,0.0,0.0,0.0,0.0,0.0,0.0,0.0,0.0,0.0,0.0,0.0,0.0,0.0,0.0,0.0,0.0,0.0,0.0,0.0,0.0,0.0,0.0,0.0,0.0,0.0,0.0,0.0,0.0,0.0,0.0,0.0,0.0,0.0,0.0,0.0,0.0,0.0,0.0,0.0,0.0,0.0,0.0,0.0,0.0,0.0,0.0,0.0,0.0,0.0,0.0,0.0,0.0,0.0,0.0,0.0,-4.6413,-4.9593,-5.5107,-5.7374,-5.8287,-5.778,-5.5784,-5.2773,-4.8578,-4.6831,0.0,0.0,0.0,0.0,0.0,0.0,0.0,0.0,0.0,0.0,0.0,0.0,0.0,0.0,0.0,0.0,0.0,0.0,0.0,0.0,0.0,0.0,0.0,0.0,0.0,0.0,0.0,0.0,0.0,0.0,0.0,0.0,0.0,0.0,0.0,0.0,0.0,0.0,0.0,0.0,0.0,0.0,0.0,0.0,0.0,0.0,0.0,0.0,0.0,0.0,0.0,0.0,0.0,0.0,0.0,0.0,0.0,0.0,0.0,0.0,0.0,0.0,0.0,0.0,0.0,0.0,0.0,0.0,0.0,0.0,0.0,0.0,0.0,0.0,0.0,0.0,0.0,0.0,0.0,0.0,0.0,0.0,0.0,0.0,0.0,0.0,0.0,0.0,0.0,0.0,0.0,0.0,0.0,0.0,0.0,0.0,0.0,0.0,0.0,0.0,0.0,0.0,-4.8443,-5.0642,-5.5006,-5.6968,-5.7374,-5.5852,-5.4363,-5.1657,-4.7327,-4.4456,0.0,0.0,0.0,0.0,0.0,0.0,0.0,0.0,0.0,0.0,0.0,0.0,0.0,0.0,0.0,0.0,0.0,0.0,0.0,0.0,0.0,0.0,0.0,0.0,0.0,0.0,0.0,0.0,0.0,0.0,0.0,0.0,0.0,0.0,0.0,0.0,0.0,0.0,0.0,0.0,0.0,0.0,0.0,0.0,0.0,0.0,0.0,0.0,0.0,0.0,0.0,0.0,0.0,0.0,0.0,0.0,0.0,0.0,0.0,0.0,0.0,0.0,0.0,0.0,0.0,0.0,0.0,0.0,0.0,0.0,0.0,0.0,0.0,0.0,0.0,0.0,0.0,0.0,0.0,0.0,0.0,0.0,0.0,0.0,0.0,0.0,0.0,0.0,0.0,0.0,0.0,0.0,0.0,0.0,0.0,0.0,0.0,0.0,0.0,0.0,0.0,0.0,-4.8105,-5.0473,-5.4262,-5.4803,-5.5108,-5.5683,-5.2435,-4.9661,-4.7906,-4.3727,0.0,0.0,0.0,0.0,0.0,0.0,0.0,0.0,0.0,0.0,0.0,0.0,0.0,0.0,0.0,0.0,0.0,0.0,0.0,0.0,0.0,0.0,0.0,0.0,0.0,0.0,0.0,0.0,0.0,0.0,0.0,0.0,0.0,0.0,0.0,0.0,0.0,0.0,0.0,0.0,0.0,0.0,0.0,0.0,0.0,0.0,0.0,0.0,0.0,0.0,0.0,0.0,0.0,0.0,0.0,0.0,0.0,0.0,0.0,0.0,0.0,0.0,0.0,0.0,0.0,0.0,0.0,0.0,0.0,0.0,0.0,0.0,0.0,0.0,0.0,0.0,0.0,0.0,0.0,0.0,0.0,0.0,0.0,0.0,0.0,0.0,0.0,0.0,0.0,0.0,0.0,0.0,0.0,0.0,0.0,0.0,0.0,0.0,0.0,0.0,0.0,0.0,-4.8071,-5.0439,0.0,-5.5006,-5.504,-5.4397,-5.2164,-4.9338,-4.5988,0.0,0.0,0.0,0.0,0.0,0.0,0.0,0.0,0.0,0.0,0.0,0.0,0.0,0.0,0.0,0.0,0.0,0.0,0.0,0.0,0.0,0.0,0.0,0.0,0.0,0.0,0.0,0.0,0.0,0.0,0.0,0.0,0.0,0.0,0.0,0.0,0.0,0.0,0.0,0.0,0.0,0.0,0.0,0.0,0.0,0.0,0.0,0.0,0.0,0.0,0.0,0.0,0.0,0.0,0.0,0.0,0.0,0.0,0.0,0.0,0.0,0.0,0.0,0.0,0.0,0.0,0.0,0.0,0.0,0.0,0.0,0.0,0.0,0.0,0.0,0.0,0.0,0.0,0.0,0.0,0.0,0.0,0.0,0.0,0.0,0.0,0.0,0.0,0.0,0.0,0.0,0.0,0.0,0.0,0.0,0.0,0.0,0.0,0.0,0.0,0.0,0.0,-4.6007,-4.7733,-4.9999,0.0,-5.4566,-5.4499,-5.3247,-5.0854,-4.8017,-4.4693,0.0,0.0,0.0,0.0,0.0,0.0,0.0,0.0,0.0,0.0,0.0,0.0,0.0,0.0,0.0,0.0,0.0,0.0,0.0,0.0,0.0,0.0,0.0,0.0,0.0,0.0,0.0,0.0,0.0,0.0,0.0,0.0,0.0,0.0,0.0,0.0,0.0,0.0,0.0,0.0,0.0,0.0,0.0,0.0,0.0,0.0,0.0,0.0,0.0,0.0,0.0,0.0,0.0,0.0,0.0,0.0,0.0,0.0,0.0,0.0,0.0,0.0,0.0,0.0,0.0,0.0,0.0,0.0,0.0,0.0,0.0,0.0,0.0,0.0,0.0,0.0,0.0,0.0,0.0,0.0,0.0,0.0,0.0,0.0,0.0,0.0,0.0,0.0,0.0,0.0,0.0,0.0,0.0,0.0,0.0,0.0,0.0,0.0,0.0,0.0,0.0,0.0,-4.5331,-4.6959,-4.8987,-5.1962,-5.2977,-5.3146,-5.2334,-4.8157,-4.526,0.0,0.0,0.0,0.0,0.0,0.0,0.0,0.0,0.0,0.0,0.0,0.0,0.0,0.0,0.0,0.0,0.0,0.0,0.0,0.0,0.0,0.0,0.0,0.0,0.0,0.0,0.0,0.0,0.0,0.0,0.0,0.0,0.0,0.0,0.0,0.0,0.0,0.0,0.0,0.0,0.0,0.0,0.0,0.0,0.0,0.0,0.0,0.0,0.0,0.0,0.0,0.0,0.0,0.0,0.0,0.0,0.0,0.0,0.0,0.0,0.0,0.0,0.0,0.0,0.0,0.0,0.0,0.0,0.0,0.0,0.0,0.0,0.0,0.0,0.0,0.0,0.0,0.0,0.0,0.0,0.0,0.0,0.0,0.0,0.0,0.0,0.0,0.0,0.0,0.0,0.0,0.0,0.0,0.0,0.0,0.0,0.0,0.0,0.0,0.0,0.0,0.0,0.0,-4.5331,-4.5975,-4.7435,-5.0854,-5.0856,-5.0297,-4.9544,-4.6896,-4.4136,-4.1373,0.0,0.0,0.0,0.0,0.0,0.0,0.0,0.0,0.0,0.0,0.0,0.0,0.0,0.0,0.0,0.0,0.0,0.0,0.0,0.0,0.0,0.0,0.0,0.0,0.0,0.0,0.0,0.0,0.0,0.0,0.0,0.0,0.0,0.0,0.0,0.0,0.0,0.0,0.0,0.0,0.0,0.0,0.0,0.0,0.0,0.0,0.0,0.0,0.0,0.0,0.0,0.0,0.0,0.0,0.0,0.0,0.0,0.0,0.0,0.0,0.0,0.0,0.0,0.0,0.0,0.0,0.0,0.0,0.0,0.0,0.0,0.0,0.0,0.0,0.0,0.0,0.0,0.0,0.0,0.0,0.0,0.0,0.0,0.0,0.0,0.0,0.0,0.0,0.0,0.0,0.0,0.0,0.0,0.0,0.0,0.0,0.0,0.0,0.0,0.0,0.0,0.0,-4.4395,-4.4624,-4.5767,-4.9153,-4.9231,-4.8679,-4.797,-4.5416,-4.2721,-3.9959,0.0,0.0,0.0,0.0,0.0,0.0,0.0,0.0,0.0,0.0,0.0,0.0,0.0,0.0,0.0,0.0,0.0,0.0,0.0,0.0,0.0,0.0,0.0,0.0,0.0,0.0,0.0,0.0,0.0,0.0,0.0,0.0,0.0,0.0,0.0,0.0,0.0,0.0,0.0,0.0,0.0,0.0,0.0,0.0,0.0,0.0,0.0,0.0,0.0,0.0,0.0,0.0,0.0,0.0,0.0,0.0,0.0,0.0,0.0,0.0,0.0,0.0,0.0,0.0,0.0,0.0,0.0,0.0,0.0,0.0,0.0,0.0,0.0,0.0,0.0,0.0,0.0,0.0,0.0,0.0,0.0,0.0,0.0,0.0,0.0,0.0,0.0,0.0,0.0,0.0,0.0,0.0,0.0,0.0,0.0,0.0,0.0,0.0,0.0,0.0,0.0,0.0,-4.2797,-4.2925,-4.391,-4.6945,-4.7623,-4.7563,-4.6921,-4.3643,-4.1069,-3.9577,0.0,0.0,0.0,0.0,0.0,0.0,0.0,0.0,0.0,0.0,0.0,0.0,0.0,0.0,0.0,0.0,0.0,0.0,0.0,0.0,0.0,0.0,0.0,0.0,0.0,0.0,0.0,0.0,0.0,0.0,0.0,0.0,0.0,0.0,0.0,0.0,0.0,0.0,0.0,0.0,0.0,0.0,0.0,0.0,0.0,0.0,0.0,0.0,0.0,0.0,0.0,0.0,0.0,0.0,0.0,0.0,0.0,0.0,0.0,0.0,-4.9077,0.0,0.0,0.0,0.0,0.0,0.0,0.0,0.0,0.0,0.0,0.0,0.0,0.0,0.0,0.0,0.0,0.0,0.0,0.0,0.0,0.0,0.0,0.0,0.0,0.0,0.0,0.0,0.0,0.0,0.0,0.0,0.0,0.0,0.0,0.0,0.0,0.0,0.0,0.0,0.0,0.0,-4.1191,-4.0832,-4.1435,-4.4315,-4.4037,-4.3617,-4.3465,-4.1267,-3.9164,-3.7322,0.0,0.0,0.0,0.0,0.0,0.0,0.0,0.0,0.0,0.0,0.0,0.0,0.0,0.0,0.0,0.0,0.0,0.0,0.0,0.0,0.0,0.0,0.0,0.0,0.0,0.0,0.0,0.0,0.0,0.0,0.0,0.0,0.0,0.0,0.0,0.0,0.0,0.0,0.0,0.0,0.0,0.0,0.0,0.0,0.0,0.0,0.0,0.0,0.0,0.0,0.0,0.0,0.0,0.0,0.0,0.0,0.0,0.0,0.0,0.0,0.0,-5.0435,0.0,0.0,0.0,0.0,0.0,0.0,0.0,0.0,0.0,0.0,0.0,0.0,0.0,0.0,0.0,0.0,0.0,0.0,0.0,0.0,0.0,0.0,0.0,0.0,0.0,0.0,0.0,0.0,0.0,0.0,0.0,0.0,0.0,0.0,0.0,0.0,0.0,0.0,0.0,0.0,-4.0252,-3.9615,-3.999,-4.2514,-4.2257,-4.1931,-4.1931,-4.0068,-3.8362,-3.7015,-3.4771,0.0,0.0,0.0,0.0,0.0,0.0,0.0,0.0,0.0,0.0,0.0,0.0,0.0,0.0,0.0,0.0,0.0,0.0,0.0,0.0,0.0,0.0,0.0,0.0,0.0,0.0,0.0,0.0,0.0,0.0,0.0,0.0,0.0,0.0,0.0,0.0,0.0,0.0,0.0,0.0,0.0,0.0,0.0,0.0,0.0,0.0,0.0,0.0,0.0,0.0,0.0,0.0,0.0,0.0,-5.9905,-6.0248,-6.0395,-6.0469,-6.0285,-5.6799,-5.4289,-5.2527,0.0,0.0,0.0,0.0,0.0,0.0,0.0,0.0,0.0,0.0,0.0,0.0,0.0,0.0,0.0,0.0,0.0,0.0,0.0,0.0,0.0,0.0,0.0,0.0,0.0,-4.2963,-4.2902,0.0,0.0,0.0,0.0,0.0,0.0,0.0,0.0,0.0,0.0,0.0,0.0,-3.928,-3.8742,-3.9038,-4.1085,-4.1055,-4.0883,-4.0883,-3.914,-3.7764,-3.7105,-3.4921,-3.3365,0.0,0.0,0.0,0.0,0.0,0.0,0.0,0.0,0.0,0.0,0.0,0.0,0.0,0.0,0.0,0.0,0.0,0.0,0.0,0.0,0.0,0.0,0.0,0.0,0.0,0.0,0.0,0.0,0.0,0.0,0.0,0.0,-4.6657,-4.626,0.0,0.0,0.0,0.0,0.0,0.0,0.0,0.0,0.0,0.0,0.0,0.0,0.0,0.0,-5.8561,-6.141,-6.2181,-6.1006,-6.4677,-6.5742,-6.453,-6.5228,-6.5558,-6.5485,-6.4237,0.0,-5.4987,-5.3518,0.0,0.0,0.0,0.0,0.0,0.0,0.0,0.0,0.0,0.0,0.0,0.0,0.0,0.0,0.0,0.0,0.0,0.0,0.0,0.0,0.0,0.0,-4.324,-4.324,-4.3308,-4.3308,0.0,-4.1982,-4.0865,-4.0214,0.0,0.0,0.0,0.0,0.0,0.0,0.0,0.0,-3.7533,-3.7601,-3.8098,-3.9523,-3.9152,-3.8781,-3.8781,-3.7524,-3.6447,-3.5789,-3.4861,-3.4084,-3.3395,-3.2736,0.0,0.0,0.0,0.0,0.0,0.0,0.0,0.0,0.0,0.0,0.0,0.0,0.0,0.0,0.0,0.0,0.0,0.0,0.0,0.0,0.0,0.0,0.0,0.0,0.0,0.0,0.0,0.0,0.0,-4.7112,-4.7753,-4.6087,-4.7353,-4.7593,0.0,0.0,0.0,0.0,0.0,0.0,0.0,0.0,0.0,-5.818,-5.9979,-6.1667,-6.3282,-6.5191,-6.6219,-6.6402,-6.8201,-6.8935,-6.8651,-6.9045,-6.9192,-6.9155,-6.7871,-6.5191,-6.1447,-5.7997,-5.5354,-5.3155,0.0,0.0,0.0,0.0,0.0,-4.6583,-4.7394,0.0,0.0,0.0,0.0,0.0,0.0,0.0,0.0,0.0,0.0,0.0,0.0,0.0,0.0,-4.4079,-4.4384,-4.4587,-4.4147,-4.32,-4.2117,0.0,-4.0383,-4.0113,-4.0113,0.0,0.0,0.0,0.0,0.0,-3.7327,-3.7404,-3.7764,-3.8721,-3.8571,-3.8242,-3.7883,-3.7015,-3.6357,-3.6058,-3.5102,-3.4204,-3.3514,-3.2856,-3.2318,0.0,0.0,0.0,0.0,0.0,0.0,0.0,0.0,0.0,0.0,0.0,0.0,0.0,0.0,0.0,0.0,0.0,0.0,0.0,0.0,0.0,0.0,0.0,0.0,0.0,0.0,0.0,0.0,-4.8325,-4.9121,-4.6167,-4.8862,-4.9652,0.0,0.0,0.0,0.0,0.0,0.0,-5.6051,-5.7226,-5.9318,-6.2768,-6.4861,-6.6696,-6.8311,-6.9119,-6.9926,-7.0734,-7.0917,-7.1248,-7.1615,-7.1615,-7.1725,-7.1835,-7.044,-6.8898,-6.7026,-6.1924,-5.851,-5.6145,-5.2354,-5.0723,0.0,-4.8999,-4.8354,-4.8342,-4.9424,-4.983,-4.956,-4.8105,0.0,-4.5771,-4.3166,0.0,0.0,0.0,0.0,-4.2185,-4.2753,0.0,-4.4857,-4.4857,-4.5297,-4.5534,-4.4993,-4.4113,-4.3003,0.0,-4.1035,-4.062,-4.0417,0.0,0.0,0.0,0.0,-3.725,-3.7395,-3.7404,-3.7734,-3.8571,-3.8332,-3.7943,-3.7434,-3.6686,-3.6237,-3.6237,-3.531,-3.4352,-3.3514,-3.3036,-3.2348,-3.1511,0.0,0.0,0.0,0.0,0.0,0.0,0.0,0.0,0.0,0.0,0.0,0.0,0.0,0.0,0.0,0.0,0.0,0.0,0.0,0.0,0.0,0.0,0.0,0.0,0.0,0.0,0.0,0.0,0.0,-4.6824,-5.1636,0.0,0.0,0.0,0.0,-5.3965,-5.55,-5.7813,-6.1043,-6.2768,-6.5485,-6.9486,-7.0477,-7.1725,-7.3303,-7.4147,-7.3817,-7.2386,-7.3156,-7.312,-7.2459,-7.2459,-7.2863,-7.3523,-7.2679,-7.1394,-6.9486,-6.3796,-6.0529,-5.8624,-5.4736,-5.2817,-5.2024,-5.0551,-4.9541,-4.8951,-4.9052,-4.9052,-4.9154,-4.9729,-4.8951,-4.75,-4.594,-4.4959,0.0,0.0,-4.4445,-4.4445,-4.4479,-4.506,-4.5635,-4.5635,-4.5669,-4.5703,-4.5669,-4.4485,-4.3172,0.0,-4.2185,-4.1948,-4.1271,0.0,-3.8704,-3.7918,-3.6538,-3.6067,-3.7255,-3.7404,-3.7913,-3.9194,-3.8212,-3.7434,-3.7404,-3.6267,-3.5549,-3.5549,-3.5489,-3.4861,-3.3544,-3.3455,-3.2826,-3.154,-3.1481,0.0,0.0,0.0,0.0,0.0,0.0,0.0,0.0,0.0,0.0,0.0,0.0,0.0,0.0,0.0,0.0,0.0,0.0,0.0,0.0,0.0,0.0,0.0,0.0,0.0,0.0,0.0,0.0,-5.233,-5.6504,0.0,0.0,-5.5638,-5.7299,-5.8914,-6.0566,-6.3135,-6.688,-6.8128,-6.9889,-7.2349,-7.3707,-7.4661,-7.5249,-7.5542,-7.5139,-7.4074,-7.4331,-7.378,-7.2532,-7.3046,-7.2863,-7.2129,-7.1321,-7.033,-6.9082,-6.5999,-6.3174,-6.0455,-5.7613,-5.537,-5.3654,-5.266,-5.1779,-5.1217,-5.1725,-5.1894,-5.1691,-5.0473,-4.8781,-4.7022,-4.6007,-4.5162,-4.4716,-4.5162,-4.5297,-4.5399,-4.5872,-4.621,-4.6413,-4.6413,-4.6413,-4.6278,-4.5805,-4.5263,-4.4654,-4.391,-4.299,-4.2025,-4.1205,-4.0602,-3.9809,-3.8497,-3.7836,-3.7618,-3.7982,-3.8033,-3.8063,-3.8123,-3.7704,-3.7075,-3.6267,-3.5759,-3.531,-3.4861,-3.4831,-3.4262,-3.2916,-3.2856,-3.2437,-3.1511,-3.0702,-3.0253,0.0,0.0,0.0,0.0,0.0,0.0,0.0,0.0,0.0,0.0,0.0,0.0,0.0,0.0,0.0,0.0,0.0,0.0,0.0,0.0,0.0,0.0,0.0,0.0,0.0,0.0,-5.6108,-5.59,-6.024,-6.2083,-5.9028,-6.0733,-6.2622,-6.3943,-6.5852,-6.8311,-7.1541,-7.2496,-7.3523,-7.4882,-7.5946,-7.6497,-7.6497,-7.6497,-7.5983,-7.4918,-7.4918,-7.3927,-7.2129,-7.2642,-7.2165,-7.0881,-7.033,-6.9486,-6.8421,-6.732,-6.4804,-6.1451,-5.9929,-5.7903,-5.5702,-5.4626,-5.3572,-5.2773,-5.3315,-5.3315,-5.2841,-5.1319,-4.9695,-4.8139,-4.7394,-4.6819,-4.6481,-4.6752,-4.6819,-4.6819,-4.6786,-4.6989,-4.7056,-4.6549,-4.6413,-4.6278,-4.5805,-4.55,-4.5162,-4.4716,-4.3547,-4.2378,-4.1539,-4.0948,-4.0127,-3.8804,-3.8381,-3.826,-3.8372,-3.8392,-3.8302,-3.8123,-3.7674,-3.7075,-3.6207,-3.5759,-3.531,-3.4861,-3.4623,-3.3993,-3.2886,-3.2856,-3.2497,-3.1839,-3.0552,-2.9983,-3.0193,0.0,0.0,0.0,0.0,0.0,0.0,0.0,0.0,0.0,0.0,0.0,0.0,0.0,0.0,0.0,0.0,0.0,0.0,0.0,0.0,0.0,0.0,0.0,-5.0318,-5.578,-5.9131,-5.7344,-6.2805,-6.5411,-6.2218,-6.5558,-6.8238,-6.9009,-7.1248,-7.3303,-7.4918,-7.5726,-7.6497,-7.7273,-7.7273,-7.7273,-7.7237,-7.7237,-7.643,-7.4882,-7.4918,-7.367,-7.1329,-7.1329,-7.0881,-7.011,-7.0073,-6.9155,-6.765,-6.765,-6.5278,-6.1666,-6.162,-6.0177,-5.7919,-5.6303,-5.4765,-5.3518,-5.3518,-5.2976,-5.2334,-5.23,-5.1826,-5.1082,-5.0304,-5.0067,-4.9898,-4.9187,-4.9018,-4.868,-4.7225,-4.7394,-4.7567,-4.6109,-4.5771,-4.5771,-4.5703,-4.5128,-4.4649,-4.4615,-4.3889,-4.3029,-4.2308,-4.0832,-3.9515,-3.8764,-3.7943,0.0,-3.8332,-3.8422,-3.8661,-3.932,-3.8212,-3.7434,-3.7375,-3.6237,-3.5489,-3.5459,-3.4801,-3.4144,-3.3455,-3.3425,-3.3125,-3.2437,-3.118,-3.0223,-2.9621,0.0,0.0,0.0,0.0,0.0,0.0,0.0,0.0,0.0,0.0,0.0,0.0,0.0,0.0,0.0,0.0,0.0,0.0,0.0,0.0,0.0,0.0,-5.4648,-5.5243,-5.9154,-6.2659,-6.4482,-6.8348,-7.0257,-6.8788,-7.1248,-7.2789,-7.2422,-7.4074,-7.5579,-7.6576,-7.6833,-7.7053,-7.7273,-7.7273,-7.7047,-7.646,-7.6423,-7.5616,-7.4037,-7.4625,-7.3964,-7.2165,-7.2165,-7.1394,-7.0073,-6.9486,-6.8311,-6.6843,-6.6843,-6.5494,-6.3276,-6.2062,-5.9483,-5.6335,-5.5856,-5.4769,-5.3518,-5.3518,-5.3382,-5.3078,-5.2503,-5.1826,-5.1082,-5.0304,-4.9729,-4.9255,-4.9052,-4.9018,-4.8917,-4.8511,-4.8545,-4.8477,-4.753,-4.7327,-4.6993,-4.594,-4.5534,-4.5229,-4.4716,-4.338,-4.2299,-4.2105,-4.1662,-4.0884,-3.9404,0.0,0.0,-3.911,-3.914,-3.902,-3.8721,-3.8332,-3.7734,-3.6836,-3.5968,-3.51,0.0,-3.3425,-3.2766,-3.2079,-3.2049,-3.172,-3.1061,-3.1152,-3.0702,0.0,0.0,0.0,0.0,0.0,0.0,0.0,0.0,0.0,0.0,0.0,0.0,0.0,0.0,0.0,0.0,0.0,0.0,0.0,0.0,0.0,0.0,-5.5949,-5.8674,-6.0853,-6.3015,-6.5448,-6.8348,-7.066,-7.1945,-7.1835,-7.3707,-7.4735,-7.4258,-7.5689,-7.6827,-7.7273,-7.7273,-7.7273,-7.7273,-7.7273,-7.7053,-7.6607,-7.6276,-7.5469,-7.4184,-7.4331,-7.3377,-7.1505,-7.1505,-7.0624,0.0,-6.8605,-6.7467,-6.5999,-6.5999,-6.4629,0.0,0.0,0.0,0.0,0.0,-5.4262,-5.3518,-5.3518,-5.3281,-5.2909,-5.2469,-5.1826,-5.1082,-5.0304,-4.9796,-4.939,-4.9086,-4.9018,-4.8951,-4.8612,-4.8781,-4.8748,-4.7699,-4.7462,-4.7124,-4.5974,-4.5466,-4.5094,-4.4682,0.0,0.0,-4.2141,-4.1395,-4.0585,-3.9553,-3.9373,-3.9373,0.0,-3.9373,-3.914,-3.8452,-3.8153,-3.7584,-3.6567,-3.5878,0.0,0.0,0.0,-3.2617,-3.1959,-3.1929,0.0,0.0,0.0,-3.1002,0.0,0.0,0.0,0.0,-2.9453,-2.9204,0.0,0.0,0.0,0.0,0.0,0.0,0.0,0.0,0.0,0.0,0.0,0.0,0.0,0.0,0.0,0.0,-5.9544,-6.2401,-6.6476,-6.7026,-6.7834,-6.9963,-7.1027,-7.1872,-7.2569,-7.4111,-7.5065,-7.5065,-7.643,-7.7273,-7.7273,0.0,0.0,0.0,0.0,-7.7237,-7.7163,-7.6387,-7.5579,-7.4771,-7.3964,-7.2386,-7.022,-7.0146,-6.9265,-6.7834,-6.7724,-6.6769,-6.5301,-6.5301,-6.3265,-6.0139,-6.0024,-5.9073,-5.7455,-5.4557,-5.3518,0.0,0.0,0.0,0.0,-5.2198,-5.1691,-5.0947,-5.0202,-4.9965,-4.983,-4.9187,-4.9018,-4.8849,-4.8176,-4.8511,-4.8646,-4.7158,-4.6786,-4.6583,-4.5737,-4.506,-4.4615,-4.4615,-4.444,-4.3827,-4.2269,-4.0721,-3.9625,-3.9409,-3.9373,0.0,-3.9373,-3.9373,-3.914,-3.8452,0.0,0.0,-3.6537,-3.5878,-3.522,-3.4563,-3.3873,-3.3215,-3.2527,-3.2527,-3.2437,-3.2378,-3.1809,-3.1212,-3.0612,-3.0612,-3.0612,-3.0612,-3.0528,-2.9958,0.0,0.0,0.0,0.0,0.0,0.0,0.0,0.0,0.0,0.0,0.0,0.0,0.0,0.0,0.0,-5.9584,-6.2546,-6.5778,-6.9816,-7.0367,-7.055,-7.1027,-7.2349,-7.3303,-7.345,-7.4918,-7.5873,-7.5873,-7.679,-7.7273,-7.7273,-7.7273,0.0,-7.7273,-7.7273,-7.698,-7.635,-7.5542,-7.4735,-7.3927,0.0,0.0,-7.1064,-7.0403,-6.9596,-6.8641,-6.7981,-6.6769,-6.5301,-6.5301,-6.264,-5.8491,-5.7138,-5.6096,-5.5143,-5.3957,-5.3518,-5.3518,-5.3518,-5.2976,-5.2198,-5.1623,-5.0913,-5.0168,-4.9424,-4.9221,0.0,-4.9052,-4.9018,-4.8984,-4.8815,-4.8883,-4.8646,-4.7158,-4.6786,-4.6413,-4.5122,-4.4716,-4.4615,-4.4615,-4.3469,-4.2395,-4.2078,-4.1723,-4.1028,-3.9625,-3.9373,-3.9373,-3.9373,-3.9373,-3.914,-3.8452,-3.8272,-3.7734,-3.6596,-3.5878,-3.522,-3.4563,-3.3873,-3.3215,-3.2527,-3.2527,-3.2228,-3.169,-3.157,-3.1451,-3.1301,-3.1301,-3.1301,-3.1301,-3.0631,-2.9852,0.0,0.0,0.0,0.0,0.0,0.0,0.0,0.0,0.0,0.0,0.0,-5.2832,0.0,0.0,-5.9313,-6.3638,-6.5529,-6.7614,-7.0881,-7.1651,-7.1908,-7.1908,-7.2973,-7.3523,-7.312,-7.4918,-7.5946,-7.5542,-7.6644,-7.7273,-7.7273,-7.6937,-7.6717,-7.6717,-7.6313,-7.5909,-7.5506,-7.4698,-7.3891,-7.3083,-7.2275,-7.1284,-7.011,-6.9669,-6.9045,-6.8238,-6.743,-6.6402,-6.5139,-6.3157,-6.0662,-5.8001,-5.5958,-5.4702,-5.3991,-5.3653,-5.3518,-5.3518,-5.3518,-5.2739,-5.1691,-5.132,-5.0473,-4.9492,-4.912,-4.9018,-4.9018,-4.9018,-4.9018,-4.9018,-4.9018,-4.9018,-4.8714,-4.7631,-4.7056,-4.6481,-4.5399,-4.4857,-4.4615,-4.4615,-4.3562,-4.252,-4.2078,-4.1626,-4.0894,-3.9625,-3.9373,-3.9373,-3.9373,-3.9373,-3.914,-3.8452,-3.8093,-3.7524,-3.6567,-3.5579,-3.4831,-3.4533,-3.3873,-3.3335,-3.3006,-3.2677,-3.2318,-3.2019,-3.166,-3.1511,-3.1511,-3.1511,-3.1511,-3.1511,-3.1102,-3.0238,0.0,0.0,0.0,0.0,0.0,0.0,0.0,0.0,-5.0496,-5.2598,-5.4424,-5.6574,-5.9499,-6.073,-6.2724,-6.7216,-6.8201,-6.9119,-7.1248,-7.2092,-7.2459,-7.2312,-7.2973,-7.3266,-7.2789,-7.4625,-7.5616,-7.4955,-7.6393,-7.7237,-7.7053,-7.646,-7.6166,-7.635,-7.5395,-7.4992,-7.5139,-7.4184,-7.3377,-7.2716,-7.1762,-7.055,-6.9119,-6.8972,-6.8458,-6.7677,-6.6659,-6.5815,-6.482,-6.1392,-5.93,-5.8031,-5.6042,-5.4566,-5.3518,-5.3518,-5.3518,-5.3518,-5.3518,-5.2503,-5.1185,-5.1185,-5.0202,-4.9018,-4.9018,-4.9018,-4.9018,-4.9018,-4.9018,-4.8984,-4.8815,-4.8883,-4.8781,-4.7902,-4.7327,-4.6819,-4.6075,-4.5331,-4.4886,-4.5021,-4.4085,-4.305,-4.2334,-4.1358,-4.0413,-3.9553,-3.9373,-3.9373,-3.9373,-3.9373,-3.914,-3.8452,-3.7793,-3.7105,-3.6357,-3.5342,-3.4713,-3.4713,-3.4173,-3.3814,-3.3694,-3.3185,-3.2766,-3.2527,-3.1959,-3.163,-3.1511,-3.1511,-3.1511,-3.1511,-3.1511,-3.0688,-4.5104,-4.5215,-4.6307,-4.8433,-4.906,-5.0259,0.0,0.0,-5.4799,-5.6882,-5.915,-6.0893,-6.1323,-6.435,-6.7253,-6.8531,-6.9963,-7.1248,-7.2239,-7.2459,-7.2239,-7.1541,-7.2165,-7.2899,-7.3487,-7.4478,-7.5028,-7.4918,-7.6393,-7.698,-7.6276,-7.6166,-7.6423,-7.7127,-7.5659,-7.5249,-7.5946,-7.4441,-7.3634,-7.356,-7.2055,-7.0844,-6.9926,-6.9229,-6.8458,-6.7614,-6.6109,-6.4971,-6.4127,-6.291,-6.0766,-5.8184,-5.7906,-5.6015,-5.3518,-5.3518,-5.3518,-5.3518,-5.3518,-5.2503,-5.1185,-5.1185,-5.0202,-4.9018,-4.9018,-4.9018,-4.9018,-4.9018,-4.9018,-4.8849,-4.8176,-4.8511,-4.8646,-4.7259,-4.7361,-4.7567,-4.6819,-4.6109,-4.5771,-4.6413,-4.4786,-4.3244,-4.3009,-4.1706,-4.0413,-3.9553,-3.9373,-3.9373,-3.9373,-3.9373,-3.914,-3.8452,-3.7793,-3.6926,-3.5729,-3.5459,-3.54,-3.54,-3.531,-3.5011,-3.4414,-3.4324,-3.3694,-3.2497,-3.2437,-3.2079,-3.1511,-3.1511,-3.1511,-3.1511,-3.1511,-3.1014,-4.5674,0.0,0.0,0.0,-5.1093,-5.331,-5.5965,-5.6767,-5.7714,-6.0294,-6.2365,-6.42,-6.5595,-6.6843,-6.8274,0.0,-7.0073,-7.0183,-7.0991,-7.0697,-7.011,-6.9302,-6.9486,-7.0403,-7.2129,-7.345,-7.4404,-7.4882,-7.5983,-7.668,-7.679,-7.635,-7.6056,-7.5879,-7.4808,-7.4147,-7.4001,-7.334,-7.2789,-7.2312,-7.1651,-7.0624,-6.9376,-6.9045,-6.7944,-6.6256,-6.5081,-6.4127,-6.3257,-6.1995,-6.0187,-5.8119,-5.7183,-5.5453,-5.3518,-5.3518,-5.3518,-5.3518,-5.3518,-5.2503,-5.1185,-5.1185,-5.0202,-4.9018,-4.9018,-4.9018,-4.9018,-4.9018,-4.9018,-4.8849,-4.8075,-4.8139,-4.8206,-4.7597,-4.7361,-4.7293,-4.7428,-4.6853,-4.6413,-4.6718,-4.5617,-4.4258,-4.3266,-4.2464,-4.134,-3.9673,-3.9373,-3.9373,-3.9373,-3.9373,-3.914,-3.8452,-3.7793,-3.7045,-3.6148,-3.5729,-3.5519,-3.5519,-3.5519,-3.537,-3.507,-3.4713,-3.4023,-3.3095,-3.2706,-3.2168,-3.1511,-3.1511,-3.1511,-3.1511,-3.1511,-3.1073,-4.6214,0.0,0.0,-5.1049,-5.3695,-5.6499,-5.8102,-5.9278,-6.0757,-6.3296,-6.4787,-6.6256,-6.8201,-6.8274,-6.8605,-7.0367,-6.9853,-6.9376,-6.9706,-6.9082,-6.8201,-6.7173,-6.6843,-6.7467,-6.9449,-7.1505,-7.3046,-7.3854,-7.4882,-7.5799,-7.6576,-7.5873,-7.5359,-7.5249,-7.4037,-7.3193,-7.2826,-7.2386,-7.1872,-7.1293,-7.0881,-7.0036,-6.8898,-6.8458,-6.7063,-6.4934,-6.4347,-6.3466,-6.2388,-6.1052,-5.9442,-5.7706,-5.633,-5.4855,-5.3518,-5.3518,-5.3518,-5.3518,-5.3518,-5.2503,-5.1185,-5.1185,-5.0202,-4.9018,-4.9018,-4.9018,-4.9018,-4.9018,-4.9018,-4.8849,-4.8075,-4.8041,-4.8142,-4.7939,-4.7665,-4.7496,-4.7804,-4.7496,-4.709,-4.709,-4.6435,-4.5362,-4.391,-4.3395,-4.243,-4.028,-3.9798,-3.9619,-3.9403,-3.9373,-3.914,-3.8452,-3.7793,-3.7165,-3.6537,-3.5878,-3.5519,-3.5519,-3.5519,-3.5519,-3.5519,-3.5011,-3.4442,-3.3784,-3.3125,-3.2437,-3.178,-3.16,-3.1511,-3.1511,-3.1511,-3.119,0.0,0.0,-5.0548,-5.4458,-5.7262,-5.9685,-6.2108,-6.3282,-6.4409,-6.6035,-6.6439,-6.6733,-6.7577,-6.8348,-6.8898,-6.8972,-6.9596,-6.9816,-6.9045,-6.8238,-6.7136,-6.5558,-6.4677,-6.453,0.0,-6.8348,-7.055,-7.1358,-7.2899,-7.4111,-7.4955,-7.4221,-7.4478,-7.6019,-7.378,-7.2899,-7.367,-7.2129,-7.1293,-7.1256,-6.9743,-6.8972,-6.8862,-6.7283,-6.5668,-6.4127,-6.409,-6.3135,-6.1581,-6.0834,-5.9119,-5.6863,-5.609,-5.4855,-5.3518,-5.3518,-5.3518,-5.3518,-5.3518,-5.2503,-5.1185,-5.1185,-5.0202,-4.9018,-4.9018,-4.9018,-4.9018,-4.9018,-4.9018,-4.8849,-4.8075,-4.8443,-4.8781,-4.8041,-4.8443,-4.8748,-4.8041,-4.7872,-4.7872,-4.7872,-4.7263,-4.638,-4.5332,-4.4541,-4.3444,-4.1595,-4.0786,-4.0127,-3.9463,-3.9373,-3.914,-3.8452,-3.7793,-3.7165,-3.6537,-3.5878,-3.5519,-3.5519,-3.5519,-3.5519,-3.5519,-3.5489,-3.516,-3.4503,-3.3814,-3.3155,-3.2467,-3.1809,-3.1511,-3.1511,-3.1511,-3.1511,-4.8233,0.0,-5.4421,-5.7923,-5.9795,-6.1447,-6.3906,-6.4273,-6.4237,-6.4787,-6.4016,-6.3319,-6.3576,-6.3429,-6.3613,-6.4677,-6.5558,-6.6219,-6.6476,-6.6292,-6.5301,-6.3099,-6.3576,0.0,0.0,0.0,0.0,-7.033,-7.1505,-7.2679,-7.4037,-7.4368,-7.4515,-7.4515,-7.3707,-7.2899,-7.2129,-7.1578,-7.1027,-7.0477,-6.9412,-6.8898,-6.8825,-6.6696,-6.5411,-6.4787,-6.3172,-6.2108,-6.1508,-6.0254,-5.8617,-5.6828,-5.609,-5.4855,-5.3518,-5.3518,-5.3518,-5.3416,-5.2875,-5.2063,-5.115,-5.0642,-4.9796,-4.9018,-4.9018,-4.9018,-4.9018,-4.9018,-4.9018,-4.8849,-4.8075,-4.8075,-4.821,-4.7939,-4.8075,-4.8206,-4.7939,-4.8277,-4.8511,-4.7973,-4.8105,-4.7613,-4.5558,-4.5344,-4.4587,-4.1814,-4.0816,-4.0157,-3.9499,-3.9373,-3.932,-3.911,-3.8452,-3.7793,-3.7165,-3.6507,-3.5968,-3.5519,-3.5519,-3.5519,-3.5519,-3.5519,-3.519,-3.4503,-3.3814,-3.3395,-3.3155,-3.2497,-3.2138,-3.2138,-3.2138,-3.1634,-5.1006,-5.4252,-5.7666,-6.0896,-6.2328,-6.3392,-6.5301,-6.4861,-6.4016,-6.3686,-6.2108,-6.0639,-6.0382,-5.9648,-5.9465,-6.0493,-6.163,-6.2732,-6.3833,-6.3723,-6.3282,-6.2585,-6.2915,0.0,0.0,0.0,0.0,-6.9009,-7.0257,-7.1578,-7.3193,-7.378,-7.3927,-7.3707,-7.312,-7.2496,-7.1762,-7.1174,-7.0477,-6.9669,-6.8568,-6.7907,-6.754,-6.5705,-6.4714,-6.431,-6.2401,-6.1287,-6.0671,-5.9087,-5.7519,-5.5999,-5.5271,-5.4356,-5.3518,-5.3518,-5.3315,-5.301,-5.2469,-5.1826,-5.1082,-5.0338,-4.9593,-4.9018,-4.9018,-4.9018,-4.9018,-4.9018,-4.9018,-4.8883,-4.8443,-4.8308,-4.8308,-4.8308,-4.8308,-4.821,-4.7939,-4.8477,-4.8781,-4.8041,-4.8511,-4.8346,-4.6384,-4.585,-4.482,-4.2168,-4.1175,-4.0427,-3.9529,-3.9373,-3.9373,-3.9373,-3.8811,-3.8123,-3.7464,-3.6836,-3.6207,-3.5549,-3.5519,-3.5519,-3.5519,-3.5519,-3.531,-3.4861,-3.4173,-3.3844,-3.3874,-3.3185,-3.2856,-3.2856,-3.2617,-3.199,-5.4436,-5.7556,-6.0236,-6.3356,-6.4714,-6.5448,-6.6145,-6.5081,-6.3649,-6.2695,-6.0542,-5.8597,0.0,0.0,-5.6602,-5.6675,-5.812,-5.9832,-6.1484,-6.1153,-6.1557,0.0,0.0,0.0,0.0,0.0,0.0,-6.7504,0.0,-7.066,-7.2275,-7.2459,-7.2826,-7.356,-7.2165,-7.1688,-7.2386,-7.0807,-6.9633,-6.8825,-6.7247,-6.6109,-6.5338,-6.4494,-6.3613,-6.2743,-6.1924,-6.066,-5.9114,-5.7512,-5.5923,-5.4544,-5.3715,-5.345,-5.3518,-5.345,-5.2976,-5.23,-5.2266,-5.1758,-5.1048,-5.027,-4.956,-4.9018,-4.9018,-4.9018,-4.9018,-4.9018,-4.9018,-4.9018,-4.9018,-4.9018,-4.9018,-4.9018,-4.9018,-4.8815,-4.8041,-4.8477,-4.8781,-4.8041,-4.8419,-4.8576,-4.7704,-4.5957,-4.4151,-4.2595,-4.1811,-4.0905,-3.9649,-3.9403,-3.9373,-3.9373,-3.8841,-3.8153,-3.7464,-3.6866,-3.6237,-3.5549,-3.5519,-3.5519,-3.5519,-3.5519,-3.5519,-3.5519,-3.4831,-3.4533,-3.4563,-3.3873,-3.3544,-3.3544,-3.2916,-3.2587,-5.6895,-6.0052,-6.3209,-6.464,-6.4714,-6.4273,-6.3833,-6.2511,-6.0786,-5.8767,-5.6396,-5.4142,0.0,0.0,0.0,-5.484,-5.7886,0.0,-6.3135,-6.431,0.0,-6.5007,0.0,-6.6072,-6.5888,-6.6219,0.0,0.0,-6.8421,-6.9009,-7.0624,-7.1835,-7.2312,-7.1945,-7.2092,-7.1725,-7.0734,-6.9706,-6.8788,-6.7981,-6.699,-6.6402,-6.6145,-6.4751,-6.3613,-6.2707,-6.1337,-5.9832,-5.8293,-5.6664,-5.5437,-5.4475,-5.3135,-5.2976,-5.345,-5.2841,-5.2469,-5.2232,-5.1691,-5.1014,-5.027,-4.9526,-4.9154,-4.9018,-4.9018,-4.9018,-4.9018,-4.9018,-4.9018,-4.9018,-4.9018,-4.9018,-4.9018,-4.9018,-4.9018,-4.8815,-4.8041,-4.8477,-4.8781,-4.8041,-4.7339,-4.6833,-4.6592,-4.4974,-4.3214,-4.188,-4.1542,-4.1085,-4.0247,-3.9738,-3.9373,-3.9373,-3.926,-3.8691,-3.7494,-3.7255,-3.6686,-3.5579,-3.5519,-3.5519,-3.5519,-3.5519,-3.5519,-3.5519,-3.4831,-3.4773,-3.525,-3.4562,-3.4264,-3.4264,-3.4053,-3.3455,-6.0162,-6.2879,-6.5191,-6.5301,-6.4714,-6.3686,-6.2108,-6.0236,-5.8143,-5.5721,-5.3298,0.0,0.0,0.0,0.0,0.0,0.0,0.0,-6.2071,-6.42,-6.5815,0.0,-6.7687,0.0,-6.8091,-6.8164,-6.8568,0.0,-6.9009,-6.9302,-7.055,-7.1505,-7.1798,-7.1293,-7.1394,-7.0991,-7.011,-6.9302,-6.8678,-6.8201,-6.6696,-6.5962,-6.5925,-6.4273,-6.3062,-6.2218,0.0,-5.9317,-5.7504,-5.6212,-5.5054,-5.404,-5.3175,-5.2875,-5.2909,-5.2469,-5.1894,-5.1285,-5.0879,-5.0236,-4.956,-4.912,-4.9018,-4.9018,-4.9018,-4.9018,-4.9018,-4.9018,-4.9018,-4.9018,-4.9018,-4.9018,-4.9018,-4.9018,-4.9018,-4.8883,-4.8477,-4.8714,-4.8883,-4.8477,-4.7538,-4.6662,-4.6279,-4.4937,-4.3477,-4.203,-4.1602,-4.1145,-4.0487,-3.9828,-3.9373,-3.9373,-3.9373,-3.8871,-3.7524,-3.7404,-3.6866,-3.5579,-3.5519,-3.5519,-3.5519,-3.5519,-3.5519,-3.5519,-3.513,-3.513,-3.5519,-3.513,-3.4921,-3.4921,-3.4653,-3.3933,-6.3576,-6.5521,-6.6476,-6.5668,-6.4677,-6.3246,-6.0676,-5.8143,-5.5684,-5.3371,0.0,-4.9133,-4.8159,-4.8159,-4.8673,-4.9757,0.0,-5.6822,-6.0382,-6.2842,-6.5448,-6.8678,-6.9082,-6.9412,-7.033,-6.9706,-6.9559,-7.0367,-7.033,-7.055,-7.1284,-7.1293,-7.1219,-7.1109,-7.0367,-6.9926,-6.9926,-6.9265,-6.8788,-6.8568,-6.6366,-6.5264,-6.5081,-6.3429,-6.2218,-6.141,0.0,0.0,-5.6816,-5.6028,-5.4878,-5.3617,-5.3416,-5.2909,-5.23,-5.2198,-5.1285,-5.0101,-5.0101,-4.9627,-4.9018,-4.9018,-4.9018,-4.9018,-4.9018,-4.9018,-4.9018,-4.9018,-4.9018,-4.9018,-4.9018,-4.9018,-4.9018,-4.9018,-4.9018,-4.9018,-4.9018,-4.9018,-4.8954,-4.8829,-4.8064,-4.7138,-4.6173,-4.5227,-4.4105,-4.2617,-4.1841,-4.1145,-4.0487,-3.9828,-3.9373,-3.9373,-3.9373,-3.8871,-3.7524,-3.7404,-3.6866,-3.5579,-3.5519,-3.5519,-3.5519,-3.5519,-3.5519,-3.5519,-3.5519,-3.5519,-3.5519,-3.5519,-3.5519,-3.5489,-3.4891,-3.4234,-6.5558,-6.6769,-6.7283,-6.6476,-6.464,-6.2218,-5.9134,-5.6051,0.0,0.0,-4.9774,-4.8086,-4.6581,-4.7388,-4.904,-5.1206,0.0,0.0,0.0,0.0,-6.6292,0.0,0.0,0.0,0.0,0.0,0.0,0.0,0.0,0.0,-7.1293,-7.1293,-7.0991,-7.033,-6.9522,-6.9119,-6.9119,-6.8972,-6.8238,-6.6916,-6.5815,-6.4971,-6.4237,-6.2548,-6.1374,-6.0566,0.0,0.0,-5.6822,-5.6047,-5.5173,-5.429,-5.3002,-5.2435,-5.2232,-5.1623,-5.0845,-5.0101,-5.0101,-4.9627,-4.9018,-4.9018,-4.9018,-4.9018,-4.9018,-4.9018,-4.9018,-4.9018,-4.9018,-4.9018,-4.9018,-4.9018,-4.9018,-4.9018,-4.9018,-4.9018,-4.9018,-4.9018,-4.8767,-4.7966,-4.7104,-4.6138,-4.519,-4.4205,-4.3286,-4.2539,-4.1841,-4.1145,-4.0487,-3.9828,-3.9373,-3.9373,-3.9373,-3.8871,-3.7524,-3.7404,-3.6866,-3.5579,-3.5519,-3.5519,-3.5519,-3.5519,-3.5519,-3.5519,-3.5519,-3.5519,-3.5519,-3.5519,-3.5519,-3.5519,-3.537,-3.4681,-6.6696,-6.7687,-6.7944,-6.6292,-6.4016,-6.1117,-5.7042,0.0,0.0,0.0,-4.7278,-4.6214,-4.5443,0.0,0.0,0.0,0.0,0.0,0.0,0.0,0.0,0.0,0.0,0.0,0.0,0.0,0.0,0.0,0.0,0.0,-7.1293,-7.0513,-6.9889,-6.9486,-6.8715,-6.8495,-6.8898,-6.8091,-6.7247,-6.6476,-6.5264,-6.4237,-6.3392,-6.2144,-6.0933,-5.9758,0.0,0.0,-5.6259,-5.5865,-5.5059,-5.3943,-5.321,-5.2435,-5.1691,-5.1352,-5.0507,-4.9526,-4.9526,-4.9289,-4.9018,-4.9018,-4.9018,-4.9018,-4.9018,-4.9018,-4.9018,-4.9018,-4.9018,-4.9018,-4.9018,-4.9018,-4.9018,-4.9018,-4.9018,-4.9018,-4.9018,-4.9018,-4.8861,-4.8418,-4.7172,-4.6067,-4.5597,-4.432,-4.312,-4.25,-4.1841,-4.1145,-4.0487,-3.9828,-3.9373,-3.9373,-3.911,-3.8482,-3.7494,-3.7105,-3.6537,-3.5579,-3.5519,-3.5519,-3.5519,-3.5519,-3.5519,-3.5519,-3.5519,-3.5519,-3.5519,-3.5519,-3.5519,-3.5489,-3.513,-3.4399,-6.699,-6.8017,-6.8164,-6.6072,-6.3429,-6.0126,-5.5464,-5.227,0.0,0.0,-4.5259,-4.4691,-4.4691,0.0,-4.5957,0.0,0.0,0.0,0.0,0.0,0.0,0.0,0.0,0.0,0.0,0.0,0.0,0.0,0.0,0.0,0.0,-6.9596,-6.8825,-6.8641,-6.7871,-6.776,-6.8385,-6.6953,-6.6145,-6.5962,-6.4494,-6.3356,-6.2511,-6.152,-6.0419,-5.9184,0.0,0.0,0.0,-5.578,-5.4909,-5.3717,-5.3382,-5.2435,-5.1151,-5.1048,-5.0135,-4.9018,-4.9018,-4.9018,-4.9018,-4.9018,-4.9018,-4.9018,-4.9018,-4.9018,-4.9018,-4.9018,-4.9018,-4.9018,-4.9018,-4.9018,-4.9018,-4.9018,-4.9018,-4.9018,-4.9018,-4.9018,-4.8923,-4.8767,-4.734,-4.6138,-4.5925,-4.4441,-4.311,-4.2641,-4.1893,-4.1205,-4.0666,-3.9918,-3.9373,-3.9373,-3.8931,-3.8332,-3.7674,-3.7045,-3.6417,-3.5759,-3.5579,-3.5519,-3.5519,-3.5519,-3.5519,-3.5519,-3.5519,-3.5519,-3.5519,-3.5519,-3.5519,-3.5489,-3.4951,-3.4241,-6.6182,-6.721,-6.7577,-6.6623,-6.3429,-5.9428,-5.5317,0.0,0.0,-4.625,-4.5259,-4.4691,-4.4691,-4.4764,-4.5315,0.0,0.0,-5.0582,0.0,0.0,0.0,0.0,0.0,0.0,0.0,0.0,0.0,0.0,0.0,0.0,0.0,-6.8972,-6.8568,-6.7834,-6.7026,-6.6659,-6.6733,-6.5852,-6.5044,-6.431,-6.3392,-6.2511,-6.1667,-6.0126,-5.9331,-5.9148,0.0,0.0,0.0,-5.6004,-5.5232,-5.435,-5.2966,-5.1928,-5.115,-5.0439,-4.9695,-4.9018,-4.9018,-4.9018,-4.9018,-4.9018,-4.9018,-4.9018,-4.9018,-4.9018,-4.9018,-4.9018,-4.9018,-4.9018,-4.9018,-4.9018,-4.9018,-4.9018,-4.9018,-4.9018,-4.9018,-4.9018,-4.8767,-4.7901,-4.6902,-4.5957,-4.5079,-4.4043,-4.326,-4.323,-4.2192,-4.1392,-4.1332,-4.0187,-3.9373,-3.9373,-3.9313,-3.905,-3.8362,-3.7704,-3.7075,-3.6447,-3.5848,-3.5519,-3.5519,-3.5519,-3.5519,-3.5519,-3.5519,-3.5519,-3.5519,-3.5519,-3.5519,-3.5519,-3.5429,-3.5038,-6.4376,-6.6256,-6.7077,-6.48,-6.1515,-5.7833,-5.3806,0.0,-4.6966,-4.4892,-4.4195,-4.3975,-4.3975,-4.3975,-4.4195,0.0,0.0,0.0,0.0,0.0,0.0,0.0,0.0,0.0,0.0,0.0,0.0,0.0,0.0,0.0,0.0,-6.721,-6.71,-6.6292,-6.5925,-6.5778,-6.5778,-6.4457,-6.3649,-6.3319,-6.1998,-6.0933,-6.0126,-5.9478,-5.8701,-5.7824,0.0,0.0,0.0,-5.4682,-5.3944,-5.3094,-5.2058,-5.1183,-5.0507,-5.0202,-4.9627,-4.9018,-4.9018,-4.9018,-4.9018,-4.9018,-4.9018,-4.9018,-4.9018,-4.9018,-4.9018,-4.9018,-4.9018,-4.9018,-4.9018,-4.9018,-4.9018,-4.9018,-4.9018,-4.9018,-4.9018,-4.9018,-4.8736,-4.777,-4.6833,-4.5889,-4.4962,-4.3966,-4.317,-4.2791,-4.1953,-4.1235,-4.0846,-3.9978,-3.9373,-3.9373,-3.905,-3.8691,-3.8422,-3.7793,-3.7135,-3.6537,-3.6237,-3.5908,-3.5519,-3.5519,-3.5519,-3.5519,-3.5519,-3.5519,-3.5519,-3.5519,-3.5519,-3.5489,-3.507,-3.4631,-6.129,-6.366,-6.4967,-6.2604,-5.9474,-5.5955,0.0,0.0,-4.614,-4.3938,-4.3515,-4.3515,-4.3515,-4.3515,-4.3515,0.0,0.0,-4.603,0.0,0.0,0.0,0.0,0.0,0.0,0.0,0.0,0.0,0.0,0.0,0.0,0.0,-6.5485,-6.5632,-6.5301,-6.5081,-6.4824,-6.4567,-6.3172,-6.2328,-6.2046,-6.0713,-5.9758,-5.9184,-5.8927,-5.8251,0.0,0.0,0.0,0.0,-5.3897,-5.3035,-5.2198,-5.1251,-5.0574,-5.0067,-4.9864,-4.9458,-4.9018,-4.9018,-4.9018,-4.9018,-4.9018,-4.9018,-4.9018,-4.9018,-4.9018,-4.9018,-4.9018,-4.9018,-4.9018,-4.9018,-4.9018,-4.9018,-4.9018,-4.9018,-4.9018,-4.9018,-4.9018,-4.8798,-4.8161,-4.7273,-4.6314,-4.541,-4.4396,-4.3503,-4.274,-4.2141,-4.1482,-4.0786,-4.0127,-3.9649,-3.9403,-3.899,-3.8691,-3.8691,-3.7913,-3.7225,-3.6776,-3.6417,-3.5998,-3.5519,-3.5519,-3.5519,-3.5519,-3.5519,-3.5519,-3.5519,-3.5519,-3.5519,-3.5489,-3.5011,-3.428,-5.6655,-5.8737,-6.062,-6.056,-5.7501,-5.3904,0.0,-4.8286,-4.5443,-4.3828,-4.3515,-4.3515,-4.3515,-4.3515,-4.3515,-4.3515,-4.4819,0.0,0.0,0.0,0.0,0.0,0.0,0.0,0.0,0.0,0.0,0.0,0.0,0.0,0.0,0.0,-6.4494,-6.5301,-6.453,-6.3686,-6.2817,-6.2034,-6.119,-6.0419,-5.9588,-5.9184,-5.9148,-5.84,0.0,0.0,0.0,0.0,0.0,-5.4137,-5.3035,-5.2164,-5.0676,-5.0101,-4.9999,-4.9289,-4.9018,-4.9018,-4.9018,-4.9018,-4.9018,-4.9018,-4.9018,-4.9018,-4.9018,-4.9018,-4.9018,-4.9018,-4.9018,-4.9018,-4.9018,-4.9018,-4.9018,-4.9018,-4.9018,-4.9018,-4.9018,-4.9018,-4.9018,-4.9018,-4.8225,-4.7273,-4.6349,-4.5379,-4.4434,-4.3418,-4.2761,-4.2141,-4.1482,-4.0786,-4.0157,-3.9463,-3.9373,-3.9373,-3.9373,-3.8182,-3.7404,-3.7404,-3.6207,-3.5519,-3.5519,-3.5519,-3.5519,-3.5519,-3.5519,-3.5519,-3.5519,-3.5519,-3.5519,-3.5519,-3.5489,-3.4189,-5.1997,-5.3675,-5.4954,-5.4316,-5.201,-4.9504,-4.8188,-4.6128,-4.4229,-4.3157,-4.3232,-4.3515,-4.3515,-4.3515,-4.3681,-4.4232,-4.5223,0.0,0.0,0.0,0.0,0.0,0.0,0.0,0.0,0.0,0.0,0.0,0.0,0.0,0.0,0.0,-6.1924,-6.2732,-6.2511,-6.1998,-6.119,-6.0382,-5.9832,-5.9551,-5.8767,-5.84,-5.8364,-5.8107,0.0,0.0,0.0,0.0,0.0,-5.2557,-5.1473,-5.071,-4.9729,-4.9357,-4.9323,-4.9086,-4.9018,-4.9018,-4.9018,-4.9018,-4.9018,-4.9018,-4.9018,-4.9018,-4.9018,-4.9018,-4.9018,-4.9018,-4.9018,-4.9018,-4.9018,-4.9018,-4.9018,-4.9018,-4.9018,-4.9018,-4.9018,-4.9018,-4.8829,-4.8161,-4.7803,-4.7306,-4.6349,-4.5416,-4.4545,-4.3751,-4.2924,-4.2171,-4.1512,-4.0816,-4.0307,-4.0098,-3.9679,-3.9373,-3.9373,-3.8601,-3.7883,-3.7434,-3.6626,-3.5968,-3.5519,-3.5519,-3.5519,-3.5519,-3.5519,-3.5519,-3.5519,-3.5519,-3.5519,-3.5457,-3.4806,-3.4062,0.0,-4.9331,-5.0346,-5.0054,-4.8167,0.0,0.0,-4.4342,-4.2956,-4.247,-4.2808,-4.3196,-4.3196,-4.3356,-4.3644,-4.4158,-4.4929,0.0,0.0,0.0,0.0,0.0,0.0,0.0,0.0,0.0,0.0,0.0,0.0,0.0,0.0,0.0,-6.0493,-6.0676,-6.1006,-6.075,-5.9979,-5.9441,-5.9038,-5.8767,-5.8253,-5.7997,-5.7997,0.0,0.0,0.0,0.0,0.0,0.0,-5.1829,-5.0791,-5.0033,-4.9289,-4.9018,-4.9018,-4.9018,-4.9018,-4.9018,-4.9018,-4.9018,-4.9018,-4.9018,-4.9018,-4.9018,-4.9018,-4.9018,-4.9018,-4.9018,-4.9018,-4.9018,-4.9018,-4.9018,-4.9018,-4.9018,-4.9018,-4.9018,-4.9018,-4.9018,-4.8829,-4.8257,-4.7836,-4.7306,-4.6349,-4.5416,-4.4507,-4.3738,-4.3098,-4.2402,-4.1542,-4.1025,-4.0576,-4.0098,-3.9679,-3.9373,-3.9373,-3.8781,-3.8212,-3.7793,-3.6956,-3.6297,-3.5878,-3.5639,-3.5519,-3.5519,-3.5519,-3.5519,-3.5519,-3.5519,-3.5519,-3.5457,-3.4872,-3.4062,0.0,-4.5672,0.0,0.0,0.0,0.0,-4.4095,-4.2836,0.0,-4.1746,-4.2221,-4.2655,-4.2674,-4.3124,-4.3463,-4.3571,-4.4268,0.0,0.0,0.0,0.0,0.0,0.0,0.0,0.0,0.0,0.0,0.0,0.0,0.0,0.0,0.0,0.0,-5.9148,-5.9832,-5.9869,-5.9111,-5.9111,-5.8767,-5.7997,-5.7997,-5.796,-5.7923,0.0,0.0,0.0,0.0,0.0,0.0,-5.1806,-5.0738,-4.9932,-4.9255,-4.9018,-4.9018,-4.9018,-4.9018,-4.9018,-4.9018,-4.9018,-4.9018,-4.9018,-4.9018,-4.9018,-4.9018,-4.9018,-4.9018,-4.9018,-4.9018,-4.9018,-4.9018,-4.9018,-4.9018,-4.9018,-4.9018,-4.9018,-4.9018,-4.9018,-4.9018,-4.9018,-4.8257,-4.7306,-4.6454,-4.5452,-4.4472,-4.3566,-4.3329,-4.2841,-4.1683,-4.1512,-4.0965,-3.9679,-3.9529,-3.9433,-3.9373,-3.8781,-3.8362,-3.8332,-3.7165,-3.6477,-3.6417,-3.5818,-3.5519,-3.5519,-3.5519,-3.5519,-3.5519,-3.5519,-3.5519,-3.5519,-3.5424,-3.4155,-4.1154,0.0,-4.1873,-4.2591,-4.1918,-4.1231,0.0,-4.1488,-4.1093,-4.1093,-4.1617,-4.2144,-4.2616,-4.2789,-4.3213,-4.4234,-4.5076,0.0,0.0,0.0,0.0,0.0,0.0,0.0,0.0,0.0,0.0,0.0,0.0,0.0,0.0,0.0,0.0,-5.829,-5.8474,-5.8474,-5.829,-5.829,-5.818,-5.7997,-5.7997,-5.7666,-5.7079,0.0,0.0,0.0,0.0,0.0,-5.2511,-5.1597,-5.0429,-4.9255,-4.9086,-4.9018,-4.9018,-4.9018,-4.9018,-4.9018,-4.9018,-4.9018,-4.9018,-4.9018,-4.9018,-4.9018,-4.9018,-4.9018,-4.9018,-4.9018,-4.9018,-4.9018,-4.9018,-4.9018,-4.9018,-4.9018,-4.9018,-4.9018,-4.9018,-4.9018,-4.9018,-4.9018,-4.8257,-4.7506,-4.7306,-4.5885,-4.4699,-4.4472,-4.3771,-4.317,-4.2871,-4.2432,-4.1871,-4.0995,-4.0457,-3.9978,-3.9469,-3.8781,-3.8182,-3.7674,-3.6926,-3.6267,-3.5759,-3.5579,-3.5519,-3.5519,-3.5519,-3.5519,-3.5519,-3.5519,-3.5519,-3.5457,-3.4739,-3.4057,-4.0113,-4.035,-4.0696,-4.1102,-4.0899,-4.0696,-4.1102,-4.0839,-4.0528,-4.0528,0.0,0.0,-4.181,-4.2083,-4.2733,0.0,-4.4709,0.0,0.0,0.0,0.0,0.0,0.0,0.0,0.0,0.0,0.0,0.0,0.0,0.0,0.0,0.0,0.0,0.0,-5.7629,-5.7629,-5.7997,-5.7997,-5.7997,-5.7997,-5.7629,-5.7226,-5.6785,0.0,0.0,0.0,0.0,0.0,-5.1212,-5.08,-5.0017,-4.9018,-4.9018,-4.9018,-4.9018,-4.9018,-4.9018,-4.9018,-4.9018,-4.9018,-4.9018,-4.9018,-4.9018,-4.9018,-4.9018,-4.9018,-4.9018,-4.9018,-4.9018,-4.9018,-4.9018,-4.9018,-4.9018,-4.9018,-4.9018,-4.9018,-4.9018,-4.9018,-4.8861,-4.845,-4.7572,-4.6799,-4.6381,-4.5116,-4.412,-4.412,-4.3654,-4.32,-4.291,-4.2312,-4.1692,-4.0995,-4.0337,-3.9798,-3.9439,-3.908,-3.8721,-3.8362,-3.7434,-3.6746,-3.6387,-3.5818,-3.5519,-3.5519,-3.5519,-3.5519,-3.5519,-3.5519,-3.5519,-3.5519,-3.4938,-3.4211,-4.0113,-4.0696,-4.1305,-4.1102,-4.1035,-4.1035,-4.1035,0.0,0.0,0.0,0.0,0.0,0.0,-4.1401,0.0,0.0,0.0,0.0,0.0,0.0,0.0,0.0,0.0,0.0,0.0,0.0,0.0,0.0,0.0,0.0,0.0,0.0,0.0,0.0,-5.6969,-5.6932,-5.7629,-5.7629,-5.7629,-5.7629,-5.6932,-5.6565,-5.6418,-5.5721,0.0,0.0,0.0,0.0,-5.0004,-5.0004,-4.9576,-4.9018,-4.9018,-4.9018,-4.9018,-4.9018,-4.9018,-4.8984,-4.8883,-4.8917,-4.8984,-4.8883,-4.8917,-4.9018,-4.9018,-4.9018,-4.9018,-4.9018,-4.9018,-4.9018,-4.9018,-4.9018,-4.9018,-4.9018,-4.9018,-4.9018,-4.9018,-4.9018,-4.8736,-4.777,-4.6833,-4.5889,-4.4962,-4.3966,-4.329,-4.329,-4.329,-4.315,-4.262,-4.1961,-4.1294,-4.0606,-3.9948,-3.9493,-3.9403,-3.9373,-3.9379,-3.926,-3.8093,-3.7315,-3.7135,-3.6088,-3.5519,-3.5519,-3.5519,-3.5519,-3.5519,-3.5519,-3.5519,-3.5519,-3.5359,-3.4375,-4.0113,-4.1094,-4.1813,-4.0587,-4.0282,-4.0282,-4.0282,-4.018,0.0,0.0,0.0,0.0,0.0,-4.1545,0.0,0.0,0.0,0.0,0.0,0.0,0.0,0.0,0.0,0.0,0.0,0.0,0.0,0.0,0.0,0.0,0.0,0.0,0.0,0.0,0.0,-5.5831,-5.5978,-5.5978,-5.5978,-5.5978,-5.5831,-5.5427,-5.4766,-5.462,-5.3762,0.0,0.0,-5.1424,-5.0004,-5.0004,-4.9576,-4.9018,-4.9018,-4.9018,-4.9018,-4.9018,-4.9018,-4.8917,-4.8308,-4.8477,-4.8917,-4.8274,-4.8511,-4.9018,-4.9018,-4.9018,-4.9018,-4.9018,-4.9018,-4.9018,-4.9018,-4.9018,-4.9018,-4.9018,-4.9018,-4.9018,-4.9018,-4.9018,-4.8736,-4.777,-4.6833,-4.5889,-4.4962,-4.3966,-4.329,-4.329,-4.329,-4.326,-4.314,-4.2611,-4.1991,-4.1332,-4.0636,-4.0038,-3.9433,-3.9373,-3.917,-3.8571,-3.7823,-3.6926,-3.5848,-3.5609,-3.5519,-3.5519,-3.5519,-3.5519,-3.5519,-3.5519,-3.5519,-3.5457,-3.461,-3.4075,-4.0113,-4.0587,-4.0959,-4.0282,-4.0688,-4.117,-4.0798,-4.0383,-4.0113,0.0,0.0,0.0,0.0,0.0,0.0,0.0,0.0,0.0,0.0,0.0,0.0,0.0,0.0,0.0,0.0,0.0,0.0,0.0,0.0,0.0,0.0,0.0,0.0,0.0,0.0,0.0,-5.495,-5.4509,-5.473,-5.5574,-5.5133,-5.4766,-5.4399,-5.3959,-5.3156,0.0,0.0,-5.0981,-4.9976,-4.9605,-4.9286,-4.9018,-4.9018,-4.9018,-4.8951,-4.8578,-4.8409,-4.8376,-4.8007,-4.8108,-4.8443,-4.8477,-4.8714,-4.9018,-4.9018,-4.9018,-4.9018,-4.9018,-4.9018,-4.9018,-4.9018,-4.9018,-4.9018,-4.9018,-4.9018,-4.9018,-4.9018,-4.9018,-4.8576,-4.7138,-4.6488,-4.571,-4.4243,-4.3606,-4.329,-4.329,-4.303,-4.2791,-4.2791,-4.1923,-4.1175,-4.0876,-4.0277,-3.9738,-3.9439,-3.9373,-3.896,-3.7913,-3.7255,-3.6477,-3.5549,-3.5519,-3.5519,-3.5519,-3.5519,-3.5519,-3.5519,-3.5519,-3.5519,-3.5519,-3.5034,-3.4245,-4.0113,-4.0248,-4.0316,-4.0146,-4.0959,-4.1711,-4.1508,-4.1001,-4.0722,0.0,0.0,0.0,0.0,0.0,0.0,0.0,0.0,0.0,0.0,0.0,0.0,0.0,0.0,0.0,0.0,0.0,0.0,0.0,0.0,0.0,0.0,0.0,0.0,0.0,0.0,0.0,-5.4106,-5.3335,-5.3628,-5.5023,-5.4399,-5.4106,-5.4106,-5.3482,-5.2791,-5.2065,-5.1393,-5.0689,-4.9947,-4.9116,-4.8748,-4.8748,-4.8545,-4.8477,-4.8409,-4.7868,-4.7736,-4.7872,-4.7699,-4.7736,-4.7973,-4.8578,-4.8748,-4.8781,-4.8951,-4.9018,-4.9018,-4.9018,-4.9018,-4.9018,-4.9018,-4.9018,-4.9018,-4.9018,-4.9018,-4.9018,-4.9018,-4.9018,-4.8416,-4.6558,-4.6208,-4.5566,-4.3654,-4.329,-4.323,-4.312,-4.2821,-4.25,-4.2201,-4.1384,-4.0756,-4.0427,-3.9948,-3.9553,-3.9403,-3.9104,-3.8512,-3.7464,-3.6686,-3.6028,-3.5519,-3.5519,-3.5519,-3.5519,-3.5519,-3.5519,-3.5519,-3.5519,-3.5519,-3.5519,-3.5261,-3.424,-4.0113,-4.0595,-4.0967,-4.0282,-4.018,-4.062,-4.1914,-4.2185,0.0,-4.4005,0.0,0.0,0.0,0.0,0.0,0.0,0.0,0.0,0.0,0.0,0.0,0.0,0.0,0.0,0.0,0.0,0.0,0.0,0.0,0.0,0.0,0.0,0.0,0.0,0.0,0.0,-5.3277,-5.2491,-5.2527,-5.335,-5.3314,-5.3277,-5.3277,-5.3203,-5.2791,-5.2065,-5.1393,-5.0689,-4.9878,-4.8541,-4.7973,-4.7906,-4.7225,-4.6955,-4.6955,-4.6887,-4.7327,-4.7804,-4.7124,-4.7327,-4.7906,-4.7939,-4.7973,-4.8139,-4.8815,-4.9018,-4.9018,-4.9018,-4.9018,-4.9018,-4.9018,-4.9018,-4.9018,-4.9018,-4.9018,-4.9018,-4.9018,-4.9018,-4.8416,-4.6558,-4.6208,-4.5566,-4.3654,-4.329,-4.312,-4.256,-4.291,-4.2821,-4.1594,-4.1931,-4.1782,-4.0516,-4.0367,-4.0098,-3.9433,-3.8272,-3.7524,-3.7434,-3.6267,-3.5549,-3.5519,-3.5519,-3.5519,-3.5519,-3.5519,-3.5519,-3.5519,-3.5519,-3.5519,-3.5457,-3.4543,-3.3567,-3.9276,-3.9614,-3.9884,-4.0079,-4.0113,0.0,0.0,-4.2658,-4.3166,-4.3741,-4.4384,0.0,0.0,0.0,0.0,0.0,0.0,0.0,0.0,0.0,0.0,0.0,0.0,0.0,0.0,0.0,0.0,0.0,0.0,0.0,0.0,0.0,0.0,0.0,0.0,0.0,0.0,-5.1426,-5.1426,-5.172,-5.172,-5.172,-5.172,-5.2234,-5.2035,-5.1267,-5.0675,-4.9966,-4.9144,-4.7786,-4.7225,-4.7192,-4.6921,-4.6786,-4.6786,-4.6786,-4.6989,-4.7259,-4.7428,-4.7665,-4.7973,-4.8443,-4.8578,-4.8646,-4.8917,-4.9018,-4.8917,-4.8477,-4.8342,-4.8443,-4.8883,-4.9018,-4.9018,-4.9018,-4.9018,-4.9018,-4.9018,-4.9018,-4.8608,-4.7306,-4.6592,-4.5782,-4.4472,-4.3693,-4.312,-4.25,-4.262,-4.2402,-4.1542,-4.1235,-4.0935,-4.0457,-4.0038,-3.9679,-3.9403,-3.8182,-3.7404,-3.7404,-3.6207,-3.5519,-3.5519,-3.5519,-3.5519,-3.5519,-3.5519,-3.5519,-3.5519,-3.5519,-3.5519,-3.5457,-3.4476,-3.3498,-3.8565,-3.8802,-3.9106,-3.9639,0.0,0.0,-4.2651,-4.3403,-4.4113,-4.5297,-4.5602,0.0,0.0,0.0,0.0,0.0,0.0,0.0,0.0,0.0,0.0,0.0,0.0,0.0,0.0,0.0,0.0,0.0,0.0,0.0,0.0,0.0,0.0,0.0,0.0,0.0,0.0,-5.0545,-5.0398,-5.0398,-5.0141,-5.0288,-5.0839,-5.1353,-5.1316,-5.0778,-4.9972,-4.9305,-4.8675,-4.7105,-4.6312,-4.6109,-4.6109,-4.6109,-4.6109,-4.6109,-4.6244,-4.6549,-4.7293,-4.7564,-4.7665,-4.8409,-4.8511,-4.8308,-4.8308,-4.8308,-4.8206,-4.7699,-4.7564,-4.7665,-4.8173,-4.8308,-4.8308,-4.8308,-4.8477,-4.8646,-4.8646,-4.8849,-4.8572,-4.7111,-4.6465,-4.5718,-4.4308,-4.365,-4.2991,-4.2231,-4.2261,-4.2021,-4.0905,-4.0726,-4.0636,-4.0427,-3.9798,-3.932,-3.911,-3.8242,-3.7554,-3.7135,-3.6297,-3.5729,-3.5519,-3.5519,-3.5519,-3.5519,-3.5519,-3.5519,-3.5519,-3.5519,-3.5519,-3.5457,-3.4476,-3.3498,-3.8091,-3.843,-3.8971,-3.9005,0.0,0.0,-4.4107,-4.4615,-4.5664,-4.9323,0.0,-4.55,-4.4784,0.0,0.0,0.0,0.0,0.0,0.0,0.0,0.0,0.0,0.0,0.0,0.0,0.0,0.0,0.0,0.0,0.0,0.0,0.0,0.0,0.0,0.0,0.0,0.0,-4.9978,-4.9574,-4.9537,-4.8673,-4.915,-5.0765,-5.0765,-5.0802,-5.0684,-4.9364,-4.8774,-4.8614,-4.6529,-4.5263,-4.4615,-4.4615,-4.4615,-4.4615,-4.4615,-4.506,-4.5805,-4.6549,-4.6786,-4.6921,-4.7665,-4.7394,-4.6786,-4.6786,-4.6786,-4.6786,-4.6786,-4.6786,-4.6786,-4.6786,-4.6786,-4.6786,-4.6786,-4.7361,-4.7872,-4.7872,-4.8446,-4.8247,-4.5722,-4.5728,-4.5381,-4.2886,-4.291,-4.2841,-4.1564,-4.1961,-4.1692,-3.9679,-4.0576,-4.1115,-4.0457,-3.9798,-3.914,-3.8452,-3.8392,-3.7853,-3.6567,-3.6477,-3.6178,-3.5519,-3.5519,-3.5519,-3.5519,-3.5519,-3.5519,-3.5519,-3.5519,-3.5519,-3.5457,-3.4476,-3.3498,-3.7821,-3.7686,0.0,-4.002,0.0,0.0,0.0,-4.5365,0.0,0.0,0.0,0.0,0.0,0.0,0.0,0.0,0.0,0.0,0.0,0.0,0.0,0.0,0.0,0.0,0.0,0.0,0.0,0.0,0.0,0.0,0.0,0.0,0.0,0.0,0.0,0.0,0.0,0.0,-4.6985,-4.6985,-4.6728,-4.7462,-4.9077,-4.9664,-4.9391,-4.8415,-4.8163,-4.7431,-4.6411,-4.5377,-4.4818,-4.4615,-4.4615,-4.4615,-4.4682,-4.5162,-4.55,-4.5805,-4.6549,-4.6786,-4.6819,-4.7056,-4.6989,-4.6786,-4.6786,-4.6786,-4.6684,-4.6177,-4.6041,-4.5906,-4.5393,-4.5258,-4.5529,-4.6549,-4.6955,-4.7124,-4.7124,-4.7208,-4.7041,-4.6258,-4.562,-4.498,-4.4226,-4.3296,-4.241,-4.1504,-4.1602,-4.1294,-4.0247,-4.0457,-4.0427,-3.9768,-3.9529,-3.9313,-3.914,-3.8661,-3.8033,-3.7195,-3.6716,-3.6178,-3.5519,-3.5519,-3.5519,-3.5519,-3.5519,-3.5519,-3.5519,-3.5519,-3.5519,-3.5457,-3.4476,-3.3498,-3.7347,-3.7347,0.0,-4.0527,-4.1644,-4.2794,-4.5534,0.0,0.0,0.0,0.0,0.0,0.0,0.0,0.0,0.0,0.0,0.0,0.0,0.0,0.0,0.0,0.0,0.0,0.0,0.0,0.0,0.0,0.0,0.0,0.0,0.0,0.0,0.0,0.0,0.0,0.0,0.0,0.0,-4.5883,-4.5883,-4.6397,-4.7352,-4.7692,-4.7486,-4.6909,-4.6861,-4.6202,-4.5115,-4.4748,-4.4615,-4.4615,-4.4615,-4.4615,-4.4649,-4.5094,-4.5263,-4.5365,-4.6109,-4.6346,-4.6346,-4.6346,-4.6346,-4.6312,-4.6007,-4.5935,-4.5805,-4.5399,-4.5263,-4.5162,-4.4716,-4.4615,-4.4818,-4.5703,-4.6143,-4.6258,-4.5928,-4.5972,-4.5798,-4.4818,-4.4303,-4.3803,-4.3149,-4.2463,-4.1782,-4.1085,-4.0756,-4.0457,-4.0068,-4.0008,-3.9858,-3.9469,-3.9373,-3.9164,-3.8661,-3.8482,-3.7883,-3.6716,-3.6537,-3.6178,-3.5519,-3.5519,-3.5519,-3.5519,-3.5519,-3.5519,-3.5519,-3.5519,-3.5519,-3.5457,-3.4075,-3.3122,-3.6897,0.0,0.0,-4.0832,-4.2625,0.0,-4.6515,0.0,0.0,0.0,0.0,0.0,0.0,0.0,0.0,0.0,0.0,0.0,0.0,0.0,0.0,0.0,0.0,0.0,0.0,0.0,0.0,0.0,0.0,0.0,0.0,0.0,0.0,0.0,0.0,0.0,0.0,0.0,0.0,0.0,-4.5608,-4.5627,-4.5682,-4.5341,-4.5477,-4.5953,-4.545,-4.491,-4.4412,-4.4479,-4.4513,-4.4513,-4.4513,-4.4513,-4.4513,-4.4513,-4.4513,-4.4615,-4.5331,-4.5602,-4.5602,-4.5602,-4.5602,-4.5466,-4.4818,-4.4615,-4.4615,-4.4615,-4.4615,-4.4615,-4.4615,-4.4615,-4.4615,-4.4615,-4.5094,-4.5366,-4.4492,-4.4805,-4.4593,-4.2222,-4.2271,-4.2191,-4.0724,-4.0935,-4.1055,-4.0397,-3.9798,-3.9373,-3.9373,-3.9373,-3.9373,-3.9373,-3.9373,-3.8901,-3.7614,-3.8033,-3.7584,-3.5699,-3.6148,-3.6178,-3.5519,-3.5519,-3.5519,-3.5519,-3.5519,-3.5519,-3.5519,-3.5519,-3.5457,-3.5326,-3.3533,-3.2629,-3.7516,-3.7787,0.0,0.0,-4.493,-4.7196,-4.8274,0.0,0.0,0.0,0.0,0.0,0.0,0.0,0.0,0.0,0.0,0.0,0.0,0.0,0.0,0.0,0.0,0.0,0.0,0.0,0.0,0.0,0.0,0.0,0.0,0.0,0.0,0.0,0.0,0.0,-4.2498,-4.2519,-4.2823,0.0,-4.3408,-4.3615,-4.4048,-4.5205,-4.5292,-4.4507,-4.3457,-4.2921,-4.2828,-4.3436,-4.3673,-4.3673,-4.3673,-4.3673,-4.3673,-4.3673,-4.3673,-4.3775,-4.4553,-4.4852,-4.4852,-4.4852,-4.4852,-4.4818,-4.4649,-4.4615,-4.4615,-4.4615,-4.4615,-4.4615,-4.4615,-4.4615,-4.4615,-4.4615,-4.4716,-4.4591,-4.3734,-4.3519,-4.3196,-4.1953,-4.1723,-4.1595,-4.1212,-4.0846,-4.0397,-3.9738,-3.9499,-3.9373,-3.9373,-3.9373,-3.9373,-3.9373,-3.9373,-3.908,-3.8242,-3.8302,-3.7793,-3.6357,-3.6417,-3.6178,-3.5519,-3.5519,-3.5519,-3.5519,-3.5519,-3.5519,-3.5519,-3.5519,-3.51,-3.4312,-3.3876,-3.2912,0.0,0.0,0.0,-4.3572,0.0,0.0,0.0,0.0,0.0,0.0,0.0,0.0,0.0,0.0,0.0,0.0,0.0,0.0,0.0,0.0,0.0,0.0,0.0,0.0,0.0,0.0,0.0,0.0,0.0,0.0,0.0,0.0,0.0,0.0,0.0,0.0,-4.134,-4.1362,-4.1682,-4.2282,-4.2577,-4.2995,-4.3534,-4.4174,-4.3992,-4.3115,-4.2552,-4.2286,-4.232,-4.2726,-4.2861,-4.2861,-4.2861,-4.2861,-4.2861,-4.2861,-4.2861,-4.2997,-4.3741,-4.4012,-4.4079,-4.4479,-4.4615,-4.4615,-4.4615,-4.4615,-4.4615,-4.4615,-4.4615,-4.4615,-4.4615,-4.4615,-4.4615,-4.4615,-4.4298,-4.3739,-4.2862,-4.2269,-4.1628,-4.0755,-4.0516,-4.0427,-4.0427,-4.0157,-3.9798,-3.9433,-3.9373,-3.9373,-3.9373,-3.914,-3.8931,-3.8931,-3.8631,-3.8182,-3.7524,-3.7464,-3.7075,-3.6088,-3.6028,-3.5848,-3.5519,-3.5519,-3.5519,-3.5519,-3.5519,-3.5519,-3.5519,-3.5034,-3.4509,-3.3979,-3.3052,-3.2128,0.0,0.0,-4.1297,-4.4654,0.0,0.0,0.0,0.0,0.0,0.0,0.0,0.0,0.0,0.0,0.0,0.0,0.0,0.0,0.0,0.0,0.0,0.0,0.0,0.0,0.0,0.0,0.0,0.0,0.0,0.0,0.0,0.0,0.0,0.0,0.0,-4.0294,-4.0756,-4.0756,-4.1082,-4.166,-4.2262,-4.2827,-4.3358,-4.2787,-4.2367,-4.2055,-4.1946,-4.1914,-4.1914,-4.2049,-4.2117,-4.2117,-4.2117,-4.2117,-4.2117,-4.2117,-4.2117,-4.2219,-4.3098,-4.3308,-4.3369,-4.431,-4.4412,-4.4242,-4.4378,-4.431,-4.4209,-4.4209,-4.431,-4.4384,-4.4384,-4.4513,-4.4615,-4.4615,-4.3948,-4.3078,-4.2205,-4.1429,-4.0622,-3.9625,-3.9373,-3.9373,-3.9373,-3.9373,-3.9373,-3.9373,-3.9373,-3.9373,-3.9373,-3.8811,-3.8392,-3.8392,-3.7793,-3.7165,-3.6537,-3.6477,-3.6207,-3.5549,-3.5519,-3.5519,-3.5519,-3.5519,-3.5519,-3.5519,-3.5519,-3.5519,-3.5519,-3.4643,-3.4177,-3.3945,-3.2236,-3.1352,0.0,0.0,0.0,0.0,0.0,0.0,0.0,0.0,0.0,0.0,0.0,0.0,0.0,0.0,0.0,0.0,0.0,0.0,0.0,0.0,0.0,0.0,0.0,0.0,0.0,0.0,0.0,0.0,0.0,0.0,0.0,0.0,-3.9808,-3.9174,-3.9774,0.0,-4.0204,-4.0204,-4.049,-4.1036,-4.1639,-4.2241,-4.2751,-4.1666,-4.1426,-4.1815,-4.0803,-4.0383,-4.0451,-4.1068,-4.1339,-4.1339,-4.1339,-4.1339,-4.1339,-4.1339,-4.1339,-4.1542,-4.2902,-4.2997,-4.2658,-4.4141,-4.3701,-4.2726,-4.3369,-4.3098,-4.2591,-4.2591,-4.3064,-4.3572,-4.3572,-4.4079,-4.4615,-4.4615,-4.3948,-4.3078,-4.2205,-4.1885,-4.1362,-3.9702,-3.9373,-3.9373,-3.9373,-3.9373,-3.9373,-3.9373,-3.9373,-3.9373,-3.9373,-3.8811,-3.8392,-3.8392,-3.7793,-3.7165,-3.6537,-3.6477,-3.6207,-3.5549,-3.5519,-3.5519,-3.5519,-3.5519,-3.5519,-3.5519,-3.5519,-3.5519,-3.5519,-3.5359,-3.4839,-3.3979,-3.2912,-3.1983,-3.8227,0.0,0.0,0.0,0.0,0.0,0.0,0.0,0.0,0.0,0.0,0.0,0.0,0.0,0.0,0.0,0.0,0.0,0.0,0.0,0.0,0.0,0.0,0.0,0.0,0.0,0.0,0.0,0.0,0.0,0.0,-3.9073,-3.914,-3.8396,-3.87,0.0,-3.887,-3.9276,-3.9958,-4.0886,-4.1161,-4.1617,-4.218,-4.1273,-4.1228,-4.1746,-4.0611,-4.0113,-4.0146,-4.0451,-4.0561,-4.0561,-4.0561,-4.0561,-4.0561,-4.0561,-4.0561,-4.073,-4.1813,-4.1982,-4.1847,-4.2956,-4.2828,-4.2354,-4.2692,-4.2557,-4.2388,-4.2794,-4.3166,-4.3477,-4.3944,-4.4316,-4.4615,-4.4615,-4.4327,-4.3651,-4.23,-4.1593,-4.0894,-3.9631,-3.9373,-3.9373,-3.9373,-3.9373,-3.9373,-3.9373,-3.908,-3.8841,-3.8841,-3.7943,-3.7315,-3.7315,-3.6746,-3.6237,-3.5968,-3.5938,-3.5818,-3.5519,-3.5519,-3.5519,-3.5519,-3.5519,-3.5519,-3.5519,-3.5519,-3.5519,-3.5519,-3.4938,-3.4143,-3.3192,-3.2236,-3.1304,0.0,0.0,0.0,0.0,0.0,0.0,0.0,0.0,0.0,0.0,0.0,0.0,0.0,0.0,0.0,0.0,0.0,0.0,0.0,0.0,0.0,0.0,0.0,0.0,0.0,0.0,0.0,0.0,0.0,0.0,-3.7686,-3.8328,-3.8396,-3.7652,-3.7821,-3.7922,-3.7922,-3.8464,-3.9282,-4.041,-4.041,-4.0839,-4.1538,-4.0967,-4.1013,-4.153,-4.0538,-4.0113,-4.0113,-4.0113,-4.0113,-4.0113,-4.0113,-4.0113,-4.0113,-4.0113,-4.0113,-4.0214,-4.0933,-4.1068,-4.1068,-4.1982,-4.2049,-4.1805,-4.1948,-4.188,-4.1847,-4.2422,-4.2828,-4.3234,-4.3606,-4.4012,-4.4248,-4.4073,-4.3867,-4.3423,-4.2235,-4.1162,-4.017,-3.9517,-3.9254,-3.917,-3.917,-3.902,-3.8865,-3.8865,-3.8482,-3.8153,-3.8153,-3.7165,-3.6477,-3.6477,-3.5908,-3.5519,-3.5519,-3.5519,-3.5519,-3.5519,-3.5519,-3.5519,-3.5519,-3.5519,-3.5519,-3.5519,-3.5231,-3.5231,-3.5519,-3.4509,-3.3636,-3.2912,-3.1756,-3.082,0.0,0.0,0.0,0.0,0.0,0.0,0.0,0.0,0.0,0.0,0.0,0.0,0.0,0.0,0.0,0.0,0.0,0.0,0.0,0.0,0.0,0.0,0.0,0.0,0.0,0.0,0.0,0.0,0.0,0.0,-3.6897,-3.755,-3.7618,-3.6897,-3.755,-3.7922,-3.7922,-3.7956,-3.8352,-3.9088,-3.9088,-3.9734,-4.0943,-4.0392,-4.0441,-4.092,-4.0343,-4.0113,-4.0113,-4.0113,-4.0113,-4.0113,-4.0113,-4.0113,-4.0113,-4.0113,-4.0113,-4.0214,-4.0933,-4.073,-4.0383,-4.1839,-4.1365,-4.035,-4.1035,-4.0764,-4.0214,-4.0282,-4.1297,-4.2185,-4.1542,-4.2422,-4.3301,-4.2591,-4.1899,-4.1493,-4.1916,-4.0687,-3.9445,-3.9409,-3.8901,-3.8452,-3.8452,-3.7913,-3.7524,-3.7524,-3.7494,-3.7464,-3.7464,-3.6896,-3.6477,-3.6477,-3.5908,-3.5519,-3.5519,-3.5519,-3.5519,-3.5519,-3.5519,-3.5519,-3.5519,-3.5519,-3.5519,-3.5519,-3.4576,-3.4543,-3.5519,-3.4509,-3.3979,-3.3876,-3.2055,-3.1167,0.0,0.0,0.0,0.0,0.0,0.0,0.0,0.0,0.0,0.0,0.0,0.0,0.0,0.0,0.0,0.0,0.0,0.0,0.0,0.0,0.0,0.0,0.0,0.0,0.0,0.0,0.0,0.0,0.0,0.0,-3.5471,-3.6552,-3.684,-3.6062,-3.6276,-3.6671,-3.7178,-3.7178,-3.755,-3.8294,-3.8768,-3.9229,-3.9685,-3.9976,-4.0204,-4.0368,-4.0179,-4.0113,-4.0113,-4.0113,-4.0113,-4.0113,-4.0113,-4.0113,-4.0113,-4.0113,-4.0113,-4.0146,-4.0417,-4.0316,-4.018,-4.0722,-4.0519,-4.0146,-4.0417,-4.0316,-4.0214,-4.0663,-4.117,-4.1644,-4.1847,-4.2286,-4.2517,-4.1777,-4.1304,-4.0791,-4.0039,-3.973,-3.9455,-3.8857,-3.8571,-3.8392,-3.8392,-3.7853,-3.7404,-3.7404,-3.7075,-3.6806,-3.6806,-3.6267,-3.5848,-3.5848,-3.5639,-3.5519,-3.5519,-3.5519,-3.5519,-3.5519,-3.5519,-3.5519,-3.5519,-3.5519,-3.5519,-3.5519,-3.5133,-3.4839,-3.4543,-3.3567,-3.277,-3.2164,-3.1499,-3.0857,-3.6163,0.0,0.0,0.0,0.0,0.0,0.0,0.0,0.0,0.0,0.0,0.0,0.0,0.0,0.0,0.0,0.0,0.0,0.0,0.0,0.0,0.0,0.0,0.0,0.0,0.0,0.0,0.0,0.0,0.0,-3.4625,-3.5518,-3.5923,-3.56,-3.56,-3.5836,-3.64,-3.64,-3.6772,-3.755,-3.8024,-3.8497,-3.9005,-3.9537,-3.9876,-4.0113,-4.0113,-4.0113,-4.0113,-4.0113,-4.0113,-4.0113,-4.0113,-4.0113,-4.0113,-4.0113,-4.0113,-4.0113,-4.0113,-4.0113,-4.0113,-4.0113,-4.0113,-4.0113,-4.0113,-4.0113,-4.0214,-4.0696,-4.1001,-4.1271,-4.1474,-4.135,-4.0915,-3.9903,-3.955,-3.9125,-3.7863,-3.8499,-3.9032,-3.8232,-3.7883,-3.7734,-3.7734,-3.7195,-3.6776,-3.6776,-3.6417,-3.6148,-3.6148,-3.5789,-3.5519,-3.5519,-3.5519,-3.5519,-3.5519,-3.5519,-3.5519,-3.5519,-3.5519,-3.5519,-3.5519,-3.5519,-3.5519,-3.5519,-3.4839,-3.4206,-3.3533,-3.2876,-3.2128,-3.1167,-3.0857,-3.0381,0.0,0.0,0.0,0.0,0.0,0.0,0.0,0.0,0.0,0.0,0.0,0.0,0.0,0.0,0.0,0.0,0.0,0.0,0.0,0.0,0.0,0.0,0.0,0.0,0.0,0.0,0.0,0.0,0.0,-3.3846,-3.4544,-3.4616,-3.4934,-3.5577,-3.56,-3.56,-3.56,-3.56,-3.5994,-3.6761,-3.6795,-3.754,-3.8937,-3.8937,-3.9368,-4.0079,-4.0079,-4.0079,-4.0113,-4.0113,-4.0113,-4.0113,-4.0113,-4.0113,-4.0113,-4.0113,-4.0113,-4.0113,-4.0113,-4.0113,-4.0113,-4.0113,-4.0113,-4.0113,-4.0113,-4.0113,-4.0113,-4.0113,-4.0595,-4.1001,-4.0257,-3.9506,-3.8492,-3.6994,-3.6631,-3.6415,-3.5651,-3.6985,-3.8153,-3.7494,-3.6896,-3.6477,-3.6477,-3.5938,-3.5519,-3.5519,-3.5519,-3.5519,-3.5519,-3.5519,-3.5519,-3.5519,-3.5519,-3.5519,-3.5519,-3.5519,-3.5519,-3.5519,-3.5519,-3.5519,-3.5519,-3.5519,-3.5519,-3.5457,-3.3602,-3.2593,-3.2558,-3.2522,-3.2055,-3.1156,-3.0216,-2.9804,-3.5701,0.0,0.0,0.0,0.0,0.0,0.0,0.0,0.0,0.0,0.0,0.0,0.0,0.0,0.0,0.0,0.0,0.0,0.0,0.0,0.0,0.0,0.0,0.0,0.0,0.0,0.0,0.0,0.0,-3.3156,-3.382,-3.4816,-3.5407,-3.56,-3.56,-3.56,-3.56,-3.56,-3.5701,-3.596,-3.6502,-3.7032,-3.7438,-3.7956,-3.8599,-3.9276,-3.9276,-3.9605,-4.0113,-4.0113,-4.0113,-4.0113,-4.0113,-4.0113,-4.0113,-4.0113,-4.0113,-4.0113,-4.0113,-4.0113,-4.0113,-4.0113,-4.0113,-4.0113,-4.0113,-4.0113,-4.0113,-4.0113,-4.0248,-4.0222,-3.9435,-3.9069,-3.8492,-3.6994,-3.6971,-3.6969,-3.5774,-3.6297,-3.6956,-3.6776,-3.6596,-3.6477,-3.6477,-3.5938,-3.5519,-3.5519,-3.5519,-3.5519,-3.5519,-3.5519,-3.5519,-3.5519,-3.5519,-3.5519,-3.5519,-3.5519,-3.5519,-3.5519,-3.5519,-3.5519,-3.5519,-3.5519,-3.5166,-3.4442,-3.3876,-3.2947,-3.1609,-3.0921,-3.0419,-3.0177,-2.9934,-2.9804,0.0,0.0,0.0,0.0,0.0,0.0,0.0,-3.5847,0.0,0.0,0.0,0.0,0.0,0.0,0.0,0.0,0.0,0.0,0.0,0.0,0.0,0.0,0.0,0.0,0.0,0.0,0.0,0.0,-3.191,-3.2571,-3.3547,-3.4592,-3.5316,-3.56,-3.56,-3.56,-3.56,-3.56,-3.56,-3.56,-3.6096,-3.6468,-3.6829,-3.7246,-3.7821,-3.8565,-3.887,-3.9242,-3.9673,-3.9977,-4.0113,-4.0113,-4.0113,-4.0113,-4.0113,-4.0113,-4.0113,-4.0113,-4.0113,-4.0113,-4.0113,-4.0113,-4.0113,-4.0113,-4.0113,-4.0113,-4.0113,-4.0113,-3.9876,-3.9394,-3.8635,-3.8185,-3.7642,-3.6415,-3.6439,-3.6495,-3.5677,-3.5818,-3.6088,-3.6088,-3.6088,-3.6088,-3.6088,-3.5759,-3.5519,-3.5519,-3.5519,-3.5519,-3.5519,-3.5519,-3.5519,-3.5519,-3.5519,-3.5519,-3.5519,-3.5519,-3.5519,-3.5519,-3.5519,-3.5519,-3.5519,-3.5519,-3.5034,-3.4013,-3.3636,-3.2486,-3.062,-3.0457,-3.0177,-2.9804,-2.9804,-2.9804,0.0,0.0,0.0,0.0,0.0,0.0,-3.4979,-3.4675,-3.4518,0.0,0.0,0.0,0.0,0.0,0.0,0.0,0.0,0.0,0.0,0.0,0.0,0.0,0.0,0.0,0.0,0.0,0.0,-3.1511,-3.1597,-3.2185,-3.3547,-3.4252,-3.4934,-3.5577,-3.56,-3.56,-3.56,-3.56,-3.56,-3.56,-3.56,-3.5994,-3.666,-3.666,-3.7077,-3.7821,-3.8565,-3.8903,-3.9039,-3.9808,-4.0113,-4.0113,-4.0113,-4.0113,-4.0113,-4.0113,-4.0113,-4.0113,-4.0113,-4.0113,-4.0113,-4.0113,-4.0113,-4.0113,-4.0113,-4.0113,-4.0087,-3.9978,-3.9447,-3.8718,-3.7876,-3.7114,-3.6415,-3.5683,-3.5519,-3.5519,-3.5519,-3.5519,-3.5519,-3.5519,-3.5519,-3.5519,-3.5519,-3.5519,-3.5519,-3.5519,-3.5519,-3.5519,-3.5519,-3.5519,-3.5519,-3.5519,-3.5519,-3.5519,-3.5519,-3.5519,-3.5519,-3.5519,-3.5519,-3.5519,-3.5519,-3.5519,-3.5001,-3.3876,-3.2806,-3.1489,-2.9804,-3.062,-3.062,-2.9804,-2.9804,-2.9804,0.0,0.0,0.0,0.0,0.0,0.0,-3.5757,-3.5893,-3.5843,0.0,0.0,0.0,0.0,0.0,0.0,0.0,0.0,0.0,0.0,0.0,0.0,0.0,0.0,0.0,0.0,0.0,-3.1511,-3.1511,-3.2048,-3.2734,-3.3572,-3.4252,-3.4934,-3.5577,-3.56,-3.56,-3.56,-3.56,-3.56,-3.56,-3.56,-3.5667,-3.5836,-3.5836,-3.6265,-3.7066,-3.7787,-3.8464,-3.9039,-3.9808,-4.0113,-4.0113,-4.0113,-4.0113,-4.0113,-4.0113,-4.0113,-4.0113,-4.0113,-4.0113,-4.0113,-4.0113,-4.0113,-4.0113,-4.0113,-4.0113,-3.9952,-3.9315,-3.9016,-3.8608,-3.7203,-3.6722,-3.6415,-3.5683,-3.5519,-3.5519,-3.5519,-3.5519,-3.5519,-3.5519,-3.5519,-3.5519,-3.5519,-3.5519,-3.5519,-3.5519,-3.5519,-3.5519,-3.5519,-3.5519,-3.5519,-3.5519,-3.5519,-3.5519,-3.5519,-3.5519,-3.5519,-3.5519,-3.5519,-3.5519,-3.5519,-3.5519,-3.4673,-3.2912,-3.1193,-3.0177,-2.9804,-2.9972,-2.9972,-2.9804,-2.9804,-2.9804,0.0,0.0,0.0,-3.7618,0.0,0.0,0.0,-3.5131,-3.4741,0.0,0.0,0.0,0.0,0.0,0.0,0.0,0.0,0.0,0.0,0.0,0.0,0.0,0.0,0.0,0.0,0.0,-3.1122,-3.1481,-3.1853,-3.2382,-3.305,-3.3751,-3.4423,-3.5075,-3.543,-3.56,-3.56,-3.56,-3.56,-3.56,-3.56,-3.56,-3.56,-3.56,-3.5802,-3.6231,-3.7009,-3.755,-3.8014,-3.9097,-3.9571,-3.9605,-3.9977,-4.0113,-4.0113,-4.0113,-4.0113,-4.0113,-4.0113,-4.0113,-4.0113,-4.0113,-4.0113,-4.0113,-4.0113,-3.9825,-3.9342,-3.8553,-3.8044,-3.7584,-3.6813,-3.6322,-3.5943,-3.5587,-3.5519,-3.5519,-3.5519,-3.5519,-3.5519,-3.5519,-3.5519,-3.5519,-3.5519,-3.5519,-3.5519,-3.5519,-3.5519,-3.5519,-3.5519,-3.5519,-3.5519,-3.5519,-3.5519,-3.5519,-3.5519,-3.5519,-3.5519,-3.5519,-3.5519,-3.5519,-3.5519,-3.5034,-3.3871,-3.1911,-3.0533,-2.9804,-2.9804,-2.9804,-2.9804,-2.9804,-2.9804,-2.9804,0.0,0.0,0.0,0.0,0.0,-3.7509,0.0,0.0,0.0,0.0,0.0,0.0,0.0,0.0,0.0,0.0,0.0,0.0,0.0,0.0,0.0,0.0,0.0,0.0,0.0,0.0,-3.0612,-3.1241,-3.1301,-3.1673,-3.2544,-3.3235,-3.3928,-3.4592,-3.527,-3.56,-3.56,-3.56,-3.56,-3.56,-3.56,-3.56,-3.56,-3.56,-3.56,-3.5633,-3.6434,-3.6795,-3.6931,-3.8396,-3.9005,-3.9073,-3.9808,-4.0113,-4.0113,-4.0113,-4.0113,-4.0113,-4.0113,-4.0113,-4.0113,-4.0113,-3.9978,-3.9876,-3.9876,-3.9315,-3.8525,-3.7761,-3.7084,-3.6569,-3.6415,-3.5943,-3.5519,-3.5519,-3.5519,-3.5519,-3.5519,-3.5519,-3.5519,-3.5519,-3.5519,-3.5519,-3.5519,-3.5519,-3.5519,-3.5519,-3.5519,-3.5519,-3.5519,-3.5519,-3.5519,-3.5519,-3.5519,-3.5519,-3.5519,-3.5519,-3.5519,-3.5519,-3.5519,-3.5392,-3.5198,-3.4075,-3.2735,-3.1204,-3.0292,-2.9804,-2.9804,-2.9804,-2.9804,-2.9804,-2.9804,-2.9804,0.0,0.0,0.0,0.0,-3.8396,0.0,0.0,0.0,0.0,0.0,0.0,0.0,0.0,0.0,0.0,0.0,0.0,0.0,0.0,0.0,0.0,0.0,0.0,0.0,0.0,0.0,0.0,-3.0582,-3.0612,-3.1187,-3.2544,-3.3235,-3.3928,-3.4592,-3.527,-3.56,-3.56,-3.56,-3.56,-3.56,-3.56,-3.56,-3.56,-3.56,-3.56,-3.5633,-3.6434,-3.6795,-3.6931,-3.8396,-3.9005,-3.9073,-3.9808,-4.0113,-4.0113,-4.0113,-4.0113,-4.0113,-4.0113,-4.0113,-4.0113,-4.0113,-3.961,-3.9016,-3.9016,-3.8525,-3.7761,-3.6964,-3.6661,-3.6446,-3.5782,-3.5554,-3.5519,-3.5519,-3.5519,-3.5519,-3.5519,-3.5519,-3.5519,-3.5519,-3.5519,-3.5519,-3.5519,-3.5519,-3.5519,-3.5519,-3.5519,-3.5519,-3.5519,-3.5519,-3.5519,-3.5519,-3.5519,-3.5519,-3.5519,-3.5519,-3.5519,-3.5519,-3.5519,-3.51,-3.4211,-3.2451,-3.1426,-3.1204,-3.0292,-2.9804,-2.9804,-2.9804,-2.9804,-2.9804,-2.9804,-2.9804,0.0,0.0,0.0,0.0,0.0,0.0,0.0,0.0,-3.4175,0.0,0.0,0.0,0.0,0.0,0.0,0.0,0.0,0.0,0.0,0.0,0.0,0.0,0.0,0.0,0.0,0.0,0.0,0.0,0.0,-3.1409,-3.1982,-3.3399,-3.4325,-3.4592,-3.527,-3.56,-3.56,-3.56,-3.56,-3.56,-3.56,-3.56,-3.56,-3.56,-3.56,-3.5633,-3.596,-3.6096,-3.6197,-3.728,-3.7743,-3.7845,-3.9029,-3.974,-4.0113,-4.0113,-4.0113,-4.0113,-4.0113,-4.0113,-4.0003,-3.9558,-3.8914,-3.8161,-3.77,-3.7352,-3.6934,-3.6165,-3.5943,-3.5879,-3.5587,-3.5519,-3.5519,-3.5519,-3.5519,-3.5519,-3.5519,-3.5519,-3.5519,-3.5519,-3.5519,-3.5519,-3.5519,-3.5519,-3.5519,-3.5519,-3.5519,-3.5519,-3.5519,-3.5519,-3.5519,-3.5519,-3.5519,-3.5519,-3.5519,-3.5519,-3.5231,-3.4643,-3.4109,-3.3359,-3.2415,-3.1609,-3.0932,-3.0381,-3.0011,-2.9804,-2.9804,-2.9804,-2.9804,-2.9804,-2.9804,-2.9804,-3.9242,0.0,0.0,0.0,0.0,0.0,0.0,0.0,0.0,0.0,0.0,0.0,0.0,0.0,0.0,0.0,0.0,0.0,0.0,0.0,0.0,0.0,0.0,0.0,0.0,0.0,0.0,0.0,-3.0475,0.0,-3.13,-3.3225,-3.4296,-3.4296,-3.5136,-3.56,-3.56,-3.56,-3.56,-3.56,-3.56,-3.56,-3.56,-3.56,-3.56,-3.56,-3.56,-3.56,-3.5667,-3.6468,-3.6795,-3.6931,-3.8193,-3.914,-3.9842,-4.0045,-4.0113,-4.0113,-4.0113,-3.9952,-3.9662,-3.9069,-3.8246,-3.7352,-3.6783,-3.6477,-3.6196,-3.5651,-3.5519,-3.5519,-3.5519,-3.5519,-3.5519,-3.5519,-3.5519,-3.5519,-3.5519,-3.5519,-3.5519,-3.5519,-3.5519,-3.5519,-3.5519,-3.5519,-3.5519,-3.5519,-3.5519,-3.5519,-3.5519,-3.5519,-3.5519,-3.5519,-3.5519,-3.5519,-3.5519,-3.5519,-3.5067,-3.4047,-3.3122,-3.2164,-3.1241,-3.097,-3.0495,-2.9804,-2.9804,-2.9804,-2.9804,-2.9804,-2.9804,-2.9804,-2.9804,-2.9804,0.0,0.0,0.0,-3.8125,0.0,0.0,0.0,0.0,-3.4404,0.0,0.0,0.0,0.0,0.0,-3.0283,-2.9711,0.0,0.0,0.0,0.0,0.0,0.0,0.0,0.0,0.0,0.0,0.0,0.0,-2.9592,0.0,-3.0505,-3.2434,-3.3548,-3.3548,-3.4879,-3.56,-3.56,-3.56,-3.56,-3.56,-3.56,-3.56,-3.56,-3.56,-3.56,-3.56,-3.56,-3.56,-3.5667,-3.6468,-3.6795,-3.6897,-3.7652,-3.8396,-3.9106,-3.9842,-4.0113,-4.0113,-4.0113,-3.9584,-3.8935,-3.8908,-3.7873,-3.663,-3.66,-3.6102,-3.5522,-3.5519,-3.5519,-3.5519,-3.5519,-3.5519,-3.5519,-3.5519,-3.5519,-3.5519,-3.5519,-3.5519,-3.5519,-3.5519,-3.5519,-3.5519,-3.5519,-3.5519,-3.5519,-3.5519,-3.5519,-3.5519,-3.5519,-3.5519,-3.5519,-3.5519,-3.5519,-3.5519,-3.5519,-3.5519,-3.5067,-3.4047,-3.3122,-3.2164,-3.1241,-3.0305,-2.9818,-2.9804,-2.9804,-2.9804,-2.9804,-2.9804,-2.9804,-2.9804,-2.9804,-2.9804,0.0,0.0,-3.7608,-3.7855,0.0,0.0,0.0,0.0,0.0,0.0,0.0,0.0,0.0,0.0,-3.114,-3.0983,-3.0339,0.0,0.0,0.0,0.0,0.0,0.0,0.0,0.0,0.0,0.0,-2.8304,-2.9452,-3.0275,0.0,-3.2823,-3.4164,-3.4164,-3.5105,-3.56,-3.56,-3.56,-3.56,-3.56,-3.56,-3.56,-3.56,-3.56,-3.56,-3.56,-3.56,-3.56,-3.5633,-3.587,-3.6028,-3.6096,-3.6874,-3.7313,-3.7709,-3.8928,-3.9673,-4.0003,-3.9473,-3.8799,-3.8076,-3.7555,-3.6692,-3.5878,-3.5878,-3.5686,-3.5519,-3.5519,-3.5519,-3.5519,-3.5519,-3.5519,-3.5519,-3.5519,-3.5519,-3.5519,-3.5519,-3.5519,-3.5519,-3.5519,-3.5519,-3.5519,-3.5519,-3.5519,-3.5519,-3.5519,-3.5519,-3.5519,-3.5519,-3.5519,-3.5519,-3.5519,-3.5519,-3.5519,-3.5519,-3.4872,-3.4109,-3.3122,-3.2164,-3.1267,-3.0305,-2.9972,-2.9804,-2.9804,-2.9804,-2.9804,-2.9804,-2.9804,-2.9804,-2.9804,-2.9804,-2.9804,-3.6502,-3.6738,0.0,0.0,-3.6772,0.0,-3.5719,0.0,0.0,0.0,0.0,0.0,0.0,0.0,0.0,-3.1011,-3.0545,-2.9914,0.0,-2.8218,0.0,0.0,0.0,0.0,0.0,0.0,-2.8771,-2.8303,-2.9415,-3.0183,0.0,0.0,-3.41,-3.41,-3.5059,-3.56,-3.56,-3.56,-3.56,-3.56,-3.56,-3.56,-3.56,-3.56,-3.56,-3.56,-3.56,-3.56,-3.56,-3.56,-3.56,-3.5633,-3.6163,-3.6558,-3.6965,-3.8159,-3.9073,-3.964,-3.9083,-3.8414,-3.7677,-3.6843,-3.6102,-3.5519,-3.5519,-3.5519,-3.5519,-3.5519,-3.5519,-3.5519,-3.5519,-3.5519,-3.5519,-3.5519,-3.5519,-3.5519,-3.5519,-3.5519,-3.5519,-3.5519,-3.5519,-3.5519,-3.5519,-3.5519,-3.5519,-3.5519,-3.5519,-3.5519,-3.5519,-3.5519,-3.5519,-3.5519,-3.5519,-3.5359,-3.5001,-3.4346,-3.3463,-3.2164,-3.1536,-3.0771,-2.9818,-2.9804,-2.9804,-2.9804,-2.9804,-2.9804,-2.9804,-2.9804,-2.9804,-2.9804,-2.9804,-2.9804]},{"header":{"parameterUnit":"m.s-1","parameterCategory":1,"la1":30.6,"la2":29.2853,"lo1":-89.7004,"lo2":-87.6739,"dy":0.0162,"dx":0.0183,"nx":112,"ny":82,"refTime":"2023-07-11T06:00:00:Z","depth":0,"parameterNumber":3,"parameterNumberName":"V-component_of_WINDS"},"data":[0.0,0.0,0.0,0.0,0.0,0.0,0.0,0.0,0.0,0.0,0.0,0.0,0.0,0.0,0.0,0.0,0.0,0.0,0.0,0.0,0.0,0.0,0.0,0.0,0.0,0.0,0.0,0.0,0.0,0.0,0.0,0.0,0.0,0.0,0.0,0.0,0.0,0.0,0.0,0.0,0.0,0.0,0.0,0.0,0.0,0.0,0.0,0.0,0.0,0.0,0.0,0.0,0.0,0.0,0.0,0.0,0.0,0.0,0.0,0.0,0.0,0.0,0.0,0.0,0.0,0.0,0.0,0.0,0.0,0.0,0.0,0.0,0.0,0.0,0.0,0.0,0.0,0.0,0.0,0.0,0.0,0.0,0.0,0.0,0.0,0.0,0.0,0.0,0.0,0.0,0.0,-2.916,-3.3144,-3.5078,-3.373,-3.4336,-3.2812,-2.8164,0.0,0.0,0.0,0.0,0.0,0.0,0.0,0.0,0.0,0.0,0.0,0.0,0.0,0.0,0.0,0.0,0.0,0.0,0.0,0.0,0.0,0.0,0.0,0.0,0.0,0.0,0.0,0.0,0.0,0.0,0.0,0.0,0.0,0.0,0.0,0.0,0.0,0.0,0.0,0.0,0.0,0.0,0.0,0.0,0.0,0.0,0.0,0.0,0.0,0.0,0.0,0.0,0.0,0.0,0.0,0.0,0.0,0.0,0.0,0.0,0.0,0.0,0.0,0.0,0.0,0.0,0.0,0.0,0.0,0.0,0.0,0.0,0.0,0.0,0.0,0.0,0.0,0.0,0.0,0.0,0.0,0.0,0.0,0.0,0.0,0.0,0.0,0.0,0.0,0.0,0.0,0.0,0.0,0.0,0.0,0.0,0.0,0.0,0.0,0.0,0.0,0.0,0.0,0.0,-2.7676,-3.1289,-3.2969,-3.4004,-3.4473,-3.3027,-3.1133,-2.8867,0.0,0.0,0.0,0.0,0.0,0.0,0.0,0.0,0.0,0.0,0.0,0.0,0.0,0.0,0.0,0.0,0.0,0.0,0.0,0.0,0.0,0.0,0.0,0.0,0.0,0.0,0.0,0.0,0.0,0.0,0.0,0.0,0.0,0.0,0.0,0.0,0.0,0.0,0.0,0.0,0.0,0.0,0.0,0.0,0.0,0.0,0.0,0.0,0.0,0.0,0.0,0.0,0.0,0.0,0.0,0.0,0.0,0.0,0.0,0.0,0.0,0.0,0.0,0.0,0.0,0.0,0.0,0.0,0.0,0.0,0.0,0.0,0.0,0.0,0.0,0.0,0.0,0.0,0.0,0.0,0.0,0.0,0.0,0.0,0.0,0.0,0.0,0.0,0.0,0.0,0.0,0.0,0.0,0.0,0.0,0.0,0.0,0.0,0.0,0.0,0.0,0.0,0.0,-2.6797,-2.8633,-3.1896,-3.3125,-3.3652,-3.3359,-3.2207,-3.0469,-2.8047,-2.7861,0.0,0.0,0.0,0.0,0.0,0.0,0.0,0.0,0.0,0.0,0.0,0.0,0.0,0.0,0.0,0.0,0.0,0.0,0.0,0.0,0.0,0.0,0.0,0.0,0.0,0.0,0.0,0.0,0.0,0.0,0.0,0.0,0.0,0.0,0.0,0.0,0.0,0.0,0.0,0.0,0.0,0.0,0.0,0.0,0.0,0.0,0.0,0.0,0.0,0.0,0.0,0.0,0.0,0.0,0.0,0.0,0.0,0.0,0.0,0.0,0.0,0.0,0.0,0.0,0.0,0.0,0.0,0.0,0.0,0.0,0.0,0.0,0.0,0.0,0.0,0.0,0.0,0.0,0.0,0.0,0.0,0.0,0.0,0.0,0.0,0.0,0.0,0.0,0.0,0.0,0.0,0.0,0.0,0.0,0.0,0.0,0.0,0.0,0.0,0.0,0.0,0.0,-2.7969,-2.9238,-3.1758,-3.2891,-3.3125,-3.2246,-3.1387,-2.9824,-2.7324,-2.711,0.0,0.0,0.0,0.0,0.0,0.0,0.0,0.0,0.0,0.0,0.0,0.0,0.0,0.0,0.0,0.0,0.0,0.0,0.0,0.0,0.0,0.0,0.0,0.0,0.0,0.0,0.0,0.0,0.0,0.0,0.0,0.0,0.0,0.0,0.0,0.0,0.0,0.0,0.0,0.0,0.0,0.0,0.0,0.0,0.0,0.0,0.0,0.0,0.0,0.0,0.0,0.0,0.0,0.0,0.0,0.0,0.0,0.0,0.0,0.0,0.0,0.0,0.0,0.0,0.0,0.0,0.0,0.0,0.0,0.0,0.0,0.0,0.0,0.0,0.0,0.0,0.0,0.0,0.0,0.0,0.0,0.0,0.0,0.0,0.0,0.0,0.0,0.0,0.0,0.0,0.0,0.0,0.0,0.0,0.0,0.0,0.0,0.0,0.0,0.0,0.0,0.0,-2.7773,-2.9141,-3.1328,-3.1641,-3.1816,-3.2148,-3.0273,-2.8672,-2.7728,-2.673,0.0,0.0,0.0,0.0,0.0,0.0,0.0,0.0,0.0,0.0,0.0,0.0,0.0,0.0,0.0,0.0,0.0,0.0,0.0,0.0,0.0,0.0,0.0,0.0,0.0,0.0,0.0,0.0,0.0,0.0,0.0,0.0,0.0,0.0,0.0,0.0,0.0,0.0,0.0,0.0,0.0,0.0,0.0,0.0,0.0,0.0,0.0,0.0,0.0,0.0,0.0,0.0,0.0,0.0,0.0,0.0,0.0,0.0,0.0,0.0,0.0,0.0,0.0,0.0,0.0,0.0,0.0,0.0,0.0,0.0,0.0,0.0,0.0,0.0,0.0,0.0,0.0,0.0,0.0,0.0,0.0,0.0,0.0,0.0,0.0,0.0,0.0,0.0,0.0,0.0,0.0,0.0,0.0,0.0,0.0,0.0,0.0,0.0,0.0,0.0,0.0,0.0,-2.7754,-2.9121,0.0,-3.1758,-3.1777,-3.1406,-3.0117,-2.8917,-2.7975,0.0,0.0,0.0,0.0,0.0,0.0,0.0,0.0,0.0,0.0,0.0,0.0,0.0,0.0,0.0,0.0,0.0,0.0,0.0,0.0,0.0,0.0,0.0,0.0,0.0,0.0,0.0,0.0,0.0,0.0,0.0,0.0,0.0,0.0,0.0,0.0,0.0,0.0,0.0,0.0,0.0,0.0,0.0,0.0,0.0,0.0,0.0,0.0,0.0,0.0,0.0,0.0,0.0,0.0,0.0,0.0,0.0,0.0,0.0,0.0,0.0,0.0,0.0,0.0,0.0,0.0,0.0,0.0,0.0,0.0,0.0,0.0,0.0,0.0,0.0,0.0,0.0,0.0,0.0,0.0,0.0,0.0,0.0,0.0,0.0,0.0,0.0,0.0,0.0,0.0,0.0,0.0,0.0,0.0,0.0,0.0,0.0,0.0,0.0,0.0,0.0,0.0,-2.6562,-2.7559,-2.8867,0.0,-3.1504,-3.1465,-3.0742,-2.9806,-2.8923,-2.8063,0.0,0.0,0.0,0.0,0.0,0.0,0.0,0.0,0.0,0.0,0.0,0.0,0.0,0.0,0.0,0.0,0.0,0.0,0.0,0.0,0.0,0.0,0.0,0.0,0.0,0.0,0.0,0.0,0.0,0.0,0.0,0.0,0.0,0.0,0.0,0.0,0.0,0.0,0.0,0.0,0.0,0.0,0.0,0.0,0.0,0.0,0.0,0.0,0.0,0.0,0.0,0.0,0.0,0.0,0.0,0.0,0.0,0.0,0.0,0.0,0.0,0.0,0.0,0.0,0.0,0.0,0.0,0.0,0.0,0.0,0.0,0.0,0.0,0.0,0.0,0.0,0.0,0.0,0.0,0.0,0.0,0.0,0.0,0.0,0.0,0.0,0.0,0.0,0.0,0.0,0.0,0.0,0.0,0.0,0.0,0.0,0.0,0.0,0.0,0.0,0.0,0.0,-2.6172,-2.718,-2.8354,-3.0076,-3.0663,-3.0761,-3.0291,-2.9294,-2.8557,0.0,0.0,0.0,0.0,0.0,0.0,0.0,0.0,0.0,0.0,0.0,0.0,0.0,0.0,0.0,0.0,0.0,0.0,0.0,0.0,0.0,0.0,0.0,0.0,0.0,0.0,0.0,0.0,0.0,0.0,0.0,0.0,0.0,0.0,0.0,0.0,0.0,0.0,0.0,0.0,0.0,0.0,0.0,0.0,0.0,0.0,0.0,0.0,0.0,0.0,0.0,0.0,0.0,0.0,0.0,0.0,0.0,0.0,0.0,0.0,0.0,0.0,0.0,0.0,0.0,0.0,0.0,0.0,0.0,0.0,0.0,0.0,0.0,0.0,0.0,0.0,0.0,0.0,0.0,0.0,0.0,0.0,0.0,0.0,0.0,0.0,0.0,0.0,0.0,0.0,0.0,0.0,0.0,0.0,0.0,0.0,0.0,0.0,0.0,0.0,0.0,0.0,0.0,-2.6172,-2.7693,-2.9425,-3.1546,-3.2712,-3.3212,-3.2793,-3.1483,-3.0334,-2.9579,0.0,0.0,0.0,0.0,0.0,0.0,0.0,0.0,0.0,0.0,0.0,0.0,0.0,0.0,0.0,0.0,0.0,0.0,0.0,0.0,0.0,0.0,0.0,0.0,0.0,0.0,0.0,0.0,0.0,0.0,0.0,0.0,0.0,0.0,0.0,0.0,0.0,0.0,0.0,0.0,0.0,0.0,0.0,0.0,0.0,0.0,0.0,0.0,0.0,0.0,0.0,0.0,0.0,0.0,0.0,0.0,0.0,0.0,0.0,0.0,0.0,0.0,0.0,0.0,0.0,0.0,0.0,0.0,0.0,0.0,0.0,0.0,0.0,0.0,0.0,0.0,0.0,0.0,0.0,0.0,0.0,0.0,0.0,0.0,0.0,0.0,0.0,0.0,0.0,0.0,0.0,0.0,0.0,0.0,0.0,0.0,0.0,0.0,0.0,0.0,0.0,0.0,-2.5761,-2.7952,-2.9935,-3.1389,-3.3051,-3.3927,-3.3511,-3.232,-3.1182,-3.0248,0.0,0.0,0.0,0.0,0.0,0.0,0.0,0.0,0.0,0.0,0.0,0.0,0.0,0.0,0.0,0.0,0.0,0.0,0.0,0.0,0.0,0.0,0.0,0.0,0.0,0.0,0.0,0.0,0.0,0.0,0.0,0.0,0.0,0.0,0.0,0.0,0.0,0.0,0.0,0.0,0.0,0.0,0.0,0.0,0.0,0.0,0.0,0.0,0.0,0.0,0.0,0.0,0.0,0.0,0.0,0.0,0.0,0.0,0.0,0.0,0.0,0.0,0.0,0.0,0.0,0.0,0.0,0.0,0.0,0.0,0.0,0.0,0.0,0.0,0.0,0.0,0.0,0.0,0.0,0.0,0.0,0.0,0.0,0.0,0.0,0.0,0.0,0.0,0.0,0.0,0.0,0.0,0.0,0.0,0.0,0.0,0.0,0.0,0.0,0.0,0.0,0.0,-2.5398,-2.8143,-3.0179,-3.0559,-3.2501,-3.3614,-3.3237,-3.2368,-3.1371,-3.03,0.0,0.0,0.0,0.0,0.0,0.0,0.0,0.0,0.0,0.0,0.0,0.0,0.0,0.0,0.0,0.0,0.0,0.0,0.0,0.0,0.0,0.0,0.0,0.0,0.0,0.0,0.0,0.0,0.0,0.0,0.0,0.0,0.0,0.0,0.0,0.0,0.0,0.0,0.0,0.0,0.0,0.0,0.0,0.0,0.0,0.0,0.0,0.0,0.0,0.0,0.0,0.0,0.0,0.0,0.0,0.0,0.0,0.0,0.0,0.0,-1.7862,0.0,0.0,0.0,0.0,0.0,0.0,0.0,0.0,0.0,0.0,0.0,0.0,0.0,0.0,0.0,0.0,0.0,0.0,0.0,0.0,0.0,0.0,0.0,0.0,0.0,0.0,0.0,0.0,0.0,0.0,0.0,0.0,0.0,0.0,0.0,0.0,0.0,0.0,0.0,0.0,0.0,-2.7718,-2.9395,-3.1082,-3.2642,-3.4174,-3.5085,-3.4962,-3.3642,-3.2141,-3.0629,0.0,0.0,0.0,0.0,0.0,0.0,0.0,0.0,0.0,0.0,0.0,0.0,0.0,0.0,0.0,0.0,0.0,0.0,0.0,0.0,0.0,0.0,0.0,0.0,0.0,0.0,0.0,0.0,0.0,0.0,0.0,0.0,0.0,0.0,0.0,0.0,0.0,0.0,0.0,0.0,0.0,0.0,0.0,0.0,0.0,0.0,0.0,0.0,0.0,0.0,0.0,0.0,0.0,0.0,0.0,0.0,0.0,0.0,0.0,0.0,0.0,-1.8357,0.0,0.0,0.0,0.0,0.0,0.0,0.0,0.0,0.0,0.0,0.0,0.0,0.0,0.0,0.0,0.0,0.0,0.0,0.0,0.0,0.0,0.0,0.0,0.0,0.0,0.0,0.0,0.0,0.0,0.0,0.0,0.0,0.0,0.0,0.0,0.0,0.0,0.0,0.0,0.0,-2.812,-3.0056,-3.1739,-3.2696,-3.4219,-3.5107,-3.5107,-3.3621,-3.219,-3.106,-2.9176,0.0,0.0,0.0,0.0,0.0,0.0,0.0,0.0,0.0,0.0,0.0,0.0,0.0,0.0,0.0,0.0,0.0,0.0,0.0,0.0,0.0,0.0,0.0,0.0,0.0,0.0,0.0,0.0,0.0,0.0,0.0,0.0,0.0,0.0,0.0,0.0,0.0,0.0,0.0,0.0,0.0,0.0,0.0,0.0,0.0,0.0,0.0,0.0,0.0,0.0,0.0,0.0,0.0,0.0,-2.1804,-2.2003,-2.2057,-2.2083,-2.2016,-2.0743,-1.976,-1.9118,0.0,0.0,0.0,0.0,0.0,0.0,0.0,0.0,0.0,0.0,0.0,0.0,0.0,0.0,0.0,0.0,0.0,0.0,0.0,0.0,0.0,0.0,0.0,0.0,0.0,-2.4805,-2.4832,0.0,0.0,0.0,0.0,0.0,0.0,0.0,0.0,0.0,0.0,0.0,0.0,-2.8408,-3.061,-3.2109,-3.2244,-3.3469,-3.4229,-3.4229,-3.2842,-3.1687,-3.1135,-2.9302,-2.7996,0.0,0.0,0.0,0.0,0.0,0.0,0.0,0.0,0.0,0.0,0.0,0.0,0.0,0.0,0.0,0.0,0.0,0.0,0.0,0.0,0.0,0.0,0.0,0.0,0.0,0.0,0.0,0.0,0.0,0.0,0.0,0.0,-1.1633,-1.0255,0.0,0.0,0.0,0.0,0.0,0.0,0.0,0.0,0.0,0.0,0.0,0.0,0.0,0.0,-2.1387,-2.2352,-2.2632,-2.2205,-2.3541,-2.3928,-2.3487,-2.3741,-2.3861,-2.3834,-2.338,0.0,-2.0013,-1.9479,0.0,0.0,0.0,0.0,0.0,0.0,0.0,0.0,0.0,0.0,0.0,0.0,0.0,0.0,0.0,0.0,0.0,0.0,0.0,0.0,0.0,0.0,-2.5028,-2.5028,-2.5067,-2.5067,0.0,-2.4238,-2.3594,-2.3159,0.0,0.0,0.0,0.0,0.0,0.0,0.0,0.0,-3.0803,-3.1272,-3.1897,-3.2871,-3.2707,-3.2541,-3.2541,-3.1486,-3.0583,-3.003,-2.9252,-2.8537,-2.8021,-2.7469,0.0,0.0,0.0,0.0,0.0,0.0,0.0,0.0,0.0,0.0,0.0,0.0,0.0,0.0,0.0,0.0,0.0,0.0,0.0,0.0,0.0,0.0,0.0,0.0,0.0,0.0,0.0,0.0,0.0,-1.1419,-1.2239,-0.9377,-1.1587,-1.2697,0.0,0.0,0.0,0.0,0.0,0.0,0.0,0.0,0.0,-2.1176,-2.183,-2.2445,-2.3033,-2.3728,-2.4102,-2.4168,-2.4823,-2.509,-2.5072,-2.513,-2.5184,-2.517,-2.4703,-2.3728,-2.2365,-2.1109,-2.0147,-1.9676,0.0,0.0,0.0,0.0,0.0,-2.6894,-2.7363,0.0,0.0,0.0,0.0,0.0,0.0,0.0,0.0,0.0,0.0,0.0,0.0,0.0,0.0,-2.5449,-2.5625,-2.5742,-2.5488,-2.4941,-2.4316,0.0,-2.3257,-2.3101,-2.3101,0.0,0.0,0.0,0.0,0.0,-3.1113,-3.1386,-3.1687,-3.2491,-3.2365,-3.2089,-3.1788,-3.106,-3.0507,-3.0256,-2.9389,-2.8637,-2.8122,-2.757,-2.7178,0.0,0.0,0.0,0.0,0.0,0.0,0.0,0.0,0.0,0.0,0.0,0.0,0.0,0.0,0.0,0.0,0.0,0.0,0.0,0.0,0.0,0.0,0.0,0.0,0.0,0.0,0.0,0.0,-1.2049,-1.3334,-1.0129,-1.3093,-1.4472,0.0,0.0,0.0,0.0,0.0,0.0,-2.0401,-2.0828,-2.159,-2.2846,-2.3607,-2.4275,-2.4863,-2.5157,-2.5451,-2.5745,-2.5812,-2.5932,-2.6066,-2.6066,-2.6106,-2.6146,-2.5638,-2.5077,-2.4396,-2.2539,-2.1296,-2.0713,-2.2223,-2.3116,0.0,-2.6328,-2.7497,-2.791,-2.8535,-2.8769,-2.8613,-2.7773,0.0,-2.6426,-2.4922,0.0,0.0,0.0,0.0,-2.4355,-2.4621,0.0,-2.5898,-2.5898,-2.6152,-2.6289,-2.5977,-2.5469,-2.4891,0.0,-2.3691,-2.3393,-2.3276,0.0,0.0,0.0,0.0,-2.8326,-3.1032,-3.1386,-3.1662,-3.2365,-3.2164,-3.1838,-3.1411,-3.0783,-3.0407,-3.0407,-2.9628,-2.8825,-2.8122,-2.772,-2.7203,-2.6499,0.0,0.0,0.0,0.0,0.0,0.0,0.0,0.0,0.0,0.0,0.0,0.0,0.0,0.0,0.0,0.0,0.0,0.0,0.0,0.0,0.0,0.0,0.0,0.0,0.0,0.0,0.0,0.0,0.0,-1.4651,-1.7654,0.0,0.0,0.0,0.0,-1.9508,-2.0201,-2.1042,-2.2218,-2.2846,-2.3834,-2.5291,-2.5651,-2.6106,-2.668,-2.6987,-2.6867,-2.6346,-2.6627,-2.6613,-2.6373,-2.6373,-2.652,-2.676,-2.6453,-2.5985,-2.5291,-2.322,-2.2031,-2.1555,-2.1768,-2.2828,-2.4398,-2.5549,-2.6969,-2.8262,-2.832,-2.832,-2.8379,-2.8711,-2.8262,-2.7493,-2.6523,-2.5957,0.0,0.0,-2.5596,-2.5596,-2.5615,-2.6016,-2.6348,-2.6348,-2.6367,-2.6387,-2.6367,-2.5684,-2.4988,0.0,-2.4355,-2.4219,-2.3828,0.0,-2.6788,-2.655,-2.8291,-3.0063,-3.126,-3.1386,-3.1813,-3.296,-3.2064,-3.1411,-3.1386,-3.0432,-2.9829,-2.9829,-2.9779,-2.9252,-2.8147,-2.8072,-2.7544,-2.6524,-2.6474,0.0,0.0,0.0,0.0,0.0,0.0,0.0,0.0,0.0,0.0,0.0,0.0,0.0,0.0,0.0,0.0,0.0,0.0,0.0,0.0,0.0,0.0,0.0,0.0,0.0,0.0,0.0,0.0,-1.5749,-1.9112,0.0,0.0,-1.9702,-2.0855,-2.1443,-2.2044,-2.2979,-2.4342,-2.4796,-2.5438,-2.6333,-2.6827,-2.7175,-2.7388,-2.7495,-2.7348,-2.6961,-2.7054,-2.6854,-2.64,-2.6587,-2.652,-2.6253,-2.5959,-2.5598,-2.5144,-2.4022,-2.3777,-2.4196,-2.4827,-2.5819,-2.7117,-2.8592,-2.9295,-2.957,-2.9863,-2.9961,-2.9844,-2.9141,-2.8164,-2.7148,-2.6562,-2.6074,-2.5752,-2.6074,-2.6152,-2.6211,-2.6484,-2.668,-2.6797,-2.6797,-2.6797,-2.6719,-2.6445,-2.6133,-2.5781,-2.5352,-2.4758,-2.4631,-2.5313,-2.6053,-2.7042,-2.8421,-2.9295,-3.0327,-3.173,-3.1913,-3.1938,-3.1989,-3.1637,-3.111,-3.0432,-3.0005,-2.9628,-2.9252,-2.9227,-2.875,-2.762,-2.757,-2.7218,-2.6499,-2.5762,-2.5385,0.0,0.0,0.0,0.0,0.0,0.0,0.0,0.0,0.0,0.0,0.0,0.0,0.0,0.0,0.0,0.0,0.0,0.0,0.0,0.0,0.0,0.0,0.0,0.0,0.0,0.0,-1.9183,-1.7692,-2.0742,-2.2214,-2.0181,-2.1581,-2.2792,-2.3273,-2.3968,-2.4863,-2.6039,-2.6386,-2.676,-2.7255,-2.7642,-2.7843,-2.7843,-2.7843,-2.7655,-2.7268,-2.7268,-2.6907,-2.6253,-2.644,-2.6266,-2.5798,-2.5598,-2.5291,-2.4903,-2.4502,-2.5201,-2.6481,-2.567,-2.6388,-2.8,-2.8893,-2.9772,-3.0469,-3.0781,-3.0781,-3.0508,-2.9629,-2.8691,-2.7793,-2.7363,-2.7031,-2.6836,-2.6992,-2.7031,-2.7031,-2.7012,-2.7129,-2.7168,-2.6875,-2.6797,-2.6719,-2.6445,-2.6269,-2.6074,-2.5752,-2.5587,-2.5716,-2.64,-2.7167,-2.8162,-2.9574,-3.0121,-3.0776,-3.2056,-3.2215,-3.2139,-3.1989,-3.1612,-3.111,-3.0382,-3.0005,-2.9628,-2.9252,-2.8988,-2.8524,-2.7595,-2.757,-2.7329,-2.6776,-2.5636,-2.5159,-2.5335,0.0,0.0,0.0,0.0,0.0,0.0,0.0,0.0,0.0,0.0,0.0,0.0,0.0,0.0,0.0,0.0,0.0,0.0,0.0,0.0,0.0,0.0,0.0,-1.6167,-1.8191,-2.0,-2.073,-2.2859,-2.3808,-2.2645,-2.3861,-2.4836,-2.5117,-2.5932,-2.668,-2.7268,-2.7562,-2.7843,-2.8221,-2.8221,-2.8221,-2.8207,-2.8207,-2.7913,-2.7255,-2.7268,-2.6814,-2.605,-2.605,-2.5798,-2.5518,-2.5504,-2.517,-2.4623,-2.4623,-2.6126,-2.8022,-2.4118,-2.4466,-2.7008,-2.6404,-2.8206,-3.0898,-3.0898,-3.0586,-3.0215,-3.0195,-2.9922,-2.9492,-2.9043,-2.8906,-2.8809,-2.8398,-2.8301,-2.8105,-2.7266,-2.7363,-2.7532,-2.6621,-2.6426,-2.6426,-2.6387,-2.6055,-2.5713,-2.5693,-2.6764,-2.7479,-2.7083,-2.8857,-3.0252,-2.9947,-3.0794,0.0,-3.2164,-3.224,-3.2441,-3.2993,-3.2064,-3.1411,-3.1361,-3.0407,-2.9779,-2.9754,-2.9202,-2.8587,-2.8072,-2.8047,-2.7795,-2.7278,-2.6163,-2.536,-2.48,0.0,0.0,0.0,0.0,0.0,0.0,0.0,0.0,0.0,0.0,0.0,0.0,0.0,0.0,0.0,0.0,0.0,0.0,0.0,0.0,0.0,0.0,-1.7756,-1.795,-2.0296,-2.2343,-2.339,-2.4877,-2.5571,-2.5037,-2.5932,-2.6493,-2.636,-2.6961,-2.7509,-2.7966,-2.806,-2.814,-2.8221,-2.8221,-2.8043,-2.7829,-2.7816,-2.7522,-2.6947,-2.7161,-2.6921,-2.6266,-2.6266,-2.5985,-2.5504,-2.5291,-2.4863,-2.4329,-2.4329,-2.4487,-2.4925,-2.6344,-2.8452,-3.0747,-3.0564,-3.0672,-3.0898,-3.0898,-3.082,-3.0644,-3.0312,-2.9922,-2.9492,-2.9043,-2.8711,-2.8437,-2.832,-2.8301,-2.8242,-2.8008,-2.8027,-2.7988,-2.7441,-2.7324,-2.72,-2.6523,-2.6289,-2.6113,-2.5752,-2.7437,-2.8868,-2.8736,-2.924,-3.0252,-3.1908,0.0,0.0,-3.2817,-3.2842,-3.2742,-3.2491,-3.2164,-3.1662,-3.0909,-3.0181,-2.9453,0.0,-2.8047,-2.7494,-2.6977,-2.6952,-2.6675,-2.6063,-2.6197,-2.5762,0.0,0.0,0.0,0.0,0.0,0.0,0.0,0.0,0.0,0.0,0.0,0.0,0.0,0.0,0.0,0.0,0.0,0.0,0.0,0.0,0.0,0.0,-1.8179,-2.0131,-2.0879,-2.2392,-2.3821,-2.4877,-2.5718,-2.6186,-2.6146,-2.6827,-2.7201,-2.7028,-2.7549,-2.7963,-2.8221,-2.8221,-2.8221,-2.8221,-2.8221,-2.814,-2.7883,-2.7762,-2.7468,-2.7001,-2.7054,-2.6707,-2.6026,-2.6026,-2.5705,0.0,-2.497,-2.4556,-2.4022,-2.4022,-2.4566,0.0,0.0,0.0,0.0,0.0,-3.1328,-3.0898,-3.0898,-3.0762,-3.0547,-3.0293,-2.9922,-2.9492,-2.9043,-2.875,-2.8516,-2.834,-2.8301,-2.8262,-2.8066,-2.8164,-2.8144,-2.7539,-2.7402,-2.7207,-2.6543,-2.625,-2.6035,-2.5732,0.0,0.0,-2.9235,-3.0283,-3.1424,-3.2896,-3.3111,-3.3111,0.0,-3.3111,-3.2842,-3.2265,-3.2014,-3.1537,-3.0683,-3.0105,0.0,0.0,0.0,-2.7369,-2.6876,-2.6851,0.0,0.0,0.0,-2.6072,0.0,0.0,0.0,0.0,-2.5659,-2.6585,0.0,0.0,0.0,0.0,0.0,0.0,0.0,0.0,0.0,0.0,0.0,0.0,0.0,0.0,0.0,0.0,-2.0721,-2.2712,-2.4195,-2.4396,-2.469,-2.5464,-2.5852,-2.6159,-2.6413,-2.6974,-2.7321,-2.7321,-2.7913,-2.8221,-2.8221,0.0,0.0,0.0,0.0,-2.8207,-2.8181,-2.7802,-2.7509,-2.7215,-2.6921,-2.6346,-2.5558,-2.5531,-2.5211,-2.469,-2.4649,-2.4302,-2.3768,-2.3768,-2.548,-2.7884,-2.6333,-2.6456,-2.7713,-3.0009,-3.0898,0.0,0.0,0.0,0.0,-3.0137,-2.9844,-2.9414,-2.8984,-2.8848,-2.8769,-2.8398,-2.8301,-2.8203,-2.7885,-2.8008,-2.8086,-2.7226,-2.7012,-2.6894,-2.6406,-2.6016,-2.5693,-2.5693,-2.5917,-2.6791,-2.905,-3.1247,-3.281,-3.3068,-3.3111,0.0,-3.3111,-3.3111,-3.2842,-3.2265,0.0,0.0,-3.0658,-3.0105,-2.9553,-2.8938,-2.8423,-2.7871,-2.7293,-2.7293,-2.7278,-2.7228,-2.6751,-2.6248,-2.5686,-2.5686,-2.5686,-2.5686,-2.5786,-2.6974,0.0,0.0,0.0,0.0,0.0,0.0,0.0,0.0,0.0,0.0,0.0,0.0,0.0,0.0,0.0,-1.9504,-2.1842,-2.3941,-2.5411,-2.5611,-2.5678,-2.5852,-2.6333,-2.668,-2.6734,-2.7268,-2.7615,-2.7615,-2.7949,-2.8221,-2.8221,-2.8221,0.0,-2.8221,-2.8221,-2.8114,-2.7789,-2.7495,-2.7201,-2.6907,0.0,0.0,-2.5865,-2.5625,-2.5331,-2.4983,-2.4743,-2.4302,-2.3768,-2.3768,-2.5149,-2.7352,-2.9823,-3.0696,-3.0645,-3.0839,-3.0898,-3.0898,-3.0898,-3.0586,-3.0137,-2.9805,-2.9394,-2.8965,-2.8535,-2.8418,0.0,-2.832,-2.8301,-2.8281,-2.8184,-2.8223,-2.8086,-2.7226,-2.7012,-2.6797,-2.5986,-2.5752,-2.5693,-2.5693,-2.7295,-2.8866,-2.9326,-2.9829,-3.0777,-3.281,-3.3111,-3.3111,-3.3111,-3.3111,-3.2842,-3.2265,-3.2114,-3.1662,-3.0708,-3.0105,-2.9553,-2.8938,-2.8423,-2.7871,-2.7293,-2.7293,-2.7102,-2.665,-2.6549,-2.6449,-2.6323,-2.6323,-2.6323,-2.6323,-2.6982,-2.7899,0.0,0.0,0.0,0.0,0.0,0.0,0.0,0.0,0.0,0.0,0.0,-1.5149,0.0,0.0,-1.9702,-2.1912,-2.3366,-2.4609,-2.5798,-2.6079,-2.6172,-2.6172,-2.656,-2.676,-2.6613,-2.7268,-2.7642,-2.7495,-2.7896,-2.8221,-2.8221,-2.8003,-2.7923,-2.7923,-2.7776,-2.7629,-2.7482,-2.7188,-2.6894,-2.66,-2.6306,-2.5945,-2.5518,-2.5358,-2.513,-2.4836,-2.4543,-2.4168,-2.387,-2.5117,-2.6141,-2.7201,-3.0541,-3.1582,-3.1172,-3.0976,-3.0898,-3.0898,-3.0898,-3.0449,-2.9844,-2.9704,-2.9141,-2.8574,-2.8359,-2.8301,-2.8301,-2.8301,-2.8301,-2.8301,-2.8301,-2.8301,-2.8125,-2.75,-2.7168,-2.6836,-2.6211,-2.5898,-2.5693,-2.5693,-2.722,-2.868,-2.9326,-2.9897,-3.0956,-3.281,-3.3111,-3.3111,-3.3111,-3.3111,-3.2842,-3.2265,-3.1964,-3.1486,-3.0683,-2.9854,-2.9227,-2.8913,-2.8423,-2.7971,-2.7695,-2.7419,-2.7178,-2.6927,-2.6625,-2.6499,-2.6499,-2.6499,-2.6499,-2.6499,-2.6918,-2.7769,0.0,0.0,0.0,0.0,0.0,0.0,0.0,0.0,-1.3177,-1.5393,-1.638,-1.7499,-1.9764,-2.0394,-2.1445,-2.4216,-2.4823,-2.5157,-2.5932,-2.6239,-2.6373,-2.6319,-2.656,-2.6667,-2.6493,-2.7161,-2.7522,-2.7281,-2.7899,-2.8207,-2.814,-2.7829,-2.7722,-2.7789,-2.7442,-2.7295,-2.7348,-2.7001,-2.6707,-2.6466,-2.6119,-2.5678,-2.5157,-2.5104,-2.4917,-2.4549,-2.4262,-2.3955,-2.3833,-2.5822,-2.6713,-2.7137,-2.9642,-3.0715,-3.0898,-3.0898,-3.0898,-3.0898,-3.0898,-3.0312,-2.9626,-2.9626,-2.8984,-2.8301,-2.8301,-2.8301,-2.8301,-2.8301,-2.8301,-2.8281,-2.8184,-2.8223,-2.8164,-2.7656,-2.7324,-2.7031,-2.6602,-2.6172,-2.5849,-2.5927,-2.6818,-2.8023,-2.93,-3.0464,-3.1645,-3.2896,-3.3111,-3.3111,-3.3111,-3.3111,-3.2842,-3.2265,-3.1712,-3.1135,-3.0507,-2.959,-2.9063,-2.9063,-2.8674,-2.8373,-2.8273,-2.7846,-2.7494,-2.7293,-2.6876,-2.66,-2.6499,-2.6499,-2.6499,-2.6499,-2.6499,-2.733,-1.1875,-1.2063,-1.2516,-1.3034,-1.326,-1.4056,0.0,0.0,-1.7673,-1.9934,-2.1019,-2.1713,-2.2017,-2.3183,-2.4229,-2.4943,-2.5464,-2.5932,-2.6293,-2.6373,-2.6293,-2.6039,-2.6266,-2.6533,-2.6747,-2.7108,-2.7308,-2.7268,-2.7899,-2.8114,-2.7762,-2.7722,-2.7816,-2.8167,-2.7631,-2.7388,-2.7642,-2.7094,-2.68,-2.6774,-2.6226,-2.5785,-2.5451,-2.5197,-2.4917,-2.4609,-2.4062,-2.3647,-2.334,-2.3365,-2.4782,-2.69,-2.731,-2.885,-3.0898,-3.0898,-3.0898,-3.0898,-3.0898,-3.0312,-2.9626,-2.9626,-2.8984,-2.8301,-2.8301,-2.8301,-2.8301,-2.8301,-2.8301,-2.8203,-2.7885,-2.8008,-2.8086,-2.7285,-2.7344,-2.7532,-2.7031,-2.6621,-2.6426,-2.6797,-2.7244,-2.8083,-2.9628,-3.065,-3.1645,-3.2896,-3.3111,-3.3111,-3.3111,-3.3111,-3.2842,-3.2265,-3.1712,-3.0984,-2.998,-2.9754,-2.9704,-2.9704,-2.9628,-2.9377,-2.8813,-2.8737,-2.8273,-2.7329,-2.7218,-2.6977,-2.6499,-2.6499,-2.6499,-2.6499,-2.6499,-2.696,-1.4785,0.0,0.0,0.0,-1.6048,-1.6681,-1.8998,-1.9063,-1.9311,-2.1648,-2.2699,-2.3367,-2.3875,-2.4329,-2.485,0.0,-2.5504,-2.5545,-2.5838,-2.5732,-2.5518,-2.5224,-2.5291,-2.5625,-2.6253,-2.6734,-2.7081,-2.7255,-2.7655,-2.7909,-2.7949,-2.7789,-2.7682,-2.7712,-2.7228,-2.6987,-2.6934,-2.6694,-2.6493,-2.6319,-2.6079,-2.5705,-2.5251,-2.513,-2.473,-2.4115,-2.3688,-2.334,-2.3102,-2.3798,-2.5161,-2.6947,-2.7736,-2.9252,-3.0898,-3.0898,-3.0898,-3.0898,-3.0898,-3.0312,-2.9626,-2.9626,-2.8984,-2.8301,-2.8301,-2.8301,-2.8301,-2.8301,-2.8301,-2.8203,-2.7826,-2.7793,-2.7832,-2.748,-2.7344,-2.7305,-2.7383,-2.7051,-2.6797,-2.6973,-2.7681,-2.8673,-2.9806,-3.1136,-3.2298,-3.2996,-3.3111,-3.3111,-3.3111,-3.3111,-3.2842,-3.2265,-3.1712,-3.1085,-3.0331,-2.998,-2.9804,-2.9804,-2.9804,-2.9679,-2.9428,-2.9063,-2.8549,-2.777,-2.7444,-2.7052,-2.6499,-2.6499,-2.6499,-2.6499,-2.6499,-2.6952,-1.682,0.0,0.0,-1.8266,-1.8751,-1.9248,-2.0932,-2.0773,-2.092,-2.2881,-2.3581,-2.4115,-2.4823,-2.485,-2.497,-2.5611,-2.5424,-2.5251,-2.5371,-2.5144,-2.4823,-2.4449,-2.4329,-2.4556,-2.5277,-2.6026,-2.6587,-2.6881,-2.7255,-2.7589,-2.7966,-2.7615,-2.7428,-2.7388,-2.6947,-2.664,-2.6507,-2.6346,-2.6159,-2.6037,-2.5798,-2.5491,-2.5077,-2.4917,-2.4409,-2.3634,-2.342,-2.31,-2.2862,-2.428,-2.5615,-2.6909,-2.8316,-2.9707,-3.0898,-3.0898,-3.0898,-3.0898,-3.0898,-3.0312,-2.9626,-2.9626,-2.8984,-2.8301,-2.8301,-2.8301,-2.8301,-2.8301,-2.8301,-2.8203,-2.7826,-2.7806,-2.7865,-2.7748,-2.7519,-2.7422,-2.7669,-2.7422,-2.7187,-2.7187,-2.7763,-2.876,-3.0179,-3.1384,-3.2484,-3.3427,-3.3395,-3.3244,-3.3136,-3.3111,-3.2842,-3.2265,-3.1712,-3.1185,-3.0658,-3.0105,-2.9804,-2.9804,-2.9804,-2.9804,-2.9804,-2.9377,-2.89,-2.8348,-2.7795,-2.7278,-2.6725,-2.6575,-2.6499,-2.6499,-2.6499,-2.6816,0.0,0.0,-1.8273,-1.9754,-2.0842,-2.1724,-2.2605,-2.3033,-2.3363,-2.4035,-2.4182,-2.4289,-2.4596,-2.4877,-2.5077,-2.5104,-2.5331,-2.5411,-2.513,-2.4836,-2.4436,-2.3861,-2.3541,-2.3487,0.0,-2.4877,-2.5678,-2.5972,-2.6533,-2.6974,-2.7281,-2.7014,-2.7108,-2.7669,-2.6854,-2.6533,-2.6814,-2.6253,-2.6037,-2.6023,-2.5384,-2.5104,-2.5064,-2.4489,-2.3901,-2.334,-2.3327,-2.2979,-2.2566,-2.4194,-2.5476,-2.6591,-2.8272,-2.9707,-3.0898,-3.0898,-3.0898,-3.0898,-3.0898,-3.0312,-2.9626,-2.9626,-2.8984,-2.8301,-2.8301,-2.8301,-2.8301,-2.8301,-2.8301,-2.8203,-2.7826,-2.7969,-2.8164,-2.7806,-2.7969,-2.8144,-2.7806,-2.7708,-2.7708,-2.7708,-2.7356,-2.8006,-3.0938,-3.1188,-3.1782,-3.4289,-3.4223,-3.3671,-3.3187,-3.3111,-3.2842,-3.2265,-3.1712,-3.1185,-3.0658,-3.0105,-2.9804,-2.9804,-2.9804,-2.9804,-2.9804,-2.9779,-2.9503,-2.8888,-2.8373,-2.7821,-2.7243,-2.6751,-2.6499,-2.6499,-2.6499,-2.6499,-1.7555,0.0,-1.974,-2.1082,-2.1764,-2.2365,-2.326,-2.3394,-2.338,-2.3581,-2.33,-2.3046,-2.314,-2.3086,-2.3153,-2.3541,-2.3861,-2.4102,-2.4195,-2.4128,-2.3768,-2.2966,-2.314,0.0,0.0,0.0,0.0,-2.5598,-2.6026,-2.6453,-2.6947,-2.7068,-2.7121,-2.7121,-2.6827,-2.6533,-2.6253,-2.6052,-2.5852,-2.5651,-2.5264,-2.5077,-2.505,-2.4275,-2.3808,-2.3581,-2.2993,-2.2605,-2.2539,-2.3963,-2.526,-2.6575,-2.8272,-2.9707,-3.0898,-3.0898,-3.0898,-3.084,-3.0527,-3.0059,-2.9531,-2.9238,-2.875,-2.8301,-2.8301,-2.8301,-2.8301,-2.8301,-2.8301,-2.8203,-2.7826,-2.7826,-2.7904,-2.7748,-2.7826,-2.7832,-2.7748,-2.7943,-2.8008,-2.7767,-2.7773,-2.8609,-3.1092,-3.1676,-3.2469,-3.4392,-3.4248,-3.3696,-3.3144,-3.3111,-3.2993,-3.2817,-3.2265,-3.1712,-3.1185,-3.0633,-3.0181,-2.9804,-2.9804,-2.9804,-2.9804,-2.9804,-2.9528,-2.8888,-2.8373,-2.8021,-2.7821,-2.7268,-2.7027,-2.7027,-2.7027,-2.7138,-1.8502,-1.9746,-2.0989,-2.2164,-2.2686,-2.3073,-2.3768,-2.3607,-2.33,-2.318,-2.2605,-2.2071,-2.1977,-2.171,-2.1643,-2.2017,-2.2432,-2.2832,-2.3233,-2.3193,-2.3033,-2.2779,-2.2899,0.0,0.0,0.0,0.0,-2.5117,-2.5571,-2.6052,-2.664,-2.6854,-2.6907,-2.6827,-2.6613,-2.6386,-2.6119,-2.5905,-2.5651,-2.5358,-2.4957,-2.4716,-2.4583,-2.3915,-2.3554,-2.3407,-2.2712,-2.2686,-2.3214,-2.455,-2.5911,-2.7313,-2.8926,-3.013,-3.0898,-3.0898,-3.0781,-3.0605,-3.0293,-2.9922,-2.9492,-2.9062,-2.8633,-2.8301,-2.8301,-2.8301,-2.8301,-2.8301,-2.8301,-2.8223,-2.7969,-2.7891,-2.7891,-2.7891,-2.7891,-2.7904,-2.7748,-2.7988,-2.8164,-2.7806,-2.8008,-2.8906,-3.0774,-3.2179,-3.3469,-3.4761,-3.455,-3.3922,-3.3169,-3.3111,-3.3111,-3.3111,-3.2566,-3.1989,-3.1436,-3.0909,-3.0382,-2.9829,-2.9804,-2.9804,-2.9804,-2.9804,-2.9628,-2.9252,-2.8674,-2.8398,-2.8361,-2.7846,-2.757,-2.757,-2.7369,-2.7383,-1.9813,-2.0949,-2.1924,-2.306,-2.3554,-2.3821,-2.4075,-2.3688,-2.3166,-2.2819,-2.211,-2.14,0.0,0.0,-2.0601,-2.0628,-2.1226,-2.1777,-2.2378,-2.2258,-2.2405,0.0,0.0,0.0,0.0,0.0,0.0,-2.4569,0.0,-2.5718,-2.6306,-2.6373,-2.6507,-2.6774,-2.6266,-2.6092,-2.6346,-2.5772,-2.5344,-2.505,-2.4476,-2.4062,-2.3781,-2.3474,-2.3153,-2.2914,-2.2539,-2.3134,-2.4486,-2.5832,-2.72,-2.8545,-3.0236,-3.0859,-3.0898,-3.0859,-3.0586,-3.0195,-3.0176,-2.9883,-2.9473,-2.9023,-2.8613,-2.8301,-2.8301,-2.8301,-2.8301,-2.8301,-2.8301,-2.8301,-2.8301,-2.8301,-2.8301,-2.8301,-2.8301,-2.8184,-2.7806,-2.7988,-2.8164,-2.7806,-2.8166,-2.89,-3.0172,-3.2705,-3.4727,-3.5347,-3.5006,-3.4324,-3.3269,-3.3136,-3.3111,-3.3111,-3.2591,-3.2014,-3.1436,-3.0934,-3.0407,-2.9829,-2.9804,-2.9804,-2.9804,-2.9804,-2.9804,-2.9804,-2.9227,-2.8913,-2.8938,-2.8423,-2.8147,-2.8147,-2.762,-2.7344,-2.0708,-2.1857,-2.3006,-2.3527,-2.3554,-2.3394,-2.3233,-2.2752,-2.2124,-2.139,-2.0596,-1.9706,0.0,0.0,0.0,-1.996,-2.1069,0.0,-2.2979,-2.3407,0.0,-2.3661,0.0,-2.4048,-2.3981,-2.4102,0.0,0.0,-2.4903,-2.5117,-2.5705,-2.6146,-2.6319,-2.6186,-2.6239,-2.6106,-2.5745,-2.5371,-2.5037,-2.4743,-2.4382,-2.4168,-2.4075,-2.3567,-2.3153,-2.2901,-2.2325,-2.2893,-2.422,-2.5525,-2.7039,-2.8509,-2.9833,-3.0586,-3.0859,-3.0508,-3.0293,-3.0156,-2.9844,-2.9453,-2.9023,-2.8594,-2.8379,-2.8301,-2.8301,-2.8301,-2.8301,-2.8301,-2.8301,-2.8301,-2.8301,-2.8301,-2.8301,-2.8301,-2.8301,-2.8184,-2.7806,-2.7988,-2.8164,-2.7806,-2.9653,-3.1367,-3.1724,-3.4044,-3.5702,-3.4986,-3.4781,-3.4474,-3.3771,-3.3345,-3.3111,-3.3111,-3.2943,-3.2466,-3.1461,-3.126,-3.0783,-2.9854,-2.9804,-2.9804,-2.9804,-2.9804,-2.9804,-2.9804,-2.9227,-2.9113,-2.9578,-2.9001,-2.8687,-2.8687,-2.8574,-2.8072,-2.1897,-2.2886,-2.3728,-2.3768,-2.3554,-2.318,-2.2605,-2.1924,-2.1162,-2.0281,-1.9399,0.0,0.0,0.0,0.0,0.0,0.0,0.0,-2.2592,-2.3367,-2.3955,0.0,-2.4636,0.0,-2.4783,-2.481,-2.4957,0.0,-2.5117,-2.5224,-2.5678,-2.6026,-2.6132,-2.6037,-2.5985,-2.5838,-2.5518,-2.5224,-2.4997,-2.4823,-2.4275,-2.4008,-2.3995,-2.3394,-2.2953,-2.2645,0.0,-2.3142,-2.5078,-2.5766,-2.7374,-2.9571,-3.0238,-3.0527,-3.0547,-3.0293,-2.9961,-2.9609,-2.9375,-2.9004,-2.8613,-2.8359,-2.8301,-2.8301,-2.8301,-2.8301,-2.8301,-2.8301,-2.8301,-2.8301,-2.8301,-2.8301,-2.8301,-2.8301,-2.8301,-2.8223,-2.7988,-2.8125,-2.8223,-2.7988,-2.985,-3.1622,-3.218,-3.4093,-3.5443,-3.5111,-3.4831,-3.4525,-3.3972,-3.342,-3.3111,-3.3111,-3.3111,-3.2616,-3.1486,-3.1386,-3.0934,-2.9854,-2.9804,-2.9804,-2.9804,-2.9804,-2.9804,-2.9804,-2.9478,-2.9478,-2.9804,-2.9478,-2.9302,-2.9302,-2.9013,-2.8473,-2.314,-2.3848,-2.4195,-2.3901,-2.3541,-2.302,-2.2084,-2.1162,-2.0267,-1.9426,0.0,-1.7822,-1.7528,-1.7528,-1.7716,-1.8049,0.0,-2.0681,-2.1977,-2.2873,-2.3821,-2.4997,-2.5144,-2.5264,-2.5598,-2.5371,-2.5317,-2.5611,-2.5598,-2.5678,-2.5945,-2.6037,-2.601,-2.597,-2.5611,-2.5451,-2.5451,-2.5211,-2.5037,-2.4957,-2.4155,-2.3754,-2.3688,-2.3086,-2.2645,-2.2352,0.0,0.0,-2.6042,-2.5978,-2.7811,-3.0567,-3.0762,-3.0547,-3.0195,-3.0137,-2.9609,-2.8926,-2.8926,-2.8652,-2.8301,-2.8301,-2.8301,-2.8301,-2.8301,-2.8301,-2.8301,-2.8301,-2.8301,-2.8301,-2.8301,-2.8301,-2.8301,-2.8301,-2.8301,-2.8301,-2.8301,-2.8301,-2.8335,-2.8548,-2.967,-3.0979,-3.2331,-3.3773,-3.4848,-3.5444,-3.5031,-3.4525,-3.3972,-3.342,-3.3111,-3.3111,-3.3111,-3.2616,-3.1486,-3.1386,-3.0934,-2.9854,-2.9804,-2.9804,-2.9804,-2.9804,-2.9804,-2.9804,-2.9804,-2.9804,-2.9804,-2.9804,-2.9804,-2.9779,-2.9277,-2.8662,-2.3861,-2.4302,-2.4489,-2.4195,-2.3527,-2.2645,-2.1523,-2.0401,0.0,0.0,-1.8116,-1.7502,-1.6954,-1.7248,-1.7849,-1.8637,0.0,0.0,0.0,0.0,-2.4128,0.0,0.0,0.0,0.0,0.0,0.0,0.0,0.0,0.0,-2.6037,-2.6037,-2.5838,-2.5598,-2.5304,-2.5157,-2.5157,-2.5104,-2.4836,-2.4356,-2.3955,-2.3647,-2.338,-2.2766,-2.2338,-2.2044,0.0,0.0,-2.4193,-2.5468,-2.7134,-2.8943,-2.9911,-3.0273,-3.0156,-2.9805,-2.9355,-2.8926,-2.8926,-2.8652,-2.8301,-2.8301,-2.8301,-2.8301,-2.8301,-2.8301,-2.8301,-2.8301,-2.8301,-2.8301,-2.8301,-2.8301,-2.8301,-2.8301,-2.8301,-2.8301,-2.8301,-2.8301,-2.8654,-2.9755,-3.103,-3.2381,-3.3822,-3.5162,-3.5921,-3.5537,-3.5031,-3.4525,-3.3972,-3.342,-3.3111,-3.3111,-3.3111,-3.2616,-3.1486,-3.1386,-3.0934,-2.9854,-2.9804,-2.9804,-2.9804,-2.9804,-2.9804,-2.9804,-2.9804,-2.9804,-2.9804,-2.9804,-2.9804,-2.9804,-2.9679,-2.9101,-2.4275,-2.4636,-2.473,-2.4128,-2.33,-2.2245,-2.0762,0.0,0.0,0.0,-1.7208,-1.682,-1.654,0.0,0.0,0.0,0.0,0.0,0.0,0.0,0.0,0.0,0.0,0.0,0.0,0.0,0.0,0.0,0.0,0.0,-2.6037,-2.5665,-2.5438,-2.5291,-2.501,-2.493,-2.5077,-2.4783,-2.4476,-2.4195,-2.3754,-2.338,-2.3073,-2.2619,-2.2178,-2.175,0.0,0.0,-2.4901,-2.568,-2.7452,-2.9747,-3.0335,-3.0273,-2.9844,-2.9648,-2.916,-2.8594,-2.8594,-2.8457,-2.8301,-2.8301,-2.8301,-2.8301,-2.8301,-2.8301,-2.8301,-2.8301,-2.8301,-2.8301,-2.8301,-2.8301,-2.8301,-2.8301,-2.8301,-2.8301,-2.8301,-2.8301,-2.8495,-2.9164,-3.0927,-3.2482,-3.3204,-3.5017,-3.6182,-3.5583,-3.5031,-3.4525,-3.3972,-3.342,-3.3111,-3.3111,-3.2817,-3.229,-3.1461,-3.1135,-3.0658,-2.9854,-2.9804,-2.9804,-2.9804,-2.9804,-2.9804,-2.9804,-2.9804,-2.9804,-2.9804,-2.9804,-2.9804,-2.9779,-2.9478,-2.9314,-2.4382,-2.4756,-2.481,-2.4048,-2.3086,-2.1884,-2.0187,-1.9025,0.0,0.0,-1.6473,-1.6321,-1.6321,0.0,-1.6727,0.0,0.0,0.0,0.0,0.0,0.0,0.0,0.0,0.0,0.0,0.0,0.0,0.0,0.0,0.0,0.0,-2.5331,-2.505,-2.4983,-2.4703,-2.4663,-2.489,-2.4369,-2.4075,-2.4008,-2.3474,-2.306,-2.2752,-2.2392,-2.1991,-2.1614,0.0,0.0,0.0,-2.5863,-2.7751,-3.0392,-3.0665,-3.0273,-2.9607,-2.9473,-2.8945,-2.8301,-2.8301,-2.8301,-2.8301,-2.8301,-2.8301,-2.8301,-2.8301,-2.8301,-2.8301,-2.8301,-2.8301,-2.8301,-2.8301,-2.8301,-2.8301,-2.8301,-2.8301,-2.8301,-2.8301,-2.8301,-2.8388,-2.8654,-3.0669,-3.2381,-3.2682,-3.48,-3.6254,-3.578,-3.5152,-3.4575,-3.4123,-3.3495,-3.3111,-3.3111,-3.2667,-3.2164,-3.1612,-3.1085,-3.0557,-3.0005,-2.9854,-2.9804,-2.9804,-2.9804,-2.9804,-2.9804,-2.9804,-2.9804,-2.9804,-2.9804,-2.9804,-2.9779,-2.9327,-2.9439,-2.4088,-2.4462,-2.4596,-2.4249,-2.3086,-2.163,-2.0134,0.0,0.0,-1.6834,-1.6473,-1.6321,-1.6321,-1.6348,-1.6549,0.0,0.0,-1.841,0.0,0.0,0.0,0.0,0.0,0.0,0.0,0.0,0.0,0.0,0.0,0.0,0.0,-2.5104,-2.4957,-2.469,-2.4396,-2.4262,-2.4289,-2.3968,-2.3674,-2.3407,-2.3073,-2.2752,-2.2445,-2.1884,-2.1668,-2.1601,0.0,0.0,0.0,-2.5375,-2.7013,-2.8747,-2.9815,-2.998,-2.9531,-2.9121,-2.8691,-2.8301,-2.8301,-2.8301,-2.8301,-2.8301,-2.8301,-2.8301,-2.8301,-2.8301,-2.8301,-2.8301,-2.8301,-2.8301,-2.8301,-2.8301,-2.8301,-2.8301,-2.8301,-2.8301,-2.8301,-2.8301,-2.8654,-2.9859,-3.1265,-3.2705,-3.397,-3.5427,-3.638,-3.6355,-3.5403,-3.4655,-3.4605,-3.3721,-3.3111,-3.3111,-3.3061,-3.2767,-3.219,-3.1637,-3.111,-3.0583,-3.008,-2.9804,-2.9804,-2.9804,-2.9804,-2.9804,-2.9804,-2.9804,-2.9804,-2.9804,-2.9804,-2.9804,-2.9729,-2.9466,-2.5115,-2.6099,-2.6676,-2.709,-2.5323,-2.3073,-2.1466,0.0,-1.7152,-1.6339,-1.6086,-1.6005,-1.6005,-1.6005,-1.6086,0.0,0.0,0.0,0.0,0.0,0.0,0.0,0.0,0.0,0.0,0.0,0.0,0.0,0.0,0.0,0.0,-2.4462,-2.4422,-2.4128,-2.3995,-2.3941,-2.3941,-2.346,-2.3166,-2.3046,-2.2565,-2.2178,-2.1884,-2.1722,-2.202,-2.2777,0.0,0.0,0.0,-2.6892,-2.8007,-2.9506,-2.9754,-2.9551,-2.916,-2.8984,-2.8652,-2.8301,-2.8301,-2.8301,-2.8301,-2.8301,-2.8301,-2.8301,-2.8301,-2.8301,-2.8301,-2.8301,-2.8301,-2.8301,-2.8301,-2.8301,-2.8301,-2.8301,-2.8301,-2.8301,-2.8301,-2.8301,-2.8708,-3.0068,-3.1367,-3.2733,-3.419,-3.5523,-3.6304,-3.5906,-3.5203,-3.46,-3.4274,-3.3545,-3.3111,-3.3111,-3.2767,-3.2466,-3.224,-3.1712,-3.116,-3.0658,-3.0407,-3.0131,-2.9804,-2.9804,-2.9804,-2.9804,-2.9804,-2.9804,-2.9804,-2.9804,-2.9804,-2.9779,-2.9428,-2.9643,-2.5152,-2.6777,-2.7996,-2.8695,-2.6324,-2.3536,0.0,0.0,-1.6794,-1.5992,-1.5784,-1.5784,-1.5784,-1.5784,-1.5784,0.0,0.0,-1.6754,0.0,0.0,0.0,0.0,0.0,0.0,0.0,0.0,0.0,0.0,0.0,0.0,0.0,-2.3834,-2.3888,-2.3768,-2.3688,-2.3594,-2.35,-2.2993,-2.2686,-2.266,-2.2098,-2.175,-2.1614,-2.1521,-2.1997,0.0,0.0,0.0,0.0,-2.7759,-2.8721,-3.0137,-2.959,-2.9199,-2.8906,-2.8789,-2.8555,-2.8301,-2.8301,-2.8301,-2.8301,-2.8301,-2.8301,-2.8301,-2.8301,-2.8301,-2.8301,-2.8301,-2.8301,-2.8301,-2.8301,-2.8301,-2.8301,-2.8301,-2.8301,-2.8301,-2.8301,-2.8301,-2.8601,-2.9513,-3.0773,-3.2129,-3.3525,-3.4921,-3.5782,-3.5784,-3.5282,-3.4731,-3.4223,-3.3671,-3.3269,-3.3136,-3.2717,-3.2466,-3.2466,-3.1813,-3.1235,-3.0859,-3.0557,-3.0206,-2.9804,-2.9804,-2.9804,-2.9804,-2.9804,-2.9804,-2.9804,-2.9804,-2.9804,-2.9779,-2.9377,-2.9931,-2.3685,-2.5768,-2.7866,-2.7998,-2.5376,-2.2466,0.0,-1.896,-1.654,-1.5952,-1.5784,-1.5784,-1.5784,-1.5784,-1.5784,-1.5784,-1.6313,0.0,0.0,0.0,0.0,0.0,0.0,0.0,0.0,0.0,0.0,0.0,0.0,0.0,0.0,0.0,-2.3474,-2.3768,-2.3487,-2.318,-2.2941,-2.2579,-2.2271,-2.1991,-2.1762,-2.1614,-2.1601,-2.1256,0.0,0.0,0.0,0.0,0.0,-2.7287,-2.8721,-3.0117,-2.9258,-2.8926,-2.8867,-2.8457,-2.8301,-2.8301,-2.8301,-2.8301,-2.8301,-2.8301,-2.8301,-2.8301,-2.8301,-2.8301,-2.8301,-2.8301,-2.8301,-2.8301,-2.8301,-2.8301,-2.8301,-2.8301,-2.8301,-2.8301,-2.8301,-2.8301,-2.8301,-2.8301,-2.9408,-3.0773,-3.2079,-3.3502,-3.4872,-3.6191,-3.5881,-3.5282,-3.4731,-3.4223,-3.3696,-3.3187,-3.3111,-3.3111,-3.3111,-3.2039,-3.1386,-3.1386,-3.0382,-2.9804,-2.9804,-2.9804,-2.9804,-2.9804,-2.9804,-2.9804,-2.9804,-2.9804,-2.9804,-2.9804,-2.9779,-3.0448,-2.4454,-2.6107,-2.7399,-2.8728,-2.6644,-2.4145,-2.3633,-2.0477,-1.7534,-1.7164,-1.6433,-1.5784,-1.5784,-1.5784,-1.5899,-1.6099,-1.646,0.0,0.0,0.0,0.0,0.0,0.0,0.0,0.0,0.0,0.0,0.0,0.0,0.0,0.0,0.0,-2.2539,-2.2832,-2.2752,-2.2565,-2.2271,-2.1977,-2.1777,-2.1748,-2.139,-2.1256,-2.1243,-2.1149,0.0,0.0,0.0,0.0,0.0,-2.8536,-2.9122,-2.9277,-2.8711,-2.8496,-2.8476,-2.834,-2.8301,-2.8301,-2.8301,-2.8301,-2.8301,-2.8301,-2.8301,-2.8301,-2.8301,-2.8301,-2.8301,-2.8301,-2.8301,-2.8301,-2.8301,-2.8301,-2.8301,-2.8301,-2.8301,-2.8301,-2.8301,-2.8301,-2.8548,-2.9513,-3.0016,-3.0721,-3.2079,-3.3453,-3.4412,-3.4414,-3.5071,-3.5307,-3.4756,-3.4248,-3.3822,-3.3646,-3.3294,-3.3111,-3.3111,-3.239,-3.1788,-3.1411,-3.0733,-3.0181,-2.9804,-2.9804,-2.9804,-2.9804,-2.9804,-2.9804,-2.9804,-2.9804,-2.9804,-2.9818,-3.0457,-3.0939,0.0,-2.5954,-2.7123,-2.8536,-2.6631,0.0,0.0,-2.1269,-1.8566,-1.8411,-1.7404,-1.6527,-1.6527,-1.6103,-1.5885,-1.6072,-1.6353,0.0,0.0,0.0,0.0,0.0,0.0,0.0,0.0,0.0,0.0,0.0,0.0,0.0,0.0,0.0,-2.2017,-2.2084,-2.2205,-2.2111,-2.183,-2.1708,-2.1561,-2.139,-2.1203,-2.1109,-2.1109,0.0,0.0,0.0,0.0,0.0,0.0,-2.7995,-2.8663,-2.8887,-2.8457,-2.8301,-2.8301,-2.8301,-2.8301,-2.8301,-2.8301,-2.8301,-2.8301,-2.8301,-2.8301,-2.8301,-2.8301,-2.8301,-2.8301,-2.8301,-2.8301,-2.8301,-2.8301,-2.8301,-2.8301,-2.8301,-2.8301,-2.8301,-2.8301,-2.8301,-2.8548,-2.9355,-2.9964,-3.0721,-3.2079,-3.3453,-3.4461,-3.4557,-3.5291,-3.5579,-3.4781,-3.4424,-3.4048,-3.3646,-3.3294,-3.3111,-3.3111,-3.2541,-3.2064,-3.1712,-3.1009,-3.0457,-3.0105,-2.9905,-2.9804,-2.9804,-2.9804,-2.9804,-2.9804,-2.9804,-2.9804,-2.9818,-3.0381,-3.0939,0.0,-2.5251,0.0,0.0,0.0,0.0,-2.3322,-2.1415,0.0,-1.9633,-1.8688,-1.7777,-1.7731,-1.6716,-1.5927,-1.5858,-1.6112,0.0,0.0,0.0,0.0,0.0,0.0,0.0,0.0,0.0,0.0,0.0,0.0,0.0,0.0,0.0,0.0,-2.1601,-2.1777,-2.179,-2.1588,-2.1588,-2.139,-2.1109,-2.1109,-2.1096,-2.1082,0.0,0.0,0.0,0.0,0.0,0.0,-2.6183,-2.7548,-2.8828,-2.8437,-2.8301,-2.8301,-2.8301,-2.8301,-2.8301,-2.8301,-2.8301,-2.8301,-2.8301,-2.8301,-2.8301,-2.8301,-2.8301,-2.8301,-2.8301,-2.8301,-2.8301,-2.8301,-2.8301,-2.8301,-2.8301,-2.8301,-2.8301,-2.8301,-2.8301,-2.8301,-2.8301,-2.9355,-3.0721,-3.1927,-3.3403,-3.4824,-3.6073,-3.6358,-3.6028,-3.4977,-3.4756,-3.4374,-3.3294,-3.3169,-3.3162,-3.3111,-3.2541,-3.219,-3.2164,-3.1185,-3.0608,-3.0557,-3.0055,-2.9804,-2.9804,-2.9804,-2.9804,-2.9804,-2.9804,-2.9804,-2.9804,-2.9856,-3.0485,-2.3166,0.0,-2.4114,-2.459,-2.3958,-2.3268,0.0,-2.2234,-2.0881,-2.0881,-1.9906,-1.8764,-1.787,-1.7451,-1.7022,-1.6319,-1.6406,0.0,0.0,0.0,0.0,0.0,0.0,0.0,0.0,0.0,0.0,0.0,0.0,0.0,0.0,0.0,0.0,-2.1216,-2.1283,-2.1283,-2.1216,-2.1216,-2.1176,-2.1109,-2.1109,-2.0989,-2.0775,0.0,0.0,0.0,0.0,0.0,-2.4556,-2.6078,-2.7381,-2.8437,-2.834,-2.8301,-2.8301,-2.8301,-2.8301,-2.8301,-2.8301,-2.8301,-2.8301,-2.8301,-2.8301,-2.8301,-2.8301,-2.8301,-2.8301,-2.8301,-2.8301,-2.8301,-2.8301,-2.8301,-2.8301,-2.8301,-2.8301,-2.8301,-2.8301,-2.8301,-2.8301,-2.8301,-2.9355,-3.0411,-3.0721,-3.2805,-3.4532,-3.4824,-3.5763,-3.6304,-3.6053,-3.5604,-3.5056,-3.4399,-3.3947,-3.3545,-3.3119,-3.2541,-3.2039,-3.1612,-3.0984,-3.0432,-3.0005,-2.9854,-2.9804,-2.9804,-2.9804,-2.9804,-2.9804,-2.9804,-2.9804,-2.9818,-3.0533,-3.1003,-2.3101,-2.3237,-2.3496,-2.373,-2.3613,-2.3496,-2.373,-2.293,-2.212,-2.212,0.0,0.0,-1.9497,-1.8902,-1.8194,0.0,-1.7274,0.0,0.0,0.0,0.0,0.0,0.0,0.0,0.0,0.0,0.0,0.0,0.0,0.0,0.0,0.0,0.0,0.0,-2.0975,-2.0975,-2.1109,-2.1109,-2.1109,-2.1109,-2.0975,-2.0828,-2.0668,0.0,0.0,0.0,0.0,0.0,-2.5186,-2.6093,-2.7157,-2.8301,-2.8301,-2.8301,-2.8301,-2.8301,-2.8301,-2.8301,-2.8301,-2.8301,-2.8301,-2.8301,-2.8301,-2.8301,-2.8301,-2.8301,-2.8301,-2.8301,-2.8301,-2.8301,-2.8301,-2.8301,-2.8301,-2.8301,-2.8301,-2.8301,-2.8301,-2.8301,-2.8495,-2.9112,-3.0307,-3.1418,-3.2101,-3.392,-3.5331,-3.5331,-3.5906,-3.6329,-3.6006,-3.5504,-3.4906,-3.4399,-3.3847,-3.3395,-3.3093,-3.2792,-3.2491,-3.219,-3.1411,-3.0834,-3.0532,-3.0055,-2.9804,-2.9804,-2.9804,-2.9804,-2.9804,-2.9804,-2.9804,-2.9804,-3.0305,-3.1007,-2.3101,-2.3496,-2.3848,-2.373,-2.3691,-2.3691,-2.3691,0.0,0.0,0.0,0.0,0.0,0.0,-2.0529,0.0,0.0,0.0,0.0,0.0,0.0,0.0,0.0,0.0,0.0,0.0,0.0,0.0,0.0,0.0,0.0,0.0,0.0,0.0,0.0,-2.0735,-2.0722,-2.0975,-2.0975,-2.0975,-2.0975,-2.0722,-2.0588,-2.0535,-2.0281,0.0,0.0,0.0,0.0,-2.61,-2.61,-2.6987,-2.8301,-2.8301,-2.8301,-2.8301,-2.8301,-2.8301,-2.8281,-2.8223,-2.8242,-2.8281,-2.8223,-2.8242,-2.8301,-2.8301,-2.8301,-2.8301,-2.8301,-2.8301,-2.8301,-2.8301,-2.8301,-2.8301,-2.8301,-2.8301,-2.8301,-2.8301,-2.8301,-2.8708,-3.0068,-3.1367,-3.2733,-3.419,-3.5523,-3.6405,-3.6405,-3.6405,-3.6207,-3.5683,-3.5132,-3.465,-3.4073,-3.352,-3.3212,-3.3136,-3.3111,-3.3043,-3.2943,-3.1964,-3.1311,-3.116,-3.0281,-2.9804,-2.9804,-2.9804,-2.9804,-2.9804,-2.9804,-2.9804,-2.9804,-2.9934,-3.0884,-2.3101,-2.3666,-2.4141,-2.3374,-2.3198,-2.3198,-2.3198,-2.314,0.0,0.0,0.0,0.0,0.0,-2.1454,0.0,0.0,0.0,0.0,0.0,0.0,0.0,0.0,0.0,0.0,0.0,0.0,0.0,0.0,0.0,0.0,0.0,0.0,0.0,0.0,0.0,-2.0321,-2.0374,-2.0374,-2.0374,-2.0374,-2.0321,-2.0174,-1.9933,-1.988,-2.0503,0.0,0.0,-2.3368,-2.61,-2.61,-2.6987,-2.8301,-2.8301,-2.8301,-2.8301,-2.8301,-2.8301,-2.8242,-2.7891,-2.7988,-2.8242,-2.7871,-2.8008,-2.8301,-2.8301,-2.8301,-2.8301,-2.8301,-2.8301,-2.8301,-2.8301,-2.8301,-2.8301,-2.8301,-2.8301,-2.8301,-2.8301,-2.8301,-2.8708,-3.0068,-3.1367,-3.2733,-3.419,-3.5523,-3.6405,-3.6405,-3.6405,-3.638,-3.6279,-3.5755,-3.5157,-3.4605,-3.4098,-3.3596,-3.3162,-3.3111,-3.2867,-3.2365,-3.1738,-3.0984,-3.008,-2.988,-2.9804,-2.9804,-2.9804,-2.9804,-2.9804,-2.9804,-2.9804,-2.9818,-3.062,-3.1156,-2.3101,-2.3374,-2.3588,-2.3198,-2.3432,-2.3769,-2.3555,-2.3257,-2.3101,0.0,0.0,0.0,0.0,0.0,0.0,0.0,0.0,0.0,0.0,0.0,0.0,0.0,0.0,0.0,0.0,0.0,0.0,0.0,0.0,0.0,0.0,0.0,0.0,0.0,0.0,0.0,-2.0,-1.984,-1.992,-2.0227,-2.0067,-1.9933,-1.98,-1.9639,-2.0338,0.0,0.0,-2.4044,-2.6155,-2.6933,-2.7672,-2.8301,-2.8301,-2.8301,-2.8262,-2.8047,-2.7949,-2.793,-2.7787,-2.7845,-2.7969,-2.7988,-2.8125,-2.8301,-2.8301,-2.8301,-2.8301,-2.8301,-2.8301,-2.8301,-2.8301,-2.8301,-2.8301,-2.8301,-2.8301,-2.8301,-2.8301,-2.8301,-2.89,-3.0979,-3.1876,-3.2982,-3.5114,-3.6026,-3.6405,-3.6405,-3.6107,-3.5906,-3.5906,-3.5177,-3.455,-3.4299,-3.3796,-3.3345,-3.3093,-3.3111,-3.2692,-3.1813,-3.126,-3.0608,-2.9829,-2.9804,-2.9804,-2.9804,-2.9804,-2.9804,-2.9804,-2.9804,-2.9804,-2.9804,-3.0254,-3.097,-2.3101,-2.3179,-2.3218,-2.312,-2.3588,-2.4082,-2.3965,-2.3672,-2.3452,0.0,0.0,0.0,0.0,0.0,0.0,0.0,0.0,0.0,0.0,0.0,0.0,0.0,0.0,0.0,0.0,0.0,0.0,0.0,0.0,0.0,0.0,0.0,0.0,0.0,0.0,0.0,-1.9693,-1.9412,-1.9519,-2.0027,-1.98,-1.9693,-1.9693,-1.9466,-2.0199,-2.1699,-2.3151,-2.4654,-2.6209,-2.7577,-2.8144,-2.8144,-2.8027,-2.7988,-2.7949,-2.7637,-2.763,-2.7708,-2.7539,-2.763,-2.7767,-2.8047,-2.8144,-2.8164,-2.8262,-2.8301,-2.8301,-2.8301,-2.8301,-2.8301,-2.8301,-2.8301,-2.8301,-2.8301,-2.8301,-2.8301,-2.8301,-2.8301,-2.9092,-3.1774,-3.228,-3.3181,-3.5906,-3.6405,-3.6355,-3.6182,-3.5931,-3.5583,-3.5332,-3.4726,-3.4198,-3.3922,-3.352,-3.3262,-3.3136,-3.2885,-3.2315,-3.1436,-3.0783,-3.0231,-2.9804,-2.9804,-2.9804,-2.9804,-2.9804,-2.9804,-2.9804,-2.9804,-2.9804,-2.9804,-3.0049,-3.1033,-2.3101,-2.3437,-2.3652,-2.3198,-2.314,-2.3393,-2.4199,-2.4355,0.0,-2.5343,0.0,0.0,0.0,0.0,0.0,0.0,0.0,0.0,0.0,0.0,0.0,0.0,0.0,0.0,0.0,0.0,0.0,0.0,0.0,0.0,0.0,0.0,0.0,0.0,0.0,0.0,-1.9457,-1.9105,-1.9118,-1.9484,-1.947,-1.9457,-1.9457,-1.943,-2.0199,-2.1699,-2.3151,-2.4654,-2.6173,-2.7324,-2.7767,-2.7728,-2.7266,-2.7109,-2.7109,-2.707,-2.7324,-2.7669,-2.7207,-2.7324,-2.7728,-2.7748,-2.7767,-2.7793,-2.8184,-2.8301,-2.8301,-2.8301,-2.8301,-2.8301,-2.8301,-2.8301,-2.8301,-2.8301,-2.8301,-2.8301,-2.8301,-2.8301,-2.9092,-3.1774,-3.228,-3.3181,-3.5906,-3.6405,-3.6182,-3.5633,-3.6006,-3.5931,-3.4901,-3.5107,-3.4981,-3.3997,-3.3872,-3.3646,-3.3162,-3.2114,-3.1486,-3.1411,-3.0432,-2.9829,-2.9804,-2.9804,-2.9804,-2.9804,-2.9804,-2.9804,-2.9804,-2.9804,-2.9804,-2.9818,-3.0696,-3.1646,-2.2676,-2.2871,-2.3027,-2.3081,-2.3101,0.0,0.0,-2.4629,-2.4922,-2.5254,-2.5625,0.0,0.0,0.0,0.0,0.0,0.0,0.0,0.0,0.0,0.0,0.0,0.0,0.0,0.0,0.0,0.0,0.0,0.0,0.0,0.0,0.0,0.0,0.0,0.0,0.0,0.0,-1.8718,-1.8718,-1.8824,-1.8824,-1.8824,-1.8824,-1.9011,-1.9326,-1.9808,-2.2364,-2.3632,-2.4169,-2.6352,-2.7266,-2.7246,-2.709,-2.7012,-2.7012,-2.7012,-2.7129,-2.7285,-2.7383,-2.7519,-2.7767,-2.7969,-2.8047,-2.8086,-2.8242,-2.8301,-2.8242,-2.7988,-2.791,-2.7969,-2.8223,-2.8301,-2.8301,-2.8301,-2.8301,-2.8301,-2.8301,-2.8301,-2.8847,-3.0721,-3.1724,-3.2883,-3.4824,-3.5858,-3.6182,-3.5583,-3.5683,-3.5579,-3.4781,-3.46,-3.4349,-3.3947,-3.3596,-3.3294,-3.3136,-3.2039,-3.1386,-3.1386,-3.0382,-2.9804,-2.9804,-2.9804,-2.9804,-2.9804,-2.9804,-2.9804,-2.9804,-2.9804,-2.9804,-2.9818,-3.0771,-3.1719,-2.2266,-2.2402,-2.2578,-2.2828,0.0,0.0,-2.4563,-2.5059,-2.5469,-2.6152,-2.6328,0.0,0.0,0.0,0.0,0.0,0.0,0.0,0.0,0.0,0.0,0.0,0.0,0.0,0.0,0.0,0.0,0.0,0.0,0.0,0.0,0.0,0.0,0.0,0.0,0.0,0.0,-1.8397,-1.8343,-1.8343,-1.825,-1.8303,-1.8504,-1.8691,-1.8677,-1.867,-2.1729,-2.2926,-2.2892,-2.5643,-2.6738,-2.6621,-2.6621,-2.6621,-2.6621,-2.6621,-2.6699,-2.6875,-2.7305,-2.7461,-2.7519,-2.7949,-2.8008,-2.7891,-2.7891,-2.7891,-2.7832,-2.7539,-2.7461,-2.7519,-2.7812,-2.7891,-2.7891,-2.7891,-2.7988,-2.8086,-2.8086,-2.8203,-2.8754,-3.0375,-3.1563,-3.2837,-3.4462,-3.5664,-3.6153,-3.5357,-3.5382,-3.5182,-3.4324,-3.4173,-3.4098,-3.3922,-3.3395,-3.2993,-3.2817,-3.2089,-3.1512,-3.116,-3.0457,-2.998,-2.9804,-2.9804,-2.9804,-2.9804,-2.9804,-2.9804,-2.9804,-2.9804,-2.9804,-2.9818,-3.0771,-3.1719,-2.1992,-2.2187,-2.25,-2.2519,0.0,0.0,-2.5401,-2.5693,-2.6298,-2.8476,0.0,-2.6269,-2.5791,0.0,0.0,0.0,0.0,0.0,0.0,0.0,0.0,0.0,0.0,0.0,0.0,0.0,0.0,0.0,0.0,0.0,0.0,0.0,0.0,0.0,0.0,0.0,0.0,-1.8129,-1.7982,-1.7969,-1.7716,-1.7889,-1.8477,-1.8477,-1.849,-1.8698,-2.1464,-2.2679,-2.2928,-2.5395,-2.6133,-2.5693,-2.5693,-2.5693,-2.5693,-2.5693,-2.6016,-2.6445,-2.6875,-2.7012,-2.709,-2.7519,-2.7363,-2.7012,-2.7012,-2.7012,-2.7012,-2.7012,-2.7012,-2.7012,-2.7012,-2.7012,-2.7012,-2.7012,-2.7344,-2.7708,-2.7708,-2.8041,-2.8918,-3.1058,-3.1945,-3.2971,-3.5117,-3.6006,-3.6028,-3.4876,-3.5132,-3.4906,-3.3294,-3.4048,-3.45,-3.3947,-3.3395,-3.2842,-3.2265,-3.2215,-3.1763,-3.0683,-3.0608,-3.0357,-2.9804,-2.9804,-2.9804,-2.9804,-2.9804,-2.9804,-2.9804,-2.9804,-2.9804,-2.9818,-3.0771,-3.1719,-2.1836,-2.1758,0.0,-2.3105,0.0,0.0,0.0,-2.6191,0.0,0.0,0.0,0.0,0.0,0.0,0.0,0.0,0.0,0.0,0.0,0.0,0.0,0.0,0.0,0.0,0.0,0.0,0.0,0.0,0.0,0.0,0.0,0.0,0.0,0.0,0.0,0.0,0.0,0.0,-1.7101,-1.7101,-1.7007,-1.7275,-1.7862,-1.8076,-1.8589,-1.9377,-2.1381,-2.2687,-2.352,-2.5218,-2.581,-2.5693,-2.5693,-2.5693,-2.5732,-2.6074,-2.6269,-2.6445,-2.6875,-2.7012,-2.7031,-2.7168,-2.7129,-2.7012,-2.7012,-2.7012,-2.6953,-2.666,-2.6582,-2.6504,-2.6142,-2.6064,-2.622,-2.6875,-2.7109,-2.7207,-2.7207,-2.8296,-2.9466,-3.0112,-3.2167,-3.3972,-3.4631,-3.5295,-3.5508,-3.4826,-3.4831,-3.465,-3.3771,-3.3947,-3.3922,-3.337,-3.3169,-3.3061,-3.2842,-3.2441,-3.1913,-3.121,-3.0809,-3.0357,-2.9804,-2.9804,-2.9804,-2.9804,-2.9804,-2.9804,-2.9804,-2.9804,-2.9804,-2.9818,-3.0771,-3.1719,-2.1562,-2.1562,0.0,-2.3398,-2.4043,-2.4707,-2.6289,0.0,0.0,0.0,0.0,0.0,0.0,0.0,0.0,0.0,0.0,0.0,0.0,0.0,0.0,0.0,0.0,0.0,0.0,0.0,0.0,0.0,0.0,0.0,0.0,0.0,0.0,0.0,0.0,0.0,0.0,0.0,0.0,-1.67,-1.67,-1.6887,-1.7235,-1.7891,-1.8645,-1.955,-2.179,-2.3414,-2.4559,-2.5382,-2.5693,-2.5693,-2.5693,-2.5693,-2.5713,-2.6035,-2.6133,-2.6191,-2.6621,-2.6758,-2.6758,-2.6758,-2.6758,-2.6738,-2.6562,-2.6454,-2.6445,-2.6211,-2.6133,-2.6074,-2.5752,-2.5693,-2.581,-2.6387,-2.6641,-2.6909,-2.7392,-2.8448,-2.96,-3.0444,-3.2262,-3.3839,-3.4168,-3.4771,-3.4981,-3.4474,-3.4198,-3.3947,-3.3621,-3.3571,-3.3445,-3.3119,-3.3111,-3.2935,-3.2441,-3.229,-3.1788,-3.0809,-3.0658,-3.0357,-2.9804,-2.9804,-2.9804,-2.9804,-2.9804,-2.9804,-2.9804,-2.9804,-2.9804,-2.9818,-3.1156,-3.2055,-2.1249,0.0,0.0,-2.3574,-2.4609,0.0,-2.6855,0.0,0.0,0.0,0.0,0.0,0.0,0.0,0.0,0.0,0.0,0.0,0.0,0.0,0.0,0.0,0.0,0.0,0.0,0.0,0.0,0.0,0.0,0.0,0.0,0.0,0.0,0.0,0.0,0.0,0.0,0.0,0.0,0.0,-1.6769,-1.672,-1.6683,-1.7803,-1.8721,-1.9506,-2.2475,-2.4447,-2.5577,-2.5615,-2.5635,-2.5635,-2.5635,-2.5635,-2.5635,-2.5635,-2.5635,-2.5693,-2.6172,-2.6328,-2.6328,-2.6328,-2.6328,-2.625,-2.581,-2.5693,-2.5693,-2.5693,-2.5693,-2.5693,-2.5693,-2.5693,-2.5693,-2.5693,-2.6035,-2.6656,-2.7869,-2.8544,-2.9516,-3.1529,-3.2435,-3.3112,-3.387,-3.4349,-3.4449,-3.3897,-3.3395,-3.3111,-3.3111,-3.3111,-3.3111,-3.3111,-3.3111,-3.2641,-3.1562,-3.1913,-3.1537,-2.9955,-3.0331,-3.0357,-2.9804,-2.9804,-2.9804,-2.9804,-2.9804,-2.9804,-2.9804,-2.9804,-2.9818,-2.9972,-3.1683,-3.2558,-2.166,-2.1816,0.0,0.0,-2.6006,-2.7317,-2.7871,0.0,0.0,0.0,0.0,0.0,0.0,0.0,0.0,0.0,0.0,0.0,0.0,0.0,0.0,0.0,0.0,0.0,0.0,0.0,0.0,0.0,0.0,0.0,0.0,0.0,0.0,0.0,0.0,0.0,-1.9311,-1.9265,-1.8676,0.0,-1.7483,-1.6961,-1.6032,-1.6733,-1.8242,-2.0459,-2.3107,-2.4407,-2.4727,-2.5078,-2.5215,-2.5215,-2.5215,-2.5215,-2.5215,-2.5215,-2.5215,-2.5273,-2.5723,-2.583,-2.583,-2.583,-2.583,-2.581,-2.5713,-2.5693,-2.5693,-2.5693,-2.5693,-2.5693,-2.5693,-2.5693,-2.5693,-2.5693,-2.5752,-2.6201,-2.7461,-2.8873,-3.0317,-3.1757,-3.3262,-3.4289,-3.4505,-3.4274,-3.3897,-3.3345,-3.3144,-3.3111,-3.3111,-3.3111,-3.3111,-3.3111,-3.3111,-3.2792,-3.2089,-3.2139,-3.1712,-3.0507,-3.0557,-3.0357,-2.9804,-2.9804,-2.9804,-2.9804,-2.9804,-2.9804,-2.9804,-2.9804,-3.0177,-3.0895,-3.1315,-3.2272,0.0,0.0,0.0,-2.5156,0.0,0.0,0.0,0.0,0.0,0.0,0.0,0.0,0.0,0.0,0.0,0.0,0.0,0.0,0.0,0.0,0.0,0.0,0.0,0.0,0.0,0.0,0.0,0.0,0.0,0.0,0.0,0.0,0.0,0.0,0.0,0.0,-2.0387,-2.0342,-1.977,-1.8549,-1.7963,-1.7044,-1.5845,-1.7568,-1.9414,-2.1379,-2.3466,-2.4414,-2.4434,-2.4668,-2.4746,-2.4746,-2.4746,-2.4746,-2.4746,-2.4746,-2.4746,-2.4824,-2.5254,-2.541,-2.5449,-2.5615,-2.5693,-2.5693,-2.5693,-2.5693,-2.5693,-2.5693,-2.5693,-2.5693,-2.5693,-2.5693,-2.5693,-2.5693,-2.6159,-2.6935,-2.8168,-2.9597,-3.1085,-3.2346,-3.3325,-3.3922,-3.3922,-3.3696,-3.3395,-3.3162,-3.3111,-3.3111,-3.3111,-3.2842,-3.2667,-3.2667,-3.2416,-3.2039,-3.1486,-3.1436,-3.111,-3.0281,-3.0231,-3.008,-2.9804,-2.9804,-2.9804,-2.9804,-2.9804,-2.9804,-2.9804,-3.0254,-3.0733,-3.1204,-3.2128,-3.3052,0.0,0.0,-2.3783,-2.5781,0.0,0.0,0.0,0.0,0.0,0.0,0.0,0.0,0.0,0.0,0.0,0.0,0.0,0.0,0.0,0.0,0.0,0.0,0.0,0.0,0.0,0.0,0.0,0.0,0.0,0.0,0.0,0.0,0.0,0.0,0.0,-2.2624,-2.1614,-2.1614,-2.0989,-1.9815,-1.8596,-1.7358,-1.6211,-1.905,-2.0778,-2.166,-2.3431,-2.4199,-2.4199,-2.4277,-2.4316,-2.4316,-2.4316,-2.4316,-2.4316,-2.4316,-2.4316,-2.4375,-2.4883,-2.5067,-2.5039,-2.5518,-2.5577,-2.5479,-2.5557,-2.5518,-2.546,-2.546,-2.5518,-2.5625,-2.5625,-2.5635,-2.5693,-2.5693,-2.6668,-2.7908,-2.9143,-3.0169,-3.1311,-3.281,-3.3111,-3.3111,-3.3111,-3.3111,-3.3111,-3.3111,-3.3111,-3.3111,-3.3111,-3.2566,-3.2215,-3.2215,-3.1712,-3.1185,-3.0658,-3.0608,-3.0382,-2.9829,-2.9804,-2.9804,-2.9804,-2.9804,-2.9804,-2.9804,-2.9804,-2.9804,-2.9804,-3.0582,-3.1044,-3.1241,-3.2947,-3.3842,0.0,0.0,0.0,0.0,0.0,0.0,0.0,0.0,0.0,0.0,0.0,0.0,0.0,0.0,0.0,0.0,0.0,0.0,0.0,0.0,0.0,0.0,0.0,0.0,0.0,0.0,0.0,0.0,0.0,0.0,0.0,0.0,-2.2925,-2.2617,-2.2906,0.0,-2.2862,-2.2862,-2.2271,-2.1078,-1.9861,-1.8642,-1.7544,-1.9985,-2.0654,-1.9945,-2.2269,-2.3257,-2.3296,-2.3711,-2.3867,-2.3867,-2.3867,-2.3867,-2.3867,-2.3867,-2.3867,-2.3984,-2.4832,-2.4824,-2.4629,-2.5421,-2.5167,-2.4668,-2.5039,-2.4883,-2.459,-2.459,-2.4863,-2.5156,-2.5156,-2.5449,-2.5693,-2.5693,-2.6668,-2.7908,-2.9143,-2.9533,-3.0328,-3.2655,-3.3111,-3.3111,-3.3111,-3.3111,-3.3111,-3.3111,-3.3111,-3.3111,-3.3111,-3.2566,-3.2215,-3.2215,-3.1712,-3.1185,-3.0658,-3.0608,-3.0382,-2.9829,-2.9804,-2.9804,-2.9804,-2.9804,-2.9804,-2.9804,-2.9804,-2.9804,-2.9804,-2.9934,-3.0419,-3.1204,-3.2272,-3.3192,-2.207,0.0,0.0,0.0,0.0,0.0,0.0,0.0,0.0,0.0,0.0,0.0,0.0,0.0,0.0,0.0,0.0,0.0,0.0,0.0,0.0,0.0,0.0,0.0,0.0,0.0,0.0,0.0,0.0,0.0,0.0,-2.2559,-2.2598,-2.2168,-2.2344,0.0,-2.2441,-2.2676,-2.2263,-2.1284,-2.0747,-1.9906,-1.878,-2.0522,-2.0612,-1.9633,-2.205,-2.3101,-2.312,-2.3296,-2.3418,-2.3418,-2.3418,-2.3418,-2.3418,-2.3418,-2.3418,-2.3516,-2.4141,-2.4238,-2.416,-2.4738,-2.4727,-2.4453,-2.4648,-2.457,-2.4473,-2.4707,-2.4922,-2.5165,-2.5371,-2.5586,-2.5693,-2.5693,-2.611,-2.7078,-2.9004,-2.9943,-3.0956,-3.2742,-3.3111,-3.3111,-3.3111,-3.3111,-3.3111,-3.3111,-3.2792,-3.2591,-3.2591,-3.1838,-3.1311,-3.1311,-3.0834,-3.0407,-3.0181,-3.0156,-3.0055,-2.9804,-2.9804,-2.9804,-2.9804,-2.9804,-2.9804,-2.9804,-2.9804,-2.9804,-2.9804,-3.0305,-3.1082,-3.1983,-3.2947,-3.3939,0.0,0.0,0.0,0.0,0.0,0.0,0.0,0.0,0.0,0.0,0.0,0.0,0.0,0.0,0.0,0.0,0.0,0.0,0.0,0.0,0.0,0.0,0.0,0.0,0.0,0.0,0.0,0.0,0.0,0.0,-2.1758,-2.2129,-2.2168,-2.1738,-2.1836,-2.1894,-2.1894,-2.2207,-2.2112,-2.1599,-2.1599,-2.1034,-1.998,-2.1212,-2.1123,-2.0087,-2.2183,-2.3101,-2.3101,-2.3101,-2.3101,-2.3101,-2.3101,-2.3101,-2.3101,-2.3101,-2.3101,-2.3159,-2.3633,-2.3711,-2.3711,-2.4238,-2.4277,-2.4075,-2.4219,-2.418,-2.416,-2.4492,-2.4727,-2.4961,-2.5176,-2.541,-2.5547,-2.5382,-2.5582,-2.6479,-2.8892,-3.0598,-3.1952,-3.2939,-3.3011,-3.2867,-3.2867,-3.2742,-3.2684,-3.2684,-3.229,-3.2014,-3.2014,-3.1185,-3.0608,-3.0608,-3.0131,-2.9804,-2.9804,-2.9804,-2.9804,-2.9804,-2.9804,-2.9804,-2.9804,-2.9804,-2.9804,-2.9804,-3.0024,-3.0024,-2.9804,-3.0733,-3.1573,-3.2272,-3.3463,-3.438,0.0,0.0,0.0,0.0,0.0,0.0,0.0,0.0,0.0,0.0,0.0,0.0,0.0,0.0,0.0,0.0,0.0,0.0,0.0,0.0,0.0,0.0,0.0,0.0,0.0,0.0,0.0,0.0,0.0,0.0,-2.1249,-2.168,-2.1719,-2.1249,-2.168,-2.1894,-2.1894,-2.1914,-2.2087,-2.2454,-2.2454,-2.2025,-2.1257,-2.2448,-2.2359,-2.1302,-2.2536,-2.3101,-2.3101,-2.3101,-2.3101,-2.3101,-2.3101,-2.3101,-2.3101,-2.3101,-2.3101,-2.3159,-2.3633,-2.3516,-2.3257,-2.4095,-2.3822,-2.3237,-2.3691,-2.3535,-2.3159,-2.3198,-2.3783,-2.4355,-2.3984,-2.4492,-2.5,-2.459,-2.53,-2.6689,-2.8943,-3.1291,-3.3025,-3.3068,-3.2641,-3.2265,-3.2265,-3.1813,-3.1486,-3.1486,-3.1461,-3.1436,-3.1436,-3.0959,-3.0608,-3.0608,-3.0131,-2.9804,-2.9804,-2.9804,-2.9804,-2.9804,-2.9804,-2.9804,-2.9804,-2.9804,-2.9804,-2.9804,-3.0658,-3.0696,-2.9804,-3.0733,-3.1204,-3.1315,-3.3122,-3.4013,0.0,0.0,0.0,0.0,0.0,0.0,0.0,0.0,0.0,0.0,0.0,0.0,0.0,0.0,0.0,0.0,0.0,0.0,0.0,0.0,0.0,0.0,0.0,0.0,0.0,0.0,0.0,0.0,0.0,0.0,-2.1737,-2.1531,-2.1269,-2.082,-2.0997,-2.1172,-2.1465,-2.1465,-2.168,-2.2109,-2.2383,-2.2364,-2.2111,-2.279,-2.2862,-2.2492,-2.2906,-2.3101,-2.3101,-2.3101,-2.3101,-2.3101,-2.3101,-2.3101,-2.3101,-2.3101,-2.3101,-2.312,-2.3276,-2.3218,-2.314,-2.3452,-2.3335,-2.312,-2.3276,-2.3218,-2.3159,-2.3477,-2.3769,-2.4043,-2.416,-2.4414,-2.4795,-2.5351,-2.6695,-2.8166,-2.9291,-3.0486,-3.1595,-3.2389,-3.2365,-3.2215,-3.2215,-3.1763,-3.1386,-3.1386,-3.111,-3.0884,-3.0884,-3.0432,-3.008,-3.008,-2.9905,-2.9804,-2.9804,-2.9804,-2.9804,-2.9804,-2.9804,-2.9804,-2.9804,-2.9804,-2.9804,-2.9804,-3.0139,-3.0419,-3.0696,-3.1646,-3.2415,-3.3017,-3.3705,-3.4346,-2.0879,0.0,0.0,0.0,0.0,0.0,0.0,0.0,0.0,0.0,0.0,0.0,0.0,0.0,0.0,0.0,0.0,0.0,0.0,0.0,0.0,0.0,0.0,0.0,0.0,0.0,0.0,0.0,0.0,0.0,-2.2059,-2.1659,-2.1213,-2.0605,-2.0605,-2.0742,-2.1016,-2.1016,-2.123,-2.168,-2.1953,-2.2227,-2.2519,-2.2769,-2.2964,-2.3101,-2.3101,-2.3101,-2.3101,-2.3101,-2.3101,-2.3101,-2.3101,-2.3101,-2.3101,-2.3101,-2.3101,-2.3101,-2.3101,-2.3101,-2.3101,-2.3101,-2.3101,-2.3101,-2.3101,-2.3101,-2.3159,-2.3496,-2.3672,-2.3828,-2.3945,-2.4236,-2.4889,-2.6411,-2.7693,-2.8753,-2.9515,-3.035,-3.1187,-3.1797,-3.1788,-3.1662,-3.1662,-3.121,-3.0859,-3.0859,-3.0557,-3.0331,-3.0331,-3.003,-2.9804,-2.9804,-2.9804,-2.9804,-2.9804,-2.9804,-2.9804,-2.9804,-2.9804,-2.9804,-2.9804,-2.9804,-2.9804,-2.9804,-3.0419,-3.1071,-3.1683,-3.2307,-3.3052,-3.4013,-3.4346,-3.4872,0.0,0.0,0.0,0.0,0.0,0.0,0.0,0.0,0.0,0.0,0.0,0.0,0.0,0.0,0.0,0.0,0.0,0.0,0.0,0.0,0.0,0.0,0.0,0.0,0.0,0.0,0.0,0.0,0.0,-2.3099,-2.2113,-2.2,-2.1565,-2.0644,-2.0605,-2.0605,-2.0605,-2.0605,-2.0781,-2.1171,-2.119,-2.1619,-2.248,-2.248,-2.2672,-2.3081,-2.3081,-2.3081,-2.3101,-2.3101,-2.3101,-2.3101,-2.3101,-2.3101,-2.3101,-2.3101,-2.3101,-2.3101,-2.3101,-2.3101,-2.3101,-2.3101,-2.3101,-2.3101,-2.3101,-2.3101,-2.3101,-2.3101,-2.3437,-2.3672,-2.3242,-2.3973,-2.5357,-2.7562,-2.8108,-2.845,-2.9585,-3.1035,-3.2014,-3.1461,-3.0959,-3.0608,-3.0608,-3.0156,-2.9804,-2.9804,-2.9804,-2.9804,-2.9804,-2.9804,-2.9804,-2.9804,-2.9804,-2.9804,-2.9804,-2.9804,-2.9804,-2.9804,-2.9804,-2.9804,-2.9804,-2.9804,-2.9804,-2.9818,-3.1609,-3.2593,-3.2629,-3.2664,-3.3122,-3.4075,-3.5067,-3.5519,-2.0664,0.0,0.0,0.0,0.0,0.0,0.0,0.0,0.0,0.0,0.0,0.0,0.0,0.0,0.0,0.0,0.0,0.0,0.0,0.0,0.0,0.0,0.0,0.0,0.0,0.0,0.0,0.0,0.0,-2.4145,-2.3136,-2.1756,-2.0857,-2.0605,-2.0605,-2.0605,-2.0605,-2.0605,-2.0664,-2.0762,-2.1074,-2.1327,-2.1561,-2.1914,-2.2285,-2.2676,-2.2676,-2.2808,-2.3101,-2.3101,-2.3101,-2.3101,-2.3101,-2.3101,-2.3101,-2.3101,-2.3101,-2.3101,-2.3101,-2.3101,-2.3101,-2.3101,-2.3101,-2.3101,-2.3101,-2.3101,-2.3101,-2.3101,-2.3179,-2.3457,-2.4166,-2.4532,-2.5357,-2.7562,-2.8369,-2.8883,-2.9621,-3.0457,-3.1009,-3.0859,-3.0708,-3.0608,-3.0608,-3.0156,-2.9804,-2.9804,-2.9804,-2.9804,-2.9804,-2.9804,-2.9804,-2.9804,-2.9804,-2.9804,-2.9804,-2.9804,-2.9804,-2.9804,-2.9804,-2.9804,-2.9804,-2.9804,-3.0101,-3.0809,-3.1315,-3.2236,-3.3602,-3.4341,-3.4839,-3.51,-3.5359,-3.5519,0.0,0.0,0.0,0.0,0.0,0.0,0.0,-2.0644,0.0,0.0,0.0,0.0,0.0,0.0,0.0,0.0,0.0,0.0,0.0,0.0,0.0,0.0,0.0,0.0,0.0,0.0,0.0,0.0,-2.5955,-2.4992,-2.3599,-2.2038,-2.1011,-2.0605,-2.0605,-2.0605,-2.0605,-2.0605,-2.0605,-2.0605,-2.084,-2.1055,-2.121,-2.1504,-2.1836,-2.2266,-2.2441,-2.2656,-2.2847,-2.3023,-2.3101,-2.3101,-2.3101,-2.3101,-2.3101,-2.3101,-2.3101,-2.3101,-2.3101,-2.3101,-2.3101,-2.3101,-2.3101,-2.3101,-2.3101,-2.3101,-2.3101,-2.3101,-2.343,-2.4082,-2.521,-2.5817,-2.6603,-2.8386,-2.905,-2.9355,-2.9738,-3.0055,-3.0281,-3.0281,-3.0281,-3.0281,-3.0281,-3.0005,-2.9804,-2.9804,-2.9804,-2.9804,-2.9804,-2.9804,-2.9804,-2.9804,-2.9804,-2.9804,-2.9804,-2.9804,-2.9804,-2.9804,-2.9804,-2.9804,-2.9804,-2.9804,-3.0254,-3.1167,-3.1573,-3.27,-3.461,-3.4806,-3.51,-3.5519,-3.5519,-3.5519,0.0,0.0,0.0,0.0,0.0,0.0,-2.0195,-2.0019,-1.9979,0.0,0.0,0.0,0.0,0.0,0.0,0.0,0.0,0.0,0.0,0.0,0.0,0.0,0.0,0.0,0.0,0.0,0.0,-2.6499,-2.6396,-2.5487,-2.3599,-2.2563,-2.1565,-2.0644,-2.0605,-2.0605,-2.0605,-2.0605,-2.0605,-2.0605,-2.0605,-2.0781,-2.1112,-2.1112,-2.1406,-2.1836,-2.2266,-2.2461,-2.2539,-2.2925,-2.3101,-2.3101,-2.3101,-2.3101,-2.3101,-2.3101,-2.3101,-2.3101,-2.3101,-2.3101,-2.3101,-2.3101,-2.3101,-2.3101,-2.3101,-2.3101,-2.3144,-2.3256,-2.3996,-2.5083,-2.6337,-2.74,-2.8386,-2.9546,-2.9804,-2.9804,-2.9804,-2.9804,-2.9804,-2.9804,-2.9804,-2.9804,-2.9804,-2.9804,-2.9804,-2.9804,-2.9804,-2.9804,-2.9804,-2.9804,-2.9804,-2.9804,-2.9804,-2.9804,-2.9804,-2.9804,-2.9804,-2.9804,-2.9804,-2.9804,-2.9804,-2.9804,-3.0292,-3.1315,-3.2379,-3.3768,-3.5519,-3.461,-3.461,-3.5519,-3.5519,-3.5519,0.0,0.0,0.0,0.0,0.0,0.0,-2.0644,-2.0723,-2.1271,0.0,0.0,0.0,0.0,0.0,0.0,0.0,0.0,0.0,0.0,0.0,0.0,0.0,0.0,0.0,0.0,0.0,-2.6499,-2.6499,-2.5721,-2.4779,-2.3562,-2.2563,-2.1565,-2.0644,-2.0605,-2.0605,-2.0605,-2.0605,-2.0605,-2.0605,-2.0605,-2.0644,-2.0742,-2.0742,-2.0937,-2.1346,-2.1816,-2.2207,-2.2539,-2.2925,-2.3101,-2.3101,-2.3101,-2.3101,-2.3101,-2.3101,-2.3101,-2.3101,-2.3101,-2.3101,-2.3101,-2.3101,-2.3101,-2.3101,-2.3101,-2.3101,-2.3299,-2.4211,-2.4617,-2.5252,-2.7279,-2.7924,-2.8386,-2.9546,-2.9804,-2.9804,-2.9804,-2.9804,-2.9804,-2.9804,-2.9804,-2.9804,-2.9804,-2.9804,-2.9804,-2.9804,-2.9804,-2.9804,-2.9804,-2.9804,-2.9804,-2.9804,-2.9804,-2.9804,-2.9804,-2.9804,-2.9804,-2.9804,-2.9804,-2.9804,-2.9804,-2.9804,-3.0608,-3.2272,-3.4041,-3.51,-3.5519,-3.5326,-3.5326,-3.5519,-3.5519,-3.5519,0.0,0.0,0.0,-2.1719,0.0,0.0,0.0,-2.1318,-2.1656,0.0,0.0,0.0,0.0,0.0,0.0,0.0,0.0,0.0,0.0,0.0,0.0,0.0,0.0,0.0,0.0,0.0,-2.6172,-2.6474,-2.6025,-2.53,-2.4289,-2.3305,-2.2301,-2.1336,-2.0818,-2.0605,-2.0605,-2.0605,-2.0605,-2.0605,-2.0605,-2.0605,-2.0605,-2.0605,-2.0723,-2.0918,-2.1367,-2.168,-2.1892,-2.2516,-2.2789,-2.2808,-2.3023,-2.3101,-2.3101,-2.3101,-2.3101,-2.3101,-2.3101,-2.3101,-2.3101,-2.3101,-2.3101,-2.3101,-2.3101,-2.3517,-2.4168,-2.5336,-2.6025,-2.6685,-2.7804,-2.8505,-2.9106,-2.9663,-2.9804,-2.9804,-2.9804,-2.9804,-2.9804,-2.9804,-2.9804,-2.9804,-2.9804,-2.9804,-2.9804,-2.9804,-2.9804,-2.9804,-2.9804,-2.9804,-2.9804,-2.9804,-2.9804,-2.9804,-2.9804,-2.9804,-2.9804,-2.9804,-2.9804,-2.9804,-2.9804,-3.0254,-3.1378,-3.3262,-3.4739,-3.5519,-3.5519,-3.5519,-3.5519,-3.5519,-3.5519,-3.5519,0.0,0.0,0.0,0.0,0.0,-2.1984,0.0,0.0,0.0,0.0,0.0,0.0,0.0,0.0,0.0,0.0,0.0,0.0,0.0,0.0,0.0,0.0,0.0,0.0,0.0,0.0,-2.5686,-2.6273,-2.6323,-2.5936,-2.5028,-2.4036,-2.3047,-2.2038,-2.1088,-2.0605,-2.0605,-2.0605,-2.0605,-2.0605,-2.0605,-2.0605,-2.0605,-2.0605,-2.0605,-2.0625,-2.1035,-2.119,-2.1268,-2.2168,-2.2519,-2.2559,-2.2925,-2.3101,-2.3101,-2.3101,-2.3101,-2.3101,-2.3101,-2.3101,-2.3101,-2.3101,-2.3256,-2.343,-2.343,-2.4211,-2.5378,-2.6502,-2.7441,-2.8124,-2.8386,-2.9106,-2.9804,-2.9804,-2.9804,-2.9804,-2.9804,-2.9804,-2.9804,-2.9804,-2.9804,-2.9804,-2.9804,-2.9804,-2.9804,-2.9804,-2.9804,-2.9804,-2.9804,-2.9804,-2.9804,-2.9804,-2.9804,-2.9804,-2.9804,-2.9804,-2.9804,-2.9804,-2.9804,-2.9895,-3.0062,-3.1156,-3.2451,-3.3979,-3.5001,-3.5519,-3.5519,-3.5519,-3.5519,-3.5519,-3.5519,-3.5519,0.0,0.0,0.0,0.0,-2.2168,0.0,0.0,0.0,0.0,0.0,0.0,0.0,0.0,0.0,0.0,0.0,0.0,0.0,0.0,0.0,0.0,0.0,0.0,0.0,0.0,0.0,0.0,-2.5661,-2.5686,-2.5481,-2.5028,-2.4036,-2.3047,-2.2038,-2.1088,-2.0605,-2.0605,-2.0605,-2.0605,-2.0605,-2.0605,-2.0605,-2.0605,-2.0605,-2.0605,-2.0625,-2.1035,-2.119,-2.1268,-2.2168,-2.2519,-2.2559,-2.2925,-2.3101,-2.3101,-2.3101,-2.3101,-2.3101,-2.3101,-2.3101,-2.3101,-2.3101,-2.38,-2.4617,-2.4617,-2.5378,-2.6502,-2.7602,-2.8004,-2.8347,-2.9365,-2.9702,-2.9804,-2.9804,-2.9804,-2.9804,-2.9804,-2.9804,-2.9804,-2.9804,-2.9804,-2.9804,-2.9804,-2.9804,-2.9804,-2.9804,-2.9804,-2.9804,-2.9804,-2.9804,-2.9804,-2.9804,-2.9804,-2.9804,-2.9804,-2.9804,-2.9804,-2.9804,-2.9804,-3.0177,-3.1007,-3.2735,-3.3774,-3.3979,-3.5001,-3.5519,-3.5519,-3.5519,-3.5519,-3.5519,-3.5519,-3.5519,0.0,0.0,0.0,0.0,0.0,0.0,0.0,0.0,-2.3653,0.0,0.0,0.0,0.0,0.0,0.0,0.0,0.0,0.0,0.0,0.0,0.0,0.0,0.0,0.0,0.0,0.0,0.0,0.0,0.0,-2.4705,-2.4541,-2.3332,-2.2451,-2.2038,-2.1088,-2.0605,-2.0605,-2.0605,-2.0605,-2.0605,-2.0605,-2.0605,-2.0605,-2.0605,-2.0605,-2.0625,-2.0762,-2.084,-2.0898,-2.1523,-2.1736,-2.1795,-2.2477,-2.2886,-2.3101,-2.3101,-2.3101,-2.3101,-2.3101,-2.3101,-2.3212,-2.3887,-2.4851,-2.5922,-2.6521,-2.7075,-2.7643,-2.8767,-2.9106,-2.9184,-2.9663,-2.9804,-2.9804,-2.9804,-2.9804,-2.9804,-2.9804,-2.9804,-2.9804,-2.9804,-2.9804,-2.9804,-2.9804,-2.9804,-2.9804,-2.9804,-2.9804,-2.9804,-2.9804,-2.9804,-2.9804,-2.9804,-2.9804,-2.9804,-2.9804,-2.9804,-3.0024,-3.0582,-3.1119,-3.1865,-3.277,-3.3602,-3.4279,-3.4872,-3.5294,-3.5519,-3.5519,-3.5519,-3.5519,-3.5519,-3.5519,-3.5519,-2.2656,0.0,0.0,0.0,0.0,0.0,0.0,0.0,0.0,0.0,0.0,0.0,0.0,0.0,0.0,0.0,0.0,0.0,0.0,0.0,0.0,0.0,0.0,0.0,0.0,0.0,0.0,0.0,-2.4186,0.0,-2.4017,-2.2622,-2.1849,-2.1849,-2.1008,-2.0605,-2.0605,-2.0605,-2.0605,-2.0605,-2.0605,-2.0605,-2.0605,-2.0605,-2.0605,-2.0605,-2.0605,-2.0605,-2.0644,-2.1055,-2.119,-2.1268,-2.2051,-2.2598,-2.2945,-2.3062,-2.3101,-2.3101,-2.3101,-2.3299,-2.3714,-2.4532,-2.5797,-2.7075,-2.7844,-2.8307,-2.8727,-2.9585,-2.9804,-2.9804,-2.9804,-2.9804,-2.9804,-2.9804,-2.9804,-2.9804,-2.9804,-2.9804,-2.9804,-2.9804,-2.9804,-2.9804,-2.9804,-2.9804,-2.9804,-2.9804,-2.9804,-2.9804,-2.9804,-2.9804,-2.9804,-2.9804,-2.9804,-2.9804,-2.9804,-2.9804,-3.0216,-3.113,-3.2055,-3.3017,-3.3945,-3.4245,-3.4773,-3.5519,-3.5519,-3.5519,-3.5519,-3.5519,-3.5519,-3.5519,-3.5519,-3.5519,0.0,0.0,0.0,-2.2012,0.0,0.0,0.0,0.0,-2.4146,0.0,0.0,0.0,0.0,0.0,-2.541,-2.4876,0.0,0.0,0.0,0.0,0.0,0.0,0.0,0.0,0.0,0.0,0.0,0.0,-2.3539,0.0,-2.3513,-2.2187,-2.1424,-2.1424,-2.0905,-2.0605,-2.0605,-2.0605,-2.0605,-2.0605,-2.0605,-2.0605,-2.0605,-2.0605,-2.0605,-2.0605,-2.0605,-2.0605,-2.0644,-2.1055,-2.119,-2.1249,-2.1738,-2.2168,-2.2578,-2.2945,-2.3101,-2.3101,-2.3101,-2.3844,-2.4745,-2.4787,-2.6273,-2.8044,-2.8084,-2.8846,-2.974,-2.9804,-2.9804,-2.9804,-2.9804,-2.9804,-2.9804,-2.9804,-2.9804,-2.9804,-2.9804,-2.9804,-2.9804,-2.9804,-2.9804,-2.9804,-2.9804,-2.9804,-2.9804,-2.9804,-2.9804,-2.9804,-2.9804,-2.9804,-2.9804,-2.9804,-2.9804,-2.9804,-2.9804,-2.9804,-3.0216,-3.113,-3.2055,-3.3017,-3.3945,-3.4938,-3.5457,-3.5519,-3.5519,-3.5519,-3.5519,-3.5519,-3.5519,-3.5519,-3.5519,-3.5519,0.0,0.0,-2.1658,-2.1855,0.0,0.0,0.0,0.0,0.0,0.0,0.0,0.0,0.0,0.0,-2.4604,-2.4425,-2.3917,0.0,0.0,0.0,0.0,0.0,0.0,0.0,0.0,0.0,0.0,-2.3697,-2.2447,-2.1795,0.0,-2.0961,-2.0426,-2.0426,-2.0524,-2.0605,-2.0605,-2.0605,-2.0605,-2.0605,-2.0605,-2.0605,-2.0605,-2.0605,-2.0605,-2.0605,-2.0605,-2.0605,-2.0625,-2.0762,-2.0801,-2.084,-2.1289,-2.1543,-2.1717,-2.2418,-2.2847,-2.3212,-2.3953,-2.4957,-2.6047,-2.6726,-2.8028,-2.9248,-2.9248,-2.9482,-2.9804,-2.9804,-2.9804,-2.9804,-2.9804,-2.9804,-2.9804,-2.9804,-2.9804,-2.9804,-2.9804,-2.9804,-2.9804,-2.9804,-2.9804,-2.9804,-2.9804,-2.9804,-2.9804,-2.9804,-2.9804,-2.9804,-2.9804,-2.9804,-2.9804,-2.9804,-2.9804,-2.9804,-2.9804,-3.0381,-3.1119,-3.2055,-3.3017,-3.3973,-3.4938,-3.5326,-3.5519,-3.5519,-3.5519,-3.5519,-3.5519,-3.5519,-3.5519,-3.5519,-3.5519,-3.5519,-2.1074,-2.1211,0.0,0.0,-2.123,0.0,-2.1781,0.0,0.0,0.0,0.0,0.0,0.0,0.0,0.0,-2.3688,-2.3333,-2.3319,0.0,-2.3678,0.0,0.0,0.0,0.0,0.0,0.0,-2.3929,-2.3022,-2.1716,-2.0841,0.0,0.0,-1.9687,-1.9687,-2.0292,-2.0605,-2.0605,-2.0605,-2.0605,-2.0605,-2.0605,-2.0605,-2.0605,-2.0605,-2.0605,-2.0605,-2.0605,-2.0605,-2.0605,-2.0605,-2.0605,-2.0625,-2.0879,-2.1054,-2.1288,-2.2031,-2.2559,-2.3059,-2.4363,-2.5546,-2.6689,-2.7763,-2.8846,-2.9804,-2.9804,-2.9804,-2.9804,-2.9804,-2.9804,-2.9804,-2.9804,-2.9804,-2.9804,-2.9804,-2.9804,-2.9804,-2.9804,-2.9804,-2.9804,-2.9804,-2.9804,-2.9804,-2.9804,-2.9804,-2.9804,-2.9804,-2.9804,-2.9804,-2.9804,-2.9804,-2.9804,-2.9804,-2.9804,-2.9934,-3.0292,-3.0857,-3.1756,-3.3017,-3.3671,-3.4476,-3.5457,-3.5519,-3.5519,-3.5519,-3.5519,-3.5519,-3.5519,-3.5519,-3.5519,-3.5519,-3.5519,-3.5519]}]]